<?xml version='1.0' encoding='UTF-8'?><gpx version="1.1" creator="JPX - https://github.com/jenetics/jpx" xmlns="http://www.topografix.com/GPX/1/1"><trk><trkseg><trkpt lat="44.0609405" lon="12.1811421"><ele>92.0</ele><time>2026-04-06T06:57:35.62Z</time></trkpt><trkpt lat="44.0609104" lon="12.181235"><ele>92.0</ele><time>2026-04-06T06:57:40.62Z</time></trkpt><trkpt lat="44.0608418" lon="12.1812268"><ele>92.0</ele><time>2026-04-06T06:57:42.62Z</time></trkpt><trkpt lat="44.0607174" lon="12.1811801"><ele>92.0</ele><time>2026-04-06T06:57:44.62Z</time></trkpt><trkpt lat="44.0606423" lon="12.1811508"><ele>92.0</ele><time>2026-04-06T06:57:45.62Z</time></trkpt><trkpt lat="44.0605598" lon="12.1811214"><ele>92.0</ele><time>2026-04-06T06:57:46.62Z</time></trkpt><trkpt lat="44.060467" lon="12.181091"><ele>92.19999999999999</ele><time>2026-04-06T06:57:47.62Z</time></trkpt><trkpt lat="44.0603682" lon="12.1810584"><ele>92.4</ele><time>2026-04-06T06:57:48.62Z</time></trkpt><trkpt lat="44.0602632" lon="12.181025"><ele>92.6</ele><time>2026-04-06T06:57:49.62Z</time></trkpt><trkpt lat="44.0601514" lon="12.180993"><ele>92.80000000000001</ele><time>2026-04-06T06:57:50.62Z</time></trkpt><trkpt lat="44.0600361" lon="12.1809597"><ele>93.0</ele><time>2026-04-06T06:57:51.62Z</time></trkpt><trkpt lat="44.059921" lon="12.1809302"><ele>92.60000000000001</ele><time>2026-04-06T06:57:52.62Z</time></trkpt><trkpt lat="44.0598103" lon="12.1809093"><ele>92.2</ele><time>2026-04-06T06:57:53.62Z</time></trkpt><trkpt lat="44.0597194" lon="12.1808769"><ele>91.8</ele><time>2026-04-06T06:57:54.62Z</time></trkpt><trkpt lat="44.0596255" lon="12.1808424"><ele>91.4</ele><time>2026-04-06T06:57:55.62Z</time></trkpt><trkpt lat="44.0595237" lon="12.1808099"><ele>91.0</ele><time>2026-04-06T06:57:56.621Z</time></trkpt><trkpt lat="44.0594185" lon="12.1807847"><ele>91.0</ele><time>2026-04-06T06:57:57.62Z</time></trkpt><trkpt lat="44.059314" lon="12.1807613"><ele>91.0</ele><time>2026-04-06T06:57:58.62Z</time></trkpt><trkpt lat="44.0592106" lon="12.1807379"><ele>91.0</ele><time>2026-04-06T06:57:59.62Z</time></trkpt><trkpt lat="44.0591133" lon="12.1807135"><ele>91.0</ele><time>2026-04-06T06:58:00.62Z</time></trkpt><trkpt lat="44.0590193" lon="12.1806917"><ele>91.0</ele><time>2026-04-06T06:58:01.62Z</time></trkpt><trkpt lat="44.0589259" lon="12.1806686"><ele>92.25</ele><time>2026-04-06T06:58:02.62Z</time></trkpt><trkpt lat="44.0588222" lon="12.18065"><ele>93.5</ele><time>2026-04-06T06:58:03.62Z</time></trkpt><trkpt lat="44.0587098" lon="12.1806282"><ele>94.75</ele><time>2026-04-06T06:58:04.62Z</time></trkpt><trkpt lat="44.0585924" lon="12.1806067"><ele>96.0</ele><time>2026-04-06T06:58:05.62Z</time></trkpt><trkpt lat="44.0584665" lon="12.1805834"><ele>96.0</ele><time>2026-04-06T06:58:06.62Z</time></trkpt><trkpt lat="44.0583454" lon="12.1805553"><ele>96.0</ele><time>2026-04-06T06:58:07.62Z</time></trkpt><trkpt lat="44.0582363" lon="12.1805373"><ele>96.0</ele><time>2026-04-06T06:58:08.62Z</time></trkpt><trkpt lat="44.0581384" lon="12.1805206"><ele>96.0</ele><time>2026-04-06T06:58:09.62Z</time></trkpt><trkpt lat="44.0580473" lon="12.180501"><ele>96.0</ele><time>2026-04-06T06:58:10.62Z</time></trkpt><trkpt lat="44.0579631" lon="12.1804861"><ele>95.8</ele><time>2026-04-06T06:58:11.621Z</time></trkpt><trkpt lat="44.057885" lon="12.1804728"><ele>95.6</ele><time>2026-04-06T06:58:12.62Z</time></trkpt><trkpt lat="44.0577649" lon="12.1804497"><ele>95.4</ele><time>2026-04-06T06:58:14.62Z</time></trkpt><trkpt lat="44.0576509" lon="12.1804267"><ele>95.2</ele><time>2026-04-06T06:58:16.62Z</time></trkpt><trkpt lat="44.0575366" lon="12.1804059"><ele>95.0</ele><time>2026-04-06T06:58:18.62Z</time></trkpt><trkpt lat="44.0574693" lon="12.1803976"><ele>93.66666666666667</ele><time>2026-04-06T06:58:19.619Z</time></trkpt><trkpt lat="44.0574026" lon="12.1803768"><ele>92.33333333333334</ele><time>2026-04-06T06:58:20.62Z</time></trkpt><trkpt lat="44.0573365" lon="12.1803445"><ele>91.0</ele><time>2026-04-06T06:58:21.619Z</time></trkpt><trkpt lat="44.0572885" lon="12.180258"><ele>89.66666666666667</ele><time>2026-04-06T06:58:22.62Z</time></trkpt><trkpt lat="44.0572534" lon="12.1801715"><ele>88.33333333333333</ele><time>2026-04-06T06:58:23.62Z</time></trkpt><trkpt lat="44.0572625" lon="12.180052"><ele>87.0</ele><time>2026-04-06T06:58:24.62Z</time></trkpt><trkpt lat="44.0572781" lon="12.1799075"><ele>86.5</ele><time>2026-04-06T06:58:25.619Z</time></trkpt><trkpt lat="44.0572972" lon="12.1797548"><ele>86.0</ele><time>2026-04-06T06:58:26.619Z</time></trkpt><trkpt lat="44.0573191" lon="12.1795874"><ele>85.5</ele><time>2026-04-06T06:58:27.62Z</time></trkpt><trkpt lat="44.0573562" lon="12.1794209"><ele>85.0</ele><time>2026-04-06T06:58:28.619Z</time></trkpt><trkpt lat="44.0574093" lon="12.1792511"><ele>88.5</ele><time>2026-04-06T06:58:29.619Z</time></trkpt><trkpt lat="44.0574825" lon="12.1790875"><ele>92.0</ele><time>2026-04-06T06:58:30.62Z</time></trkpt><trkpt lat="44.057573" lon="12.17894"><ele>95.5</ele><time>2026-04-06T06:58:31.619Z</time></trkpt><trkpt lat="44.0576737" lon="12.1788041"><ele>99.0</ele><time>2026-04-06T06:58:32.62Z</time></trkpt><trkpt lat="44.0577527" lon="12.1786659"><ele>99.0</ele><time>2026-04-06T06:58:33.62Z</time></trkpt><trkpt lat="44.0578169" lon="12.1785236"><ele>99.0</ele><time>2026-04-06T06:58:34.619Z</time></trkpt><trkpt lat="44.0578446" lon="12.1783427"><ele>99.0</ele><time>2026-04-06T06:58:35.62Z</time></trkpt><trkpt lat="44.0578824" lon="12.1781705"><ele>99.0</ele><time>2026-04-06T06:58:36.619Z</time></trkpt><trkpt lat="44.0579157" lon="12.1779905"><ele>98.0</ele><time>2026-04-06T06:58:37.619Z</time></trkpt><trkpt lat="44.0579556" lon="12.1778231"><ele>97.0</ele><time>2026-04-06T06:58:38.619Z</time></trkpt><trkpt lat="44.058008" lon="12.1776612"><ele>96.0</ele><time>2026-04-06T06:58:39.62Z</time></trkpt><trkpt lat="44.0580726" lon="12.1775052"><ele>95.0</ele><time>2026-04-06T06:58:40.62Z</time></trkpt><trkpt lat="44.0581495" lon="12.1773601"><ele>94.5</ele><time>2026-04-06T06:58:41.619Z</time></trkpt><trkpt lat="44.0582315" lon="12.1772184"><ele>94.0</ele><time>2026-04-06T06:58:42.619Z</time></trkpt><trkpt lat="44.0583108" lon="12.1770695"><ele>93.5</ele><time>2026-04-06T06:58:43.62Z</time></trkpt><trkpt lat="44.0583962" lon="12.1769248"><ele>93.0</ele><time>2026-04-06T06:58:44.62Z</time></trkpt><trkpt lat="44.0584816" lon="12.1767912"><ele>95.5</ele><time>2026-04-06T06:58:45.619Z</time></trkpt><trkpt lat="44.0585706" lon="12.1766623"><ele>98.0</ele><time>2026-04-06T06:58:46.62Z</time></trkpt><trkpt lat="44.0586785" lon="12.1765679"><ele>100.5</ele><time>2026-04-06T06:58:47.619Z</time></trkpt><trkpt lat="44.0587969" lon="12.1764785"><ele>103.0</ele><time>2026-04-06T06:58:48.619Z</time></trkpt><trkpt lat="44.0589284" lon="12.1764081"><ele>103.0</ele><time>2026-04-06T06:58:49.62Z</time></trkpt><trkpt lat="44.0590564" lon="12.1763534"><ele>103.0</ele><time>2026-04-06T06:58:50.619Z</time></trkpt><trkpt lat="44.059166" lon="12.1762903"><ele>103.0</ele><time>2026-04-06T06:58:51.62Z</time></trkpt><trkpt lat="44.0592504" lon="12.176209"><ele>103.0</ele><time>2026-04-06T06:58:52.62Z</time></trkpt><trkpt lat="44.059312" lon="12.1761047"><ele>107.75</ele><time>2026-04-06T06:58:53.619Z</time></trkpt><trkpt lat="44.0593682" lon="12.1759727"><ele>112.5</ele><time>2026-04-06T06:58:54.62Z</time></trkpt><trkpt lat="44.0594199" lon="12.1758248"><ele>117.25</ele><time>2026-04-06T06:58:55.62Z</time></trkpt><trkpt lat="44.0594688" lon="12.1756794"><ele>122.0</ele><time>2026-04-06T06:58:56.619Z</time></trkpt><trkpt lat="44.0595338" lon="12.1755587"><ele>122.0</ele><time>2026-04-06T06:58:57.62Z</time></trkpt><trkpt lat="44.0596152" lon="12.1754454"><ele>122.0</ele><time>2026-04-06T06:58:58.619Z</time></trkpt><trkpt lat="44.0597013" lon="12.1753292"><ele>122.0</ele><time>2026-04-06T06:58:59.62Z</time></trkpt><trkpt lat="44.0597957" lon="12.1751993"><ele>122.0</ele><time>2026-04-06T06:59:00.62Z</time></trkpt><trkpt lat="44.059893" lon="12.1750731"><ele>125.75</ele><time>2026-04-06T06:59:01.619Z</time></trkpt><trkpt lat="44.0599927" lon="12.1749345"><ele>129.5</ele><time>2026-04-06T06:59:02.619Z</time></trkpt><trkpt lat="44.060098" lon="12.1747957"><ele>133.25</ele><time>2026-04-06T06:59:03.619Z</time></trkpt><trkpt lat="44.0602025" lon="12.1746565"><ele>137.0</ele><time>2026-04-06T06:59:04.62Z</time></trkpt><trkpt lat="44.0603051" lon="12.1745277"><ele>137.0</ele><time>2026-04-06T06:59:05.619Z</time></trkpt><trkpt lat="44.0604077" lon="12.1744045"><ele>137.0</ele><time>2026-04-06T06:59:06.619Z</time></trkpt><trkpt lat="44.0605224" lon="12.1742951"><ele>137.0</ele><time>2026-04-06T06:59:07.62Z</time></trkpt><trkpt lat="44.0606315" lon="12.1741972"><ele>137.0</ele><time>2026-04-06T06:59:08.619Z</time></trkpt><trkpt lat="44.0607275" lon="12.1741083"><ele>139.79999999999998</ele><time>2026-04-06T06:59:09.62Z</time></trkpt><trkpt lat="44.0608154" lon="12.1740257"><ele>142.6</ele><time>2026-04-06T06:59:10.619Z</time></trkpt><trkpt lat="44.0608948" lon="12.1739338"><ele>145.39999999999998</ele><time>2026-04-06T06:59:11.62Z</time></trkpt><trkpt lat="44.0609702" lon="12.1738182"><ele>148.2</ele><time>2026-04-06T06:59:12.62Z</time></trkpt><trkpt lat="44.0610398" lon="12.1736816"><ele>151.0</ele><time>2026-04-06T06:59:13.619Z</time></trkpt><trkpt lat="44.0611151" lon="12.1735348"><ele>151.0</ele><time>2026-04-06T06:59:14.619Z</time></trkpt><trkpt lat="44.0611966" lon="12.1733793"><ele>151.0</ele><time>2026-04-06T06:59:15.619Z</time></trkpt><trkpt lat="44.0612683" lon="12.1732332"><ele>151.0</ele><time>2026-04-06T06:59:16.619Z</time></trkpt><trkpt lat="44.0613366" lon="12.1731021"><ele>151.0</ele><time>2026-04-06T06:59:17.62Z</time></trkpt><trkpt lat="44.0614023" lon="12.1729674"><ele>152.6</ele><time>2026-04-06T06:59:18.619Z</time></trkpt><trkpt lat="44.061456" lon="12.17285"><ele>154.2</ele><time>2026-04-06T06:59:19.619Z</time></trkpt><trkpt lat="44.0615005" lon="12.1727331"><ele>155.8</ele><time>2026-04-06T06:59:20.619Z</time></trkpt><trkpt lat="44.0615483" lon="12.1726255"><ele>157.4</ele><time>2026-04-06T06:59:21.619Z</time></trkpt><trkpt lat="44.0615966" lon="12.1725223"><ele>159.0</ele><time>2026-04-06T06:59:22.619Z</time></trkpt><trkpt lat="44.0616553" lon="12.1724111"><ele>159.4</ele><time>2026-04-06T06:59:23.619Z</time></trkpt><trkpt lat="44.0617142" lon="12.1723022"><ele>159.8</ele><time>2026-04-06T06:59:24.619Z</time></trkpt><trkpt lat="44.0617701" lon="12.1721896"><ele>160.20000000000002</ele><time>2026-04-06T06:59:25.62Z</time></trkpt><trkpt lat="44.061827" lon="12.1720804"><ele>160.60000000000002</ele><time>2026-04-06T06:59:26.62Z</time></trkpt><trkpt lat="44.0618667" lon="12.1719646"><ele>161.0</ele><time>2026-04-06T06:59:27.619Z</time></trkpt><trkpt lat="44.0619107" lon="12.1718456"><ele>161.0</ele><time>2026-04-06T06:59:28.62Z</time></trkpt><trkpt lat="44.0619138" lon="12.171708"><ele>161.0</ele><time>2026-04-06T06:59:29.62Z</time></trkpt><trkpt lat="44.0619182" lon="12.1715795"><ele>161.0</ele><time>2026-04-06T06:59:30.619Z</time></trkpt><trkpt lat="44.0619133" lon="12.1714345"><ele>161.0</ele><time>2026-04-06T06:59:31.62Z</time></trkpt><trkpt lat="44.061909" lon="12.1712909"><ele>161.0</ele><time>2026-04-06T06:59:32.62Z</time></trkpt><trkpt lat="44.0619038" lon="12.171145"><ele>159.8</ele><time>2026-04-06T06:59:33.619Z</time></trkpt><trkpt lat="44.0619194" lon="12.1709983"><ele>158.60000000000002</ele><time>2026-04-06T06:59:34.619Z</time></trkpt><trkpt lat="44.0619316" lon="12.1708584"><ele>157.4</ele><time>2026-04-06T06:59:35.62Z</time></trkpt><trkpt lat="44.0619455" lon="12.1707138"><ele>156.2</ele><time>2026-04-06T06:59:36.619Z</time></trkpt><trkpt lat="44.0619643" lon="12.1705771"><ele>155.0</ele><time>2026-04-06T06:59:37.619Z</time></trkpt><trkpt lat="44.0619935" lon="12.1704553"><ele>154.5</ele><time>2026-04-06T06:59:38.621Z</time></trkpt><trkpt lat="44.0620384" lon="12.1703462"><ele>154.0</ele><time>2026-04-06T06:59:39.619Z</time></trkpt><trkpt lat="44.0620934" lon="12.1702593"><ele>153.5</ele><time>2026-04-06T06:59:40.62Z</time></trkpt><trkpt lat="44.0621633" lon="12.1701857"><ele>153.0</ele><time>2026-04-06T06:59:41.619Z</time></trkpt><trkpt lat="44.0622449" lon="12.1701134"><ele>152.5</ele><time>2026-04-06T06:59:42.621Z</time></trkpt><trkpt lat="44.0623224" lon="12.17005"><ele>152.0</ele><time>2026-04-06T06:59:43.619Z</time></trkpt><trkpt lat="44.0623782" lon="12.1699788"><ele>152.0</ele><time>2026-04-06T06:59:44.619Z</time></trkpt><trkpt lat="44.0624266" lon="12.1699024"><ele>152.0</ele><time>2026-04-06T06:59:45.619Z</time></trkpt><trkpt lat="44.0624383" lon="12.1698154"><ele>152.0</ele><time>2026-04-06T06:59:46.62Z</time></trkpt><trkpt lat="44.0624427" lon="12.1697163"><ele>152.0</ele><time>2026-04-06T06:59:47.62Z</time></trkpt><trkpt lat="44.0624299" lon="12.1696135"><ele>152.0</ele><time>2026-04-06T06:59:48.619Z</time></trkpt><trkpt lat="44.0624014" lon="12.1694924"><ele>152.0</ele><time>2026-04-06T06:59:49.62Z</time></trkpt><trkpt lat="44.0623684" lon="12.1693748"><ele>152.16666666666666</ele><time>2026-04-06T06:59:50.62Z</time></trkpt><trkpt lat="44.0623404" lon="12.1692598"><ele>152.33333333333331</ele><time>2026-04-06T06:59:51.62Z</time></trkpt><trkpt lat="44.0623222" lon="12.1691453"><ele>152.5</ele><time>2026-04-06T06:59:52.619Z</time></trkpt><trkpt lat="44.0623209" lon="12.1690338"><ele>152.66666666666666</ele><time>2026-04-06T06:59:53.619Z</time></trkpt><trkpt lat="44.0623184" lon="12.1689247"><ele>152.83333333333334</ele><time>2026-04-06T06:59:54.619Z</time></trkpt><trkpt lat="44.0623082" lon="12.1688079"><ele>153.0</ele><time>2026-04-06T06:59:55.619Z</time></trkpt><trkpt lat="44.062309" lon="12.1687003"><ele>153.0</ele><time>2026-04-06T06:59:56.62Z</time></trkpt><trkpt lat="44.0623155" lon="12.1685932"><ele>153.0</ele><time>2026-04-06T06:59:57.619Z</time></trkpt><trkpt lat="44.0623257" lon="12.1684906"><ele>153.0</ele><time>2026-04-06T06:59:58.619Z</time></trkpt><trkpt lat="44.0623563" lon="12.1683846"><ele>153.0</ele><time>2026-04-06T06:59:59.62Z</time></trkpt><trkpt lat="44.0623992" lon="12.1682714"><ele>153.0</ele><time>2026-04-06T07:00:00.62Z</time></trkpt><trkpt lat="44.062444" lon="12.1681624"><ele>153.0</ele><time>2026-04-06T07:00:01.619Z</time></trkpt><trkpt lat="44.0624961" lon="12.1680618"><ele>156.57142857142856</ele><time>2026-04-06T07:00:02.62Z</time></trkpt><trkpt lat="44.0625416" lon="12.167963"><ele>160.14285714285714</ele><time>2026-04-06T07:00:03.619Z</time></trkpt><trkpt lat="44.0625707" lon="12.1678722"><ele>163.71428571428572</ele><time>2026-04-06T07:00:04.62Z</time></trkpt><trkpt lat="44.0625884" lon="12.1677808"><ele>167.28571428571428</ele><time>2026-04-06T07:00:05.619Z</time></trkpt><trkpt lat="44.0625994" lon="12.1676868"><ele>170.85714285714286</ele><time>2026-04-06T07:00:06.619Z</time></trkpt><trkpt lat="44.0625966" lon="12.1675928"><ele>174.42857142857142</ele><time>2026-04-06T07:00:07.619Z</time></trkpt><trkpt lat="44.0625838" lon="12.1674892"><ele>178.0</ele><time>2026-04-06T07:00:08.619Z</time></trkpt><trkpt lat="44.0625749" lon="12.1673671"><ele>179.16666666666669</ele><time>2026-04-06T07:00:09.619Z</time></trkpt><trkpt lat="44.062575" lon="12.1672309"><ele>180.33333333333334</ele><time>2026-04-06T07:00:10.619Z</time></trkpt><trkpt lat="44.0625779" lon="12.1671014"><ele>181.5</ele><time>2026-04-06T07:00:11.62Z</time></trkpt><trkpt lat="44.0625789" lon="12.1669916"><ele>182.66666666666666</ele><time>2026-04-06T07:00:12.619Z</time></trkpt><trkpt lat="44.0625812" lon="12.1668885"><ele>183.83333333333331</ele><time>2026-04-06T07:00:13.62Z</time></trkpt><trkpt lat="44.0625918" lon="12.1667697"><ele>185.0</ele><time>2026-04-06T07:00:14.619Z</time></trkpt><trkpt lat="44.0626073" lon="12.1666359"><ele>185.83333333333331</ele><time>2026-04-06T07:00:15.619Z</time></trkpt><trkpt lat="44.0626215" lon="12.1665104"><ele>186.66666666666666</ele><time>2026-04-06T07:00:16.62Z</time></trkpt><trkpt lat="44.0626404" lon="12.1664005"><ele>187.5</ele><time>2026-04-06T07:00:17.619Z</time></trkpt><trkpt lat="44.0626635" lon="12.1663025"><ele>188.33333333333334</ele><time>2026-04-06T07:00:18.62Z</time></trkpt><trkpt lat="44.0626923" lon="12.1662136"><ele>189.16666666666669</ele><time>2026-04-06T07:00:19.619Z</time></trkpt><trkpt lat="44.0627184" lon="12.1660736"><ele>190.0</ele><time>2026-04-06T07:00:21.62Z</time></trkpt><trkpt lat="44.0627257" lon="12.1659455"><ele>190.0</ele><time>2026-04-06T07:00:23.619Z</time></trkpt><trkpt lat="44.0627159" lon="12.1657776"><ele>190.0</ele><time>2026-04-06T07:00:25.619Z</time></trkpt><trkpt lat="44.0627088" lon="12.1656835"><ele>190.0</ele><time>2026-04-06T07:00:26.619Z</time></trkpt><trkpt lat="44.0627013" lon="12.1655897"><ele>190.0</ele><time>2026-04-06T07:00:27.62Z</time></trkpt><trkpt lat="44.0626959" lon="12.165492"><ele>190.0</ele><time>2026-04-06T07:00:28.62Z</time></trkpt><trkpt lat="44.0626908" lon="12.1653877"><ele>190.0</ele><time>2026-04-06T07:00:29.619Z</time></trkpt><trkpt lat="44.0626878" lon="12.1652737"><ele>191.8</ele><time>2026-04-06T07:00:30.619Z</time></trkpt><trkpt lat="44.0626814" lon="12.1651475"><ele>193.6</ele><time>2026-04-06T07:00:31.619Z</time></trkpt><trkpt lat="44.0626689" lon="12.1650091"><ele>195.39999999999998</ele><time>2026-04-06T07:00:32.619Z</time></trkpt><trkpt lat="44.0626567" lon="12.1648637"><ele>197.2</ele><time>2026-04-06T07:00:33.62Z</time></trkpt><trkpt lat="44.0626513" lon="12.1647167"><ele>199.0</ele><time>2026-04-06T07:00:34.621Z</time></trkpt><trkpt lat="44.0626431" lon="12.1645831"><ele>200.66666666666666</ele><time>2026-04-06T07:00:35.619Z</time></trkpt><trkpt lat="44.0626341" lon="12.1644643"><ele>202.33333333333331</ele><time>2026-04-06T07:00:36.62Z</time></trkpt><trkpt lat="44.062621" lon="12.1643566"><ele>204.0</ele><time>2026-04-06T07:00:37.619Z</time></trkpt><trkpt lat="44.0626078" lon="12.1642572"><ele>205.66666666666669</ele><time>2026-04-06T07:00:38.619Z</time></trkpt><trkpt lat="44.0625889" lon="12.1641593"><ele>207.33333333333334</ele><time>2026-04-06T07:00:39.62Z</time></trkpt><trkpt lat="44.0625677" lon="12.1640507"><ele>209.0</ele><time>2026-04-06T07:00:40.619Z</time></trkpt><trkpt lat="44.0625429" lon="12.1639488"><ele>211.0</ele><time>2026-04-06T07:00:41.619Z</time></trkpt><trkpt lat="44.0625153" lon="12.1638605"><ele>213.0</ele><time>2026-04-06T07:00:42.619Z</time></trkpt><trkpt lat="44.0624873" lon="12.1637799"><ele>214.99999999999997</ele><time>2026-04-06T07:00:43.619Z</time></trkpt><trkpt lat="44.0624358" lon="12.1636667"><ele>217.0</ele><time>2026-04-06T07:00:45.62Z</time></trkpt><trkpt lat="44.0623446" lon="12.1635647"><ele>219.0</ele><time>2026-04-06T07:00:47.619Z</time></trkpt><trkpt lat="44.0622531" lon="12.1634314"><ele>219.42857142857144</ele><time>2026-04-06T07:00:49.619Z</time></trkpt><trkpt lat="44.0622003" lon="12.1633571"><ele>219.85714285714283</ele><time>2026-04-06T07:00:50.62Z</time></trkpt><trkpt lat="44.0621475" lon="12.1632924"><ele>220.28571428571428</ele><time>2026-04-06T07:00:51.62Z</time></trkpt><trkpt lat="44.0620936" lon="12.1632445"><ele>220.71428571428572</ele><time>2026-04-06T07:00:52.619Z</time></trkpt><trkpt lat="44.0620372" lon="12.1632029"><ele>221.14285714285717</ele><time>2026-04-06T07:00:53.619Z</time></trkpt><trkpt lat="44.0619803" lon="12.1631634"><ele>221.57142857142856</ele><time>2026-04-06T07:00:54.619Z</time></trkpt><trkpt lat="44.0619203" lon="12.1631337"><ele>222.0</ele><time>2026-04-06T07:00:55.62Z</time></trkpt><trkpt lat="44.061854" lon="12.1631084"><ele>222.28571428571428</ele><time>2026-04-06T07:00:56.62Z</time></trkpt><trkpt lat="44.061788" lon="12.1630775"><ele>222.57142857142858</ele><time>2026-04-06T07:00:57.619Z</time></trkpt><trkpt lat="44.061728" lon="12.1630321"><ele>222.85714285714286</ele><time>2026-04-06T07:00:58.62Z</time></trkpt><trkpt lat="44.0616645" lon="12.1629758"><ele>223.14285714285714</ele><time>2026-04-06T07:00:59.621Z</time></trkpt><trkpt lat="44.0616056" lon="12.1629185"><ele>223.42857142857144</ele><time>2026-04-06T07:01:00.619Z</time></trkpt><trkpt lat="44.0615557" lon="12.1628564"><ele>223.71428571428572</ele><time>2026-04-06T07:01:01.62Z</time></trkpt><trkpt lat="44.0615075" lon="12.1627832"><ele>224.0</ele><time>2026-04-06T07:01:02.62Z</time></trkpt><trkpt lat="44.0614612" lon="12.1626905"><ele>224.00000000000003</ele><time>2026-04-06T07:01:03.619Z</time></trkpt><trkpt lat="44.0614185" lon="12.1626011"><ele>224.0</ele><time>2026-04-06T07:01:04.619Z</time></trkpt><trkpt lat="44.0613874" lon="12.1625245"><ele>224.0</ele><time>2026-04-06T07:01:05.619Z</time></trkpt><trkpt lat="44.0613595" lon="12.1623962"><ele>224.0</ele><time>2026-04-06T07:01:07.619Z</time></trkpt><trkpt lat="44.0613778" lon="12.1622797"><ele>224.00000000000003</ele><time>2026-04-06T07:01:09.619Z</time></trkpt><trkpt lat="44.0614505" lon="12.1621573"><ele>224.0</ele><time>2026-04-06T07:01:11.619Z</time></trkpt><trkpt lat="44.0615058" lon="12.1621066"><ele>225.00000000000003</ele><time>2026-04-06T07:01:12.62Z</time></trkpt><trkpt lat="44.0615698" lon="12.1620585"><ele>226.0</ele><time>2026-04-06T07:01:13.621Z</time></trkpt><trkpt lat="44.0616377" lon="12.1620039"><ele>227.0</ele><time>2026-04-06T07:01:14.62Z</time></trkpt><trkpt lat="44.0616965" lon="12.161946"><ele>228.0</ele><time>2026-04-06T07:01:15.62Z</time></trkpt><trkpt lat="44.0617579" lon="12.1618405"><ele>229.00000000000003</ele><time>2026-04-06T07:01:17.62Z</time></trkpt><trkpt lat="44.0617658" lon="12.161694"><ele>230.0</ele><time>2026-04-06T07:01:19.62Z</time></trkpt><trkpt lat="44.0617961" lon="12.1615232"><ele>235.0</ele><time>2026-04-06T07:01:21.62Z</time></trkpt><trkpt lat="44.0618419" lon="12.1614375"><ele>240.0</ele><time>2026-04-06T07:01:22.62Z</time></trkpt><trkpt lat="44.0619102" lon="12.1613527"><ele>245.0</ele><time>2026-04-06T07:01:23.62Z</time></trkpt><trkpt lat="44.0619927" lon="12.1612564"><ele>250.0</ele><time>2026-04-06T07:01:24.62Z</time></trkpt><trkpt lat="44.0620774" lon="12.1611644"><ele>255.0</ele><time>2026-04-06T07:01:25.619Z</time></trkpt><trkpt lat="44.062146" lon="12.1610848"><ele>255.0</ele><time>2026-04-06T07:01:26.62Z</time></trkpt><trkpt lat="44.0621996" lon="12.1610135"><ele>255.0</ele><time>2026-04-06T07:01:27.619Z</time></trkpt><trkpt lat="44.0622701" lon="12.1609206"><ele>255.0</ele><time>2026-04-06T07:01:29.619Z</time></trkpt><trkpt lat="44.0622901" lon="12.1608284"><ele>255.0</ele><time>2026-04-06T07:02:17.62Z</time></trkpt><trkpt lat="44.0622602" lon="12.1607164"><ele>255.0</ele><time>2026-04-06T07:02:19.619Z</time></trkpt><trkpt lat="44.0621822" lon="12.1605775"><ele>255.83333333333334</ele><time>2026-04-06T07:02:21.619Z</time></trkpt><trkpt lat="44.062126" lon="12.1605035"><ele>256.6666666666667</ele><time>2026-04-06T07:02:22.619Z</time></trkpt><trkpt lat="44.0620701" lon="12.1604271"><ele>257.5</ele><time>2026-04-06T07:02:23.62Z</time></trkpt><trkpt lat="44.0620063" lon="12.1603393"><ele>258.33333333333337</ele><time>2026-04-06T07:02:24.619Z</time></trkpt><trkpt lat="44.0619393" lon="12.1602484"><ele>259.1666666666667</ele><time>2026-04-06T07:02:25.619Z</time></trkpt><trkpt lat="44.0618636" lon="12.1601444"><ele>260.0</ele><time>2026-04-06T07:02:26.619Z</time></trkpt><trkpt lat="44.0617858" lon="12.1600375"><ele>260.0</ele><time>2026-04-06T07:02:27.62Z</time></trkpt><trkpt lat="44.0617093" lon="12.159923"><ele>260.0</ele><time>2026-04-06T07:02:28.619Z</time></trkpt><trkpt lat="44.0616311" lon="12.1597994"><ele>260.0</ele><time>2026-04-06T07:02:29.619Z</time></trkpt><trkpt lat="44.0615587" lon="12.1596728"><ele>260.0</ele><time>2026-04-06T07:02:30.62Z</time></trkpt><trkpt lat="44.0614886" lon="12.1595406"><ele>259.6</ele><time>2026-04-06T07:02:31.619Z</time></trkpt><trkpt lat="44.0614234" lon="12.159412"><ele>259.2</ele><time>2026-04-06T07:02:32.62Z</time></trkpt><trkpt lat="44.0613651" lon="12.1592784"><ele>258.8</ele><time>2026-04-06T07:02:33.62Z</time></trkpt><trkpt lat="44.0613112" lon="12.1591519"><ele>258.4</ele><time>2026-04-06T07:02:34.619Z</time></trkpt><trkpt lat="44.061257" lon="12.1590213"><ele>258.0</ele><time>2026-04-06T07:02:35.619Z</time></trkpt><trkpt lat="44.0612019" lon="12.1588868"><ele>259.25</ele><time>2026-04-06T07:02:36.619Z</time></trkpt><trkpt lat="44.0611361" lon="12.1587497"><ele>260.5</ele><time>2026-04-06T07:02:37.619Z</time></trkpt><trkpt lat="44.061069" lon="12.1586135"><ele>261.75</ele><time>2026-04-06T07:02:38.62Z</time></trkpt><trkpt lat="44.0610004" lon="12.1584805"><ele>263.0</ele><time>2026-04-06T07:02:39.62Z</time></trkpt><trkpt lat="44.0609246" lon="12.1583399"><ele>263.0</ele><time>2026-04-06T07:02:40.62Z</time></trkpt><trkpt lat="44.060853" lon="12.1582051"><ele>263.0</ele><time>2026-04-06T07:02:41.62Z</time></trkpt><trkpt lat="44.0607808" lon="12.1580721"><ele>263.0</ele><time>2026-04-06T07:02:42.619Z</time></trkpt><trkpt lat="44.060713" lon="12.1579369"><ele>263.0</ele><time>2026-04-06T07:02:43.619Z</time></trkpt><trkpt lat="44.0606461" lon="12.1578002"><ele>265.0</ele><time>2026-04-06T07:02:44.619Z</time></trkpt><trkpt lat="44.0605791" lon="12.157658"><ele>267.0</ele><time>2026-04-06T07:02:45.619Z</time></trkpt><trkpt lat="44.0605124" lon="12.1575324"><ele>269.0</ele><time>2026-04-06T07:02:46.619Z</time></trkpt><trkpt lat="44.0604475" lon="12.1574073"><ele>271.0</ele><time>2026-04-06T07:02:47.62Z</time></trkpt><trkpt lat="44.0603913" lon="12.1572882"><ele>273.0</ele><time>2026-04-06T07:02:48.619Z</time></trkpt><trkpt lat="44.0603319" lon="12.1571702"><ele>274.6</ele><time>2026-04-06T07:02:49.62Z</time></trkpt><trkpt lat="44.0602668" lon="12.1570545"><ele>276.20000000000005</ele><time>2026-04-06T07:02:50.619Z</time></trkpt><trkpt lat="44.0602024" lon="12.1569414"><ele>277.8</ele><time>2026-04-06T07:02:51.619Z</time></trkpt><trkpt lat="44.0601396" lon="12.1568352"><ele>279.40000000000003</ele><time>2026-04-06T07:02:52.619Z</time></trkpt><trkpt lat="44.060076" lon="12.1567338"><ele>281.0</ele><time>2026-04-06T07:02:53.619Z</time></trkpt><trkpt lat="44.060012" lon="12.1566427"><ele>280.83333333333337</ele><time>2026-04-06T07:02:54.62Z</time></trkpt><trkpt lat="44.0599498" lon="12.1565509"><ele>280.6666666666667</ele><time>2026-04-06T07:02:55.619Z</time></trkpt><trkpt lat="44.059895" lon="12.1564717"><ele>280.5</ele><time>2026-04-06T07:02:56.619Z</time></trkpt><trkpt lat="44.0598483" lon="12.156391"><ele>280.3333333333333</ele><time>2026-04-06T07:02:57.619Z</time></trkpt><trkpt lat="44.0598104" lon="12.1563182"><ele>280.16666666666663</ele><time>2026-04-06T07:02:58.619Z</time></trkpt><trkpt lat="44.0597662" lon="12.1562478"><ele>280.0</ele><time>2026-04-06T07:02:59.62Z</time></trkpt><trkpt lat="44.0596581" lon="12.1561533"><ele>282.3333333333333</ele><time>2026-04-06T07:03:01.619Z</time></trkpt><trkpt lat="44.0595957" lon="12.1561018"><ele>284.66666666666663</ele><time>2026-04-06T07:03:02.619Z</time></trkpt><trkpt lat="44.059531" lon="12.1560492"><ele>287.0</ele><time>2026-04-06T07:03:03.619Z</time></trkpt><trkpt lat="44.0594619" lon="12.1559966"><ele>289.3333333333333</ele><time>2026-04-06T07:03:04.619Z</time></trkpt><trkpt lat="44.0593892" lon="12.1559406"><ele>291.6666666666667</ele><time>2026-04-06T07:03:05.62Z</time></trkpt><trkpt lat="44.0593167" lon="12.1558864"><ele>294.0</ele><time>2026-04-06T07:03:06.619Z</time></trkpt><trkpt lat="44.0592414" lon="12.155828"><ele>294.0</ele><time>2026-04-06T07:03:07.619Z</time></trkpt><trkpt lat="44.0591676" lon="12.1557641"><ele>294.0</ele><time>2026-04-06T07:03:08.62Z</time></trkpt><trkpt lat="44.0591018" lon="12.155702"><ele>294.0</ele><time>2026-04-06T07:03:09.619Z</time></trkpt><trkpt lat="44.0590373" lon="12.1556371"><ele>294.0</ele><time>2026-04-06T07:03:10.621Z</time></trkpt><trkpt lat="44.0589765" lon="12.1555725"><ele>294.0</ele><time>2026-04-06T07:03:11.619Z</time></trkpt><trkpt lat="44.0589171" lon="12.1555028"><ele>294.0</ele><time>2026-04-06T07:03:12.62Z</time></trkpt><trkpt lat="44.0588644" lon="12.1554161"><ele>298.3333333333333</ele><time>2026-04-06T07:03:13.619Z</time></trkpt><trkpt lat="44.0588056" lon="12.1553242"><ele>302.6666666666667</ele><time>2026-04-06T07:03:14.619Z</time></trkpt><trkpt lat="44.0587547" lon="12.1552374"><ele>307.0</ele><time>2026-04-06T07:03:15.619Z</time></trkpt><trkpt lat="44.0587117" lon="12.1551704"><ele>311.33333333333337</ele><time>2026-04-06T07:03:16.619Z</time></trkpt><trkpt lat="44.0586339" lon="12.1551067"><ele>315.6666666666667</ele><time>2026-04-06T07:03:18.619Z</time></trkpt><trkpt lat="44.0585394" lon="12.1551239"><ele>320.0</ele><time>2026-04-06T07:03:20.619Z</time></trkpt><trkpt lat="44.0584663" lon="12.1551611"><ele>320.0</ele><time>2026-04-06T07:03:22.619Z</time></trkpt><trkpt lat="44.0583759" lon="12.1552058"><ele>320.0</ele><time>2026-04-06T07:03:27.619Z</time></trkpt><trkpt lat="44.0582834" lon="12.1553159"><ele>320.0</ele><time>2026-04-06T07:03:29.62Z</time></trkpt><trkpt lat="44.05821" lon="12.155414"><ele>320.0</ele><time>2026-04-06T07:03:30.619Z</time></trkpt><trkpt lat="44.0581365" lon="12.1555052"><ele>320.0</ele><time>2026-04-06T07:03:31.619Z</time></trkpt><trkpt lat="44.0580537" lon="12.1556061"><ele>315.5</ele><time>2026-04-06T07:03:32.619Z</time></trkpt><trkpt lat="44.057959" lon="12.1557072"><ele>311.0</ele><time>2026-04-06T07:03:33.619Z</time></trkpt><trkpt lat="44.0578547" lon="12.1558169"><ele>306.5</ele><time>2026-04-06T07:03:34.619Z</time></trkpt><trkpt lat="44.0577357" lon="12.1559306"><ele>302.0</ele><time>2026-04-06T07:03:35.619Z</time></trkpt><trkpt lat="44.0576167" lon="12.1560525"><ele>302.0</ele><time>2026-04-06T07:03:36.619Z</time></trkpt><trkpt lat="44.0574825" lon="12.1561956"><ele>302.0</ele><time>2026-04-06T07:03:37.619Z</time></trkpt><trkpt lat="44.0573615" lon="12.156354"><ele>302.0</ele><time>2026-04-06T07:03:38.62Z</time></trkpt><trkpt lat="44.0572471" lon="12.1565307"><ele>300.33333333333337</ele><time>2026-04-06T07:03:39.619Z</time></trkpt><trkpt lat="44.0571388" lon="12.1567206"><ele>298.6666666666667</ele><time>2026-04-06T07:03:40.62Z</time></trkpt><trkpt lat="44.0570258" lon="12.1569062"><ele>297.0</ele><time>2026-04-06T07:03:41.619Z</time></trkpt><trkpt lat="44.0569235" lon="12.157094"><ele>297.0</ele><time>2026-04-06T07:03:42.619Z</time></trkpt><trkpt lat="44.0568305" lon="12.1572725"><ele>297.0</ele><time>2026-04-06T07:03:43.619Z</time></trkpt><trkpt lat="44.05674" lon="12.1574509"><ele>297.0</ele><time>2026-04-06T07:03:44.619Z</time></trkpt><trkpt lat="44.0566598" lon="12.1576182"><ele>296.5</ele><time>2026-04-06T07:03:45.619Z</time></trkpt><trkpt lat="44.0565742" lon="12.1577727"><ele>296.0</ele><time>2026-04-06T07:03:46.619Z</time></trkpt><trkpt lat="44.0564918" lon="12.1579157"><ele>295.5</ele><time>2026-04-06T07:03:47.619Z</time></trkpt><trkpt lat="44.0564116" lon="12.1580604"><ele>295.0</ele><time>2026-04-06T07:03:48.619Z</time></trkpt><trkpt lat="44.0563288" lon="12.1581967"><ele>294.5</ele><time>2026-04-06T07:03:49.619Z</time></trkpt><trkpt lat="44.0562501" lon="12.1583155"><ele>294.0</ele><time>2026-04-06T07:03:50.619Z</time></trkpt><trkpt lat="44.0561617" lon="12.1584259"><ele>293.5</ele><time>2026-04-06T07:03:51.62Z</time></trkpt><trkpt lat="44.0560785" lon="12.1585382"><ele>293.0</ele><time>2026-04-06T07:03:52.62Z</time></trkpt><trkpt lat="44.0560105" lon="12.1586536"><ele>293.0</ele><time>2026-04-06T07:03:53.62Z</time></trkpt><trkpt lat="44.0559728" lon="12.158788"><ele>293.0</ele><time>2026-04-06T07:03:54.619Z</time></trkpt><trkpt lat="44.0559566" lon="12.1589388"><ele>293.0</ele><time>2026-04-06T07:03:55.619Z</time></trkpt><trkpt lat="44.0559514" lon="12.1591031"><ele>293.0</ele><time>2026-04-06T07:03:56.619Z</time></trkpt><trkpt lat="44.0559466" lon="12.1592701"><ele>292.75</ele><time>2026-04-06T07:03:57.619Z</time></trkpt><trkpt lat="44.0559392" lon="12.1594327"><ele>292.5</ele><time>2026-04-06T07:03:58.619Z</time></trkpt><trkpt lat="44.0559253" lon="12.1595895"><ele>292.25</ele><time>2026-04-06T07:03:59.619Z</time></trkpt><trkpt lat="44.0558998" lon="12.1597481"><ele>292.0</ele><time>2026-04-06T07:04:00.62Z</time></trkpt><trkpt lat="44.0558322" lon="12.1598921"><ele>290.25</ele><time>2026-04-06T07:04:01.619Z</time></trkpt><trkpt lat="44.0557608" lon="12.1600283"><ele>288.5</ele><time>2026-04-06T07:04:02.619Z</time></trkpt><trkpt lat="44.0556905" lon="12.1601591"><ele>286.75</ele><time>2026-04-06T07:04:03.619Z</time></trkpt><trkpt lat="44.0556314" lon="12.1602904"><ele>285.0</ele><time>2026-04-06T07:04:04.619Z</time></trkpt><trkpt lat="44.0555848" lon="12.1604289"><ele>285.0</ele><time>2026-04-06T07:04:05.62Z</time></trkpt><trkpt lat="44.0555574" lon="12.1605792"><ele>285.0</ele><time>2026-04-06T07:04:06.619Z</time></trkpt><trkpt lat="44.0555528" lon="12.1607398"><ele>285.0</ele><time>2026-04-06T07:04:07.62Z</time></trkpt><trkpt lat="44.0555543" lon="12.1608919"><ele>285.0</ele><time>2026-04-06T07:04:08.619Z</time></trkpt><trkpt lat="44.0555542" lon="12.1610394"><ele>285.0</ele><time>2026-04-06T07:04:09.619Z</time></trkpt><trkpt lat="44.0555531" lon="12.1611782"><ele>287.1666666666667</ele><time>2026-04-06T07:04:10.619Z</time></trkpt><trkpt lat="44.0555321" lon="12.1612983"><ele>289.3333333333333</ele><time>2026-04-06T07:04:11.619Z</time></trkpt><trkpt lat="44.0554921" lon="12.1613934"><ele>291.5</ele><time>2026-04-06T07:04:12.619Z</time></trkpt><trkpt lat="44.055416" lon="12.1614315"><ele>293.66666666666663</ele><time>2026-04-06T07:04:13.62Z</time></trkpt><trkpt lat="44.05533" lon="12.1614564"><ele>295.8333333333333</ele><time>2026-04-06T07:04:14.619Z</time></trkpt><trkpt lat="44.0552247" lon="12.1614781"><ele>298.0</ele><time>2026-04-06T07:04:15.62Z</time></trkpt><trkpt lat="44.0551273" lon="12.1615029"><ele>298.0</ele><time>2026-04-06T07:04:16.619Z</time></trkpt><trkpt lat="44.0550214" lon="12.1615197"><ele>298.0</ele><time>2026-04-06T07:04:17.619Z</time></trkpt><trkpt lat="44.0549186" lon="12.1615186"><ele>298.0</ele><time>2026-04-06T07:04:18.619Z</time></trkpt><trkpt lat="44.0548244" lon="12.1615175"><ele>298.0</ele><time>2026-04-06T07:04:19.62Z</time></trkpt><trkpt lat="44.0547346" lon="12.1615306"><ele>298.0</ele><time>2026-04-06T07:04:20.62Z</time></trkpt><trkpt lat="44.0546513" lon="12.161562"><ele>296.2</ele><time>2026-04-06T07:04:21.619Z</time></trkpt><trkpt lat="44.0545639" lon="12.1616138"><ele>294.4</ele><time>2026-04-06T07:04:22.62Z</time></trkpt><trkpt lat="44.0544658" lon="12.1616866"><ele>292.59999999999997</ele><time>2026-04-06T07:04:23.619Z</time></trkpt><trkpt lat="44.0543618" lon="12.1617609"><ele>290.8</ele><time>2026-04-06T07:04:24.619Z</time></trkpt><trkpt lat="44.0542663" lon="12.1618316"><ele>289.0</ele><time>2026-04-06T07:04:25.619Z</time></trkpt><trkpt lat="44.0541833" lon="12.1618908"><ele>286.16666666666663</ele><time>2026-04-06T07:04:26.62Z</time></trkpt><trkpt lat="44.0541109" lon="12.1619488"><ele>283.3333333333333</ele><time>2026-04-06T07:04:27.619Z</time></trkpt><trkpt lat="44.0540481" lon="12.1620089"><ele>280.5</ele><time>2026-04-06T07:04:28.619Z</time></trkpt><trkpt lat="44.0539936" lon="12.1620775"><ele>277.6666666666667</ele><time>2026-04-06T07:04:29.62Z</time></trkpt><trkpt lat="44.0539416" lon="12.1621512"><ele>274.83333333333337</ele><time>2026-04-06T07:04:30.619Z</time></trkpt><trkpt lat="44.0538955" lon="12.1622342"><ele>272.0</ele><time>2026-04-06T07:04:31.619Z</time></trkpt><trkpt lat="44.0538571" lon="12.1623261"><ele>272.6666666666667</ele><time>2026-04-06T07:04:32.62Z</time></trkpt><trkpt lat="44.0538221" lon="12.1624249"><ele>273.33333333333337</ele><time>2026-04-06T07:04:33.619Z</time></trkpt><trkpt lat="44.0537853" lon="12.1625235"><ele>274.0</ele><time>2026-04-06T07:04:34.619Z</time></trkpt><trkpt lat="44.0537492" lon="12.1626224"><ele>274.6666666666667</ele><time>2026-04-06T07:04:35.619Z</time></trkpt><trkpt lat="44.0537157" lon="12.1627052"><ele>275.3333333333333</ele><time>2026-04-06T07:04:36.62Z</time></trkpt><trkpt lat="44.0536744" lon="12.1627899"><ele>276.0</ele><time>2026-04-06T07:04:37.619Z</time></trkpt><trkpt lat="44.053632" lon="12.1628683"><ele>276.0</ele><time>2026-04-06T07:04:38.619Z</time></trkpt><trkpt lat="44.0535784" lon="12.1629318"><ele>276.0</ele><time>2026-04-06T07:04:39.619Z</time></trkpt><trkpt lat="44.0535191" lon="12.1629914"><ele>276.0</ele><time>2026-04-06T07:04:40.619Z</time></trkpt><trkpt lat="44.0534599" lon="12.1630443"><ele>276.0</ele><time>2026-04-06T07:04:41.619Z</time></trkpt><trkpt lat="44.053403" lon="12.163092"><ele>276.0</ele><time>2026-04-06T07:04:42.62Z</time></trkpt><trkpt lat="44.0533002" lon="12.1631705"><ele>276.0</ele><time>2026-04-06T07:04:44.619Z</time></trkpt><trkpt lat="44.0532125" lon="12.163208"><ele>270.8</ele><time>2026-04-06T07:04:46.619Z</time></trkpt><trkpt lat="44.0531278" lon="12.1632072"><ele>265.6</ele><time>2026-04-06T07:04:48.619Z</time></trkpt><trkpt lat="44.0530486" lon="12.1631317"><ele>260.4</ele><time>2026-04-06T07:04:50.619Z</time></trkpt><trkpt lat="44.0530103" lon="12.1629961"><ele>255.2</ele><time>2026-04-06T07:04:52.619Z</time></trkpt><trkpt lat="44.0529883" lon="12.1628554"><ele>250.0</ele><time>2026-04-06T07:04:54.619Z</time></trkpt><trkpt lat="44.0529469" lon="12.1627579"><ele>250.0</ele><time>2026-04-06T07:04:56.619Z</time></trkpt><trkpt lat="44.0528585" lon="12.1627638"><ele>250.0</ele><time>2026-04-06T07:04:59.62Z</time></trkpt><trkpt lat="44.052825" lon="12.1628626"><ele>250.0</ele><time>2026-04-06T07:05:01.619Z</time></trkpt><trkpt lat="44.0528277" lon="12.1630054"><ele>250.0</ele><time>2026-04-06T07:05:03.62Z</time></trkpt><trkpt lat="44.052822" lon="12.1631673"><ele>250.0</ele><time>2026-04-06T07:05:05.619Z</time></trkpt><trkpt lat="44.0528312" lon="12.1633163"><ele>249.33333333333331</ele><time>2026-04-06T07:05:07.619Z</time></trkpt><trkpt lat="44.0528714" lon="12.1634848"><ele>248.66666666666666</ele><time>2026-04-06T07:05:09.62Z</time></trkpt><trkpt lat="44.0528937" lon="12.1635712"><ele>248.0</ele><time>2026-04-06T07:05:10.619Z</time></trkpt><trkpt lat="44.0529217" lon="12.1636581"><ele>247.33333333333331</ele><time>2026-04-06T07:05:11.619Z</time></trkpt><trkpt lat="44.0529523" lon="12.1637455"><ele>246.66666666666666</ele><time>2026-04-06T07:05:12.619Z</time></trkpt><trkpt lat="44.0530006" lon="12.1638866"><ele>246.0</ele><time>2026-04-06T07:05:14.62Z</time></trkpt><trkpt lat="44.0530457" lon="12.1640178"><ele>245.0</ele><time>2026-04-06T07:05:16.619Z</time></trkpt><trkpt lat="44.0530562" lon="12.1641655"><ele>244.0</ele><time>2026-04-06T07:05:18.62Z</time></trkpt><trkpt lat="44.0530106" lon="12.1643176"><ele>243.0</ele><time>2026-04-06T07:05:20.619Z</time></trkpt><trkpt lat="44.0529697" lon="12.1643885"><ele>242.0</ele><time>2026-04-06T07:05:21.619Z</time></trkpt><trkpt lat="44.0529218" lon="12.1644617"><ele>241.0</ele><time>2026-04-06T07:05:22.62Z</time></trkpt><trkpt lat="44.052876" lon="12.1645378"><ele>240.0</ele><time>2026-04-06T07:05:23.619Z</time></trkpt><trkpt lat="44.0528323" lon="12.1646164"><ele>240.0</ele><time>2026-04-06T07:05:24.619Z</time></trkpt><trkpt lat="44.0527917" lon="12.1647"><ele>240.0</ele><time>2026-04-06T07:05:25.619Z</time></trkpt><trkpt lat="44.0527533" lon="12.1647874"><ele>240.0</ele><time>2026-04-06T07:05:26.619Z</time></trkpt><trkpt lat="44.0527151" lon="12.1648715"><ele>240.0</ele><time>2026-04-06T07:05:27.619Z</time></trkpt><trkpt lat="44.0526731" lon="12.1649518"><ele>240.0</ele><time>2026-04-06T07:05:28.62Z</time></trkpt><trkpt lat="44.0526321" lon="12.1650333"><ele>240.0</ele><time>2026-04-06T07:05:29.62Z</time></trkpt><trkpt lat="44.0525976" lon="12.1651133"><ele>240.0</ele><time>2026-04-06T07:05:30.62Z</time></trkpt><trkpt lat="44.0525212" lon="12.1652321"><ele>236.2</ele><time>2026-04-06T07:05:32.619Z</time></trkpt><trkpt lat="44.0524364" lon="12.1653211"><ele>232.4</ele><time>2026-04-06T07:05:34.62Z</time></trkpt><trkpt lat="44.0523477" lon="12.1653901"><ele>228.60000000000002</ele><time>2026-04-06T07:05:36.619Z</time></trkpt><trkpt lat="44.052258" lon="12.1654577"><ele>224.8</ele><time>2026-04-06T07:05:38.619Z</time></trkpt><trkpt lat="44.0521716" lon="12.1655285"><ele>221.0</ele><time>2026-04-06T07:05:40.619Z</time></trkpt><trkpt lat="44.0520931" lon="12.1655857"><ele>221.00000000000003</ele><time>2026-04-06T07:05:42.619Z</time></trkpt><trkpt lat="44.052008" lon="12.1655933"><ele>221.0</ele><time>2026-04-06T07:05:44.619Z</time></trkpt><trkpt lat="44.0519585" lon="12.1655357"><ele>221.0</ele><time>2026-04-06T07:05:46.619Z</time></trkpt><trkpt lat="44.0519549" lon="12.1654292"><ele>221.0</ele><time>2026-04-06T07:05:48.619Z</time></trkpt><trkpt lat="44.0519996" lon="12.1652752"><ele>221.00000000000003</ele><time>2026-04-06T07:05:50.619Z</time></trkpt><trkpt lat="44.0520328" lon="12.1651971"><ele>221.0</ele><time>2026-04-06T07:05:51.619Z</time></trkpt><trkpt lat="44.0520671" lon="12.1651178"><ele>221.00000000000003</ele><time>2026-04-06T07:05:52.619Z</time></trkpt><trkpt lat="44.0521065" lon="12.1650371"><ele>221.0</ele><time>2026-04-06T07:05:53.619Z</time></trkpt><trkpt lat="44.0521413" lon="12.1649545"><ele>221.0</ele><time>2026-04-06T07:05:54.619Z</time></trkpt><trkpt lat="44.0521743" lon="12.1648637"><ele>221.0</ele><time>2026-04-06T07:05:55.619Z</time></trkpt><trkpt lat="44.0522029" lon="12.1647707"><ele>221.0</ele><time>2026-04-06T07:05:56.619Z</time></trkpt><trkpt lat="44.052226" lon="12.1646745"><ele>221.00000000000003</ele><time>2026-04-06T07:05:57.619Z</time></trkpt><trkpt lat="44.0522442" lon="12.1645803"><ele>221.0</ele><time>2026-04-06T07:05:58.619Z</time></trkpt><trkpt lat="44.0522534" lon="12.1644876"><ele>220.33333333333334</ele><time>2026-04-06T07:05:59.619Z</time></trkpt><trkpt lat="44.052257" lon="12.1643944"><ele>219.66666666666669</ele><time>2026-04-06T07:06:00.619Z</time></trkpt><trkpt lat="44.0522542" lon="12.164299"><ele>219.0</ele><time>2026-04-06T07:06:01.619Z</time></trkpt><trkpt lat="44.0522466" lon="12.1642063"><ele>218.33333333333331</ele><time>2026-04-06T07:06:02.619Z</time></trkpt><trkpt lat="44.0522309" lon="12.1641183"><ele>217.66666666666666</ele><time>2026-04-06T07:06:03.619Z</time></trkpt><trkpt lat="44.0522145" lon="12.1640314"><ele>217.0</ele><time>2026-04-06T07:06:04.62Z</time></trkpt><trkpt lat="44.0521507" lon="12.1638909"><ele>216.99999999999997</ele><time>2026-04-06T07:06:06.619Z</time></trkpt><trkpt lat="44.052069" lon="12.1637565"><ele>217.0</ele><time>2026-04-06T07:06:08.619Z</time></trkpt><trkpt lat="44.0520264" lon="12.1636892"><ele>217.0</ele><time>2026-04-06T07:06:09.619Z</time></trkpt><trkpt lat="44.0519804" lon="12.1636166"><ele>217.0</ele><time>2026-04-06T07:06:10.619Z</time></trkpt><trkpt lat="44.0519461" lon="12.1635425"><ele>216.99999999999997</ele><time>2026-04-06T07:06:11.619Z</time></trkpt><trkpt lat="44.051907" lon="12.1634641"><ele>217.0</ele><time>2026-04-06T07:06:12.619Z</time></trkpt><trkpt lat="44.051879" lon="12.1633826"><ele>217.0</ele><time>2026-04-06T07:06:13.619Z</time></trkpt><trkpt lat="44.051854" lon="12.1632984"><ele>217.0</ele><time>2026-04-06T07:06:14.619Z</time></trkpt><trkpt lat="44.0518332" lon="12.1632123"><ele>217.0</ele><time>2026-04-06T07:06:15.619Z</time></trkpt><trkpt lat="44.0518093" lon="12.1631211"><ele>217.0</ele><time>2026-04-06T07:06:16.619Z</time></trkpt><trkpt lat="44.0517917" lon="12.1630365"><ele>217.0</ele><time>2026-04-06T07:06:17.619Z</time></trkpt><trkpt lat="44.0517825" lon="12.1629463"><ele>217.0</ele><time>2026-04-06T07:06:18.619Z</time></trkpt><trkpt lat="44.051768" lon="12.1628601"><ele>217.0</ele><time>2026-04-06T07:06:19.619Z</time></trkpt><trkpt lat="44.0517532" lon="12.1627685"><ele>217.0</ele><time>2026-04-06T07:06:20.619Z</time></trkpt><trkpt lat="44.0517403" lon="12.1626761"><ele>217.0</ele><time>2026-04-06T07:06:21.62Z</time></trkpt><trkpt lat="44.0517297" lon="12.1625834"><ele>217.0</ele><time>2026-04-06T07:06:22.619Z</time></trkpt><trkpt lat="44.0517372" lon="12.1624952"><ele>217.0</ele><time>2026-04-06T07:06:23.619Z</time></trkpt><trkpt lat="44.0517247" lon="12.1624008"><ele>217.0</ele><time>2026-04-06T07:06:24.619Z</time></trkpt><trkpt lat="44.0517168" lon="12.1623091"><ele>217.0</ele><time>2026-04-06T07:06:25.62Z</time></trkpt><trkpt lat="44.0517147" lon="12.1622191"><ele>217.0</ele><time>2026-04-06T07:06:26.619Z</time></trkpt><trkpt lat="44.0517095" lon="12.1621253"><ele>216.49999999999997</ele><time>2026-04-06T07:06:27.619Z</time></trkpt><trkpt lat="44.0517077" lon="12.1620162"><ele>216.0</ele><time>2026-04-06T07:06:28.619Z</time></trkpt><trkpt lat="44.051705" lon="12.1619053"><ele>215.5</ele><time>2026-04-06T07:06:29.62Z</time></trkpt><trkpt lat="44.0517029" lon="12.161794"><ele>215.0</ele><time>2026-04-06T07:06:30.619Z</time></trkpt><trkpt lat="44.0517025" lon="12.1616856"><ele>214.49999999999997</ele><time>2026-04-06T07:06:31.619Z</time></trkpt><trkpt lat="44.0517021" lon="12.1615776"><ele>214.0</ele><time>2026-04-06T07:06:32.619Z</time></trkpt><trkpt lat="44.0516992" lon="12.1614736"><ele>213.14285714285717</ele><time>2026-04-06T07:06:33.619Z</time></trkpt><trkpt lat="44.0516968" lon="12.1613688"><ele>212.28571428571428</ele><time>2026-04-06T07:06:34.62Z</time></trkpt><trkpt lat="44.0516937" lon="12.1612686"><ele>211.42857142857144</ele><time>2026-04-06T07:06:35.619Z</time></trkpt><trkpt lat="44.0516867" lon="12.1611681"><ele>210.57142857142858</ele><time>2026-04-06T07:06:36.619Z</time></trkpt><trkpt lat="44.0516828" lon="12.161074"><ele>209.71428571428572</ele><time>2026-04-06T07:06:37.619Z</time></trkpt><trkpt lat="44.0516803" lon="12.1609846"><ele>208.85714285714286</ele><time>2026-04-06T07:06:38.619Z</time></trkpt><trkpt lat="44.0516756" lon="12.1608951"><ele>208.0</ele><time>2026-04-06T07:06:39.619Z</time></trkpt><trkpt lat="44.0516762" lon="12.1607201"><ele>207.66666666666666</ele><time>2026-04-06T07:06:41.619Z</time></trkpt><trkpt lat="44.0516853" lon="12.1605526"><ele>207.33333333333331</ele><time>2026-04-06T07:06:43.619Z</time></trkpt><trkpt lat="44.0516871" lon="12.1604631"><ele>207.0</ele><time>2026-04-06T07:06:44.62Z</time></trkpt><trkpt lat="44.0516863" lon="12.1603591"><ele>206.66666666666669</ele><time>2026-04-06T07:06:45.619Z</time></trkpt><trkpt lat="44.0516876" lon="12.1602599"><ele>206.33333333333334</ele><time>2026-04-06T07:06:46.619Z</time></trkpt><trkpt lat="44.0516867" lon="12.1601557"><ele>206.0</ele><time>2026-04-06T07:06:47.619Z</time></trkpt><trkpt lat="44.0516862" lon="12.1600596"><ele>206.0</ele><time>2026-04-06T07:06:48.619Z</time></trkpt><trkpt lat="44.0516864" lon="12.1598952"><ele>206.0</ele><time>2026-04-06T07:06:50.619Z</time></trkpt><trkpt lat="44.051667" lon="12.1597533"><ele>206.0</ele><time>2026-04-06T07:06:52.619Z</time></trkpt><trkpt lat="44.0516159" lon="12.1596501"><ele>206.0</ele><time>2026-04-06T07:06:54.618Z</time></trkpt><trkpt lat="44.0515387" lon="12.1596185"><ele>206.0</ele><time>2026-04-06T07:06:56.619Z</time></trkpt><trkpt lat="44.0514653" lon="12.1596988"><ele>202.4</ele><time>2026-04-06T07:06:58.619Z</time></trkpt><trkpt lat="44.0514469" lon="12.1598318"><ele>198.8</ele><time>2026-04-06T07:07:00.619Z</time></trkpt><trkpt lat="44.0514615" lon="12.1599847"><ele>195.20000000000002</ele><time>2026-04-06T07:07:02.619Z</time></trkpt><trkpt lat="44.0514619" lon="12.1601433"><ele>191.60000000000002</ele><time>2026-04-06T07:07:04.62Z</time></trkpt><trkpt lat="44.051407" lon="12.1602922"><ele>188.0</ele><time>2026-04-06T07:07:06.619Z</time></trkpt><trkpt lat="44.0513649" lon="12.1603588"><ele>188.0</ele><time>2026-04-06T07:07:07.619Z</time></trkpt><trkpt lat="44.0513167" lon="12.1604232"><ele>188.0</ele><time>2026-04-06T07:07:08.619Z</time></trkpt><trkpt lat="44.0512684" lon="12.1604929"><ele>188.0</ele><time>2026-04-06T07:07:09.619Z</time></trkpt><trkpt lat="44.0512182" lon="12.1605702"><ele>188.0</ele><time>2026-04-06T07:07:10.619Z</time></trkpt><trkpt lat="44.0511688" lon="12.1606438"><ele>188.0</ele><time>2026-04-06T07:07:11.619Z</time></trkpt><trkpt lat="44.0511244" lon="12.1607166"><ele>188.0</ele><time>2026-04-06T07:07:12.619Z</time></trkpt><trkpt lat="44.0510784" lon="12.1607838"><ele>188.0</ele><time>2026-04-06T07:07:13.619Z</time></trkpt><trkpt lat="44.0510319" lon="12.1608507"><ele>187.57142857142856</ele><time>2026-04-06T07:07:14.619Z</time></trkpt><trkpt lat="44.0509851" lon="12.1609203"><ele>187.14285714285714</ele><time>2026-04-06T07:07:15.619Z</time></trkpt><trkpt lat="44.0509376" lon="12.1609917"><ele>186.71428571428572</ele><time>2026-04-06T07:07:16.619Z</time></trkpt><trkpt lat="44.0508897" lon="12.1610639"><ele>186.28571428571428</ele><time>2026-04-06T07:07:17.619Z</time></trkpt><trkpt lat="44.0508413" lon="12.1611354"><ele>185.85714285714286</ele><time>2026-04-06T07:07:18.619Z</time></trkpt><trkpt lat="44.0507907" lon="12.161205"><ele>185.42857142857142</ele><time>2026-04-06T07:07:19.619Z</time></trkpt><trkpt lat="44.0507402" lon="12.1612658"><ele>185.0</ele><time>2026-04-06T07:07:20.619Z</time></trkpt><trkpt lat="44.0506874" lon="12.1613146"><ele>182.0</ele><time>2026-04-06T07:07:21.619Z</time></trkpt><trkpt lat="44.0505718" lon="12.1613811"><ele>179.0</ele><time>2026-04-06T07:07:23.618Z</time></trkpt><trkpt lat="44.0505058" lon="12.16139"><ele>176.0</ele><time>2026-04-06T07:07:24.619Z</time></trkpt><trkpt lat="44.0504382" lon="12.1613941"><ele>173.0</ele><time>2026-04-06T07:07:25.619Z</time></trkpt><trkpt lat="44.0503608" lon="12.1613856"><ele>170.0</ele><time>2026-04-06T07:07:26.619Z</time></trkpt><trkpt lat="44.0502856" lon="12.1613722"><ele>167.0</ele><time>2026-04-06T07:07:27.619Z</time></trkpt><trkpt lat="44.0502076" lon="12.1613562"><ele>167.0</ele><time>2026-04-06T07:07:28.619Z</time></trkpt><trkpt lat="44.0501312" lon="12.161335"><ele>167.0</ele><time>2026-04-06T07:07:29.619Z</time></trkpt><trkpt lat="44.0500557" lon="12.1613163"><ele>167.0</ele><time>2026-04-06T07:07:30.619Z</time></trkpt><trkpt lat="44.0499812" lon="12.1613008"><ele>167.0</ele><time>2026-04-06T07:07:31.619Z</time></trkpt><trkpt lat="44.0499055" lon="12.1612862"><ele>167.0</ele><time>2026-04-06T07:07:32.619Z</time></trkpt><trkpt lat="44.0498308" lon="12.1612827"><ele>167.0</ele><time>2026-04-06T07:07:33.619Z</time></trkpt><trkpt lat="44.0497563" lon="12.1612867"><ele>163.33333333333331</ele><time>2026-04-06T07:07:34.619Z</time></trkpt><trkpt lat="44.0496792" lon="12.1613112"><ele>159.66666666666666</ele><time>2026-04-06T07:07:35.619Z</time></trkpt><trkpt lat="44.0496034" lon="12.1613384"><ele>156.0</ele><time>2026-04-06T07:07:36.619Z</time></trkpt><trkpt lat="44.0495272" lon="12.1613721"><ele>152.33333333333334</ele><time>2026-04-06T07:07:37.619Z</time></trkpt><trkpt lat="44.0494508" lon="12.1614041"><ele>148.66666666666669</ele><time>2026-04-06T07:07:38.619Z</time></trkpt><trkpt lat="44.0493769" lon="12.1614295"><ele>145.0</ele><time>2026-04-06T07:07:39.619Z</time></trkpt><trkpt lat="44.0493019" lon="12.1614523"><ele>145.0</ele><time>2026-04-06T07:07:40.619Z</time></trkpt><trkpt lat="44.0492279" lon="12.1614798"><ele>145.0</ele><time>2026-04-06T07:07:41.619Z</time></trkpt><trkpt lat="44.0491093" lon="12.1615193"><ele>145.0</ele><time>2026-04-06T07:07:43.618Z</time></trkpt><trkpt lat="44.0490092" lon="12.1615773"><ele>145.0</ele><time>2026-04-06T07:07:45.619Z</time></trkpt><trkpt lat="44.0489518" lon="12.161676"><ele>145.0</ele><time>2026-04-06T07:07:47.619Z</time></trkpt><trkpt lat="44.0489355" lon="12.1617972"><ele>146.5</ele><time>2026-04-06T07:07:49.619Z</time></trkpt><trkpt lat="44.0489652" lon="12.1619268"><ele>148.0</ele><time>2026-04-06T07:07:51.619Z</time></trkpt><trkpt lat="44.0490464" lon="12.162074"><ele>149.5</ele><time>2026-04-06T07:07:53.619Z</time></trkpt><trkpt lat="44.0490948" lon="12.1621488"><ele>151.0</ele><time>2026-04-06T07:07:54.62Z</time></trkpt><trkpt lat="44.049145" lon="12.1622243"><ele>152.5</ele><time>2026-04-06T07:07:55.619Z</time></trkpt><trkpt lat="44.0491934" lon="12.1622956"><ele>154.0</ele><time>2026-04-06T07:07:56.619Z</time></trkpt><trkpt lat="44.0492425" lon="12.1623712"><ele>154.0</ele><time>2026-04-06T07:07:57.619Z</time></trkpt><trkpt lat="44.0492897" lon="12.16244"><ele>154.0</ele><time>2026-04-06T07:07:58.619Z</time></trkpt><trkpt lat="44.0493665" lon="12.1625545"><ele>154.0</ele><time>2026-04-06T07:08:00.619Z</time></trkpt><trkpt lat="44.049405" lon="12.1626595"><ele>154.0</ele><time>2026-04-06T07:08:02.619Z</time></trkpt><trkpt lat="44.049408" lon="12.1627688"><ele>154.0</ele><time>2026-04-06T07:08:04.619Z</time></trkpt><trkpt lat="44.0493626" lon="12.16287"><ele>154.0</ele><time>2026-04-06T07:08:06.619Z</time></trkpt><trkpt lat="44.0492809" lon="12.1629377"><ele>154.0</ele><time>2026-04-06T07:08:08.619Z</time></trkpt><trkpt lat="44.0491594" lon="12.1630015"><ele>154.0</ele><time>2026-04-06T07:08:10.619Z</time></trkpt><trkpt lat="44.0490728" lon="12.1630344"><ele>154.0</ele><time>2026-04-06T07:08:11.619Z</time></trkpt><trkpt lat="44.0489831" lon="12.163073"><ele>154.0</ele><time>2026-04-06T07:08:12.619Z</time></trkpt><trkpt lat="44.0488845" lon="12.1631138"><ele>154.0</ele><time>2026-04-06T07:08:13.619Z</time></trkpt><trkpt lat="44.0487884" lon="12.1631544"><ele>150.2</ele><time>2026-04-06T07:08:14.619Z</time></trkpt><trkpt lat="44.0486976" lon="12.1631962"><ele>146.4</ele><time>2026-04-06T07:08:15.619Z</time></trkpt><trkpt lat="44.0486062" lon="12.1632341"><ele>142.6</ele><time>2026-04-06T07:08:16.619Z</time></trkpt><trkpt lat="44.0485188" lon="12.1632717"><ele>138.8</ele><time>2026-04-06T07:08:17.62Z</time></trkpt><trkpt lat="44.0484372" lon="12.163307"><ele>135.0</ele><time>2026-04-06T07:08:18.619Z</time></trkpt><trkpt lat="44.0483497" lon="12.1633464"><ele>132.0</ele><time>2026-04-06T07:08:19.618Z</time></trkpt><trkpt lat="44.0482527" lon="12.1633915"><ele>129.0</ele><time>2026-04-06T07:08:20.619Z</time></trkpt><trkpt lat="44.0481544" lon="12.1634415"><ele>126.0</ele><time>2026-04-06T07:08:21.62Z</time></trkpt><trkpt lat="44.0480589" lon="12.1634989"><ele>123.0</ele><time>2026-04-06T07:08:22.618Z</time></trkpt><trkpt lat="44.047967" lon="12.1635633"><ele>120.0</ele><time>2026-04-06T07:08:23.619Z</time></trkpt><trkpt lat="44.0478788" lon="12.1636361"><ele>120.0</ele><time>2026-04-06T07:08:24.619Z</time></trkpt><trkpt lat="44.0477951" lon="12.1637113"><ele>120.0</ele><time>2026-04-06T07:08:25.618Z</time></trkpt><trkpt lat="44.0477173" lon="12.163792"><ele>120.0</ele><time>2026-04-06T07:08:26.619Z</time></trkpt><trkpt lat="44.0476499" lon="12.1638801"><ele>120.0</ele><time>2026-04-06T07:08:27.619Z</time></trkpt><trkpt lat="44.0475846" lon="12.1639633"><ele>120.0</ele><time>2026-04-06T07:08:28.619Z</time></trkpt><trkpt lat="44.0475205" lon="12.1640458"><ele>117.8</ele><time>2026-04-06T07:08:29.619Z</time></trkpt><trkpt lat="44.0474574" lon="12.1641275"><ele>115.6</ele><time>2026-04-06T07:08:30.619Z</time></trkpt><trkpt lat="44.0473878" lon="12.1642166"><ele>113.4</ele><time>2026-04-06T07:08:31.619Z</time></trkpt><trkpt lat="44.0473121" lon="12.1643201"><ele>111.2</ele><time>2026-04-06T07:08:32.618Z</time></trkpt><trkpt lat="44.047232" lon="12.1644256"><ele>109.0</ele><time>2026-04-06T07:08:33.619Z</time></trkpt><trkpt lat="44.0471592" lon="12.1645291"><ele>109.0</ele><time>2026-04-06T07:08:34.619Z</time></trkpt><trkpt lat="44.0470835" lon="12.1646319"><ele>109.0</ele><time>2026-04-06T07:08:35.619Z</time></trkpt><trkpt lat="44.0470084" lon="12.1647271"><ele>109.0</ele><time>2026-04-06T07:08:36.62Z</time></trkpt><trkpt lat="44.04694" lon="12.164828"><ele>109.0</ele><time>2026-04-06T07:08:37.619Z</time></trkpt><trkpt lat="44.0468697" lon="12.1649229"><ele>109.0</ele><time>2026-04-06T07:08:38.618Z</time></trkpt><trkpt lat="44.0468027" lon="12.1650209"><ele>110.2</ele><time>2026-04-06T07:08:39.619Z</time></trkpt><trkpt lat="44.046737" lon="12.1651155"><ele>111.4</ele><time>2026-04-06T07:08:40.618Z</time></trkpt><trkpt lat="44.046673" lon="12.1652146"><ele>112.6</ele><time>2026-04-06T07:08:41.619Z</time></trkpt><trkpt lat="44.0466058" lon="12.1653123"><ele>113.8</ele><time>2026-04-06T07:08:42.62Z</time></trkpt><trkpt lat="44.0465374" lon="12.1654155"><ele>115.0</ele><time>2026-04-06T07:08:43.619Z</time></trkpt><trkpt lat="44.0464759" lon="12.1655131"><ele>111.4</ele><time>2026-04-06T07:08:44.619Z</time></trkpt><trkpt lat="44.046408" lon="12.1656088"><ele>107.8</ele><time>2026-04-06T07:08:45.619Z</time></trkpt><trkpt lat="44.0463356" lon="12.1656992"><ele>104.19999999999999</ele><time>2026-04-06T07:08:46.618Z</time></trkpt><trkpt lat="44.0462611" lon="12.1657869"><ele>100.6</ele><time>2026-04-06T07:08:47.619Z</time></trkpt><trkpt lat="44.0461845" lon="12.1658672"><ele>97.0</ele><time>2026-04-06T07:08:48.619Z</time></trkpt><trkpt lat="44.0461031" lon="12.1659437"><ele>97.0</ele><time>2026-04-06T07:08:49.619Z</time></trkpt><trkpt lat="44.0460167" lon="12.1660169"><ele>97.0</ele><time>2026-04-06T07:08:50.619Z</time></trkpt><trkpt lat="44.0459235" lon="12.1660723"><ele>97.0</ele><time>2026-04-06T07:08:51.619Z</time></trkpt><trkpt lat="44.0458319" lon="12.166119"><ele>97.0</ele><time>2026-04-06T07:08:52.619Z</time></trkpt><trkpt lat="44.0457291" lon="12.1661571"><ele>97.0</ele><time>2026-04-06T07:08:53.619Z</time></trkpt><trkpt lat="44.045622" lon="12.1661803"><ele>95.0</ele><time>2026-04-06T07:08:54.619Z</time></trkpt><trkpt lat="44.0455166" lon="12.1661897"><ele>93.0</ele><time>2026-04-06T07:08:55.618Z</time></trkpt><trkpt lat="44.045424" lon="12.1661984"><ele>91.0</ele><time>2026-04-06T07:08:56.619Z</time></trkpt><trkpt lat="44.0453509" lon="12.1662079"><ele>89.0</ele><time>2026-04-06T07:08:57.619Z</time></trkpt><trkpt lat="44.045256" lon="12.1662903"><ele>87.0</ele><time>2026-04-06T07:08:59.619Z</time></trkpt><trkpt lat="44.0452112" lon="12.1664433"><ele>86.85714285714286</ele><time>2026-04-06T07:09:01.618Z</time></trkpt><trkpt lat="44.0451961" lon="12.1665354"><ele>86.71428571428572</ele><time>2026-04-06T07:09:02.618Z</time></trkpt><trkpt lat="44.0451935" lon="12.1666294"><ele>86.57142857142858</ele><time>2026-04-06T07:09:03.618Z</time></trkpt><trkpt lat="44.045204" lon="12.16675"><ele>86.42857142857143</ele><time>2026-04-06T07:09:04.619Z</time></trkpt><trkpt lat="44.0452175" lon="12.1668533"><ele>86.28571428571429</ele><time>2026-04-06T07:09:05.619Z</time></trkpt><trkpt lat="44.0452428" lon="12.1669502"><ele>86.14285714285715</ele><time>2026-04-06T07:09:06.619Z</time></trkpt><trkpt lat="44.0452806" lon="12.1670348"><ele>86.0</ele><time>2026-04-06T07:09:07.619Z</time></trkpt><trkpt lat="44.0453387" lon="12.1670925"><ele>86.0</ele><time>2026-04-06T07:09:08.619Z</time></trkpt><trkpt lat="44.0454321" lon="12.1671639"><ele>86.0</ele><time>2026-04-06T07:09:10.62Z</time></trkpt><trkpt lat="44.0454783" lon="12.1672353"><ele>86.0</ele><time>2026-04-06T07:09:14.619Z</time></trkpt><trkpt lat="44.045378" lon="12.1672412"><ele>86.0</ele><time>2026-04-06T07:09:17.619Z</time></trkpt><trkpt lat="44.0453131" lon="12.167225"><ele>86.0</ele><time>2026-04-06T07:09:18.619Z</time></trkpt><trkpt lat="44.0452239" lon="12.1671985"><ele>86.0</ele><time>2026-04-06T07:09:19.619Z</time></trkpt><trkpt lat="44.0451204" lon="12.1671671"><ele>86.0</ele><time>2026-04-06T07:09:20.619Z</time></trkpt><trkpt lat="44.0450099" lon="12.1671342"><ele>86.0</ele><time>2026-04-06T07:09:21.619Z</time></trkpt><trkpt lat="44.0448868" lon="12.1670768"><ele>86.0</ele><time>2026-04-06T07:09:22.619Z</time></trkpt><trkpt lat="44.0447659" lon="12.1669883"><ele>86.0</ele><time>2026-04-06T07:09:23.618Z</time></trkpt><trkpt lat="44.0446347" lon="12.1668774"><ele>85.0</ele><time>2026-04-06T07:09:24.619Z</time></trkpt><trkpt lat="44.044505" lon="12.1667436"><ele>84.0</ele><time>2026-04-06T07:09:25.619Z</time></trkpt><trkpt lat="44.0443758" lon="12.1665846"><ele>83.0</ele><time>2026-04-06T07:09:26.619Z</time></trkpt><trkpt lat="44.0442485" lon="12.1664047"><ele>82.66666666666667</ele><time>2026-04-06T07:09:27.619Z</time></trkpt><trkpt lat="44.0441171" lon="12.1662179"><ele>82.33333333333333</ele><time>2026-04-06T07:09:28.619Z</time></trkpt><trkpt lat="44.0439886" lon="12.166036"><ele>82.0</ele><time>2026-04-06T07:09:29.62Z</time></trkpt><trkpt lat="44.0438585" lon="12.1658571"><ele>83.33333333333333</ele><time>2026-04-06T07:09:30.619Z</time></trkpt><trkpt lat="44.0437304" lon="12.1656785"><ele>84.66666666666667</ele><time>2026-04-06T07:09:31.618Z</time></trkpt><trkpt lat="44.0436002" lon="12.1654965"><ele>86.0</ele><time>2026-04-06T07:09:32.619Z</time></trkpt><trkpt lat="44.0434715" lon="12.1653173"><ele>86.0</ele><time>2026-04-06T07:09:33.619Z</time></trkpt><trkpt lat="44.043341" lon="12.1651361"><ele>86.0</ele><time>2026-04-06T07:09:34.62Z</time></trkpt><trkpt lat="44.0432086" lon="12.1649529"><ele>86.0</ele><time>2026-04-06T07:09:35.619Z</time></trkpt><trkpt lat="44.0430777" lon="12.1647646"><ele>85.33333333333334</ele><time>2026-04-06T07:09:36.62Z</time></trkpt><trkpt lat="44.0429492" lon="12.1645711"><ele>84.66666666666667</ele><time>2026-04-06T07:09:37.619Z</time></trkpt><trkpt lat="44.0428174" lon="12.164388"><ele>84.0</ele><time>2026-04-06T07:09:38.619Z</time></trkpt><trkpt lat="44.0426859" lon="12.1642055"><ele>84.0</ele><time>2026-04-06T07:09:39.619Z</time></trkpt><trkpt lat="44.0425503" lon="12.1640324"><ele>84.0</ele><time>2026-04-06T07:09:40.62Z</time></trkpt><trkpt lat="44.0424082" lon="12.1638796"><ele>84.0</ele><time>2026-04-06T07:09:41.619Z</time></trkpt><trkpt lat="44.0422657" lon="12.1637311"><ele>84.33333333333333</ele><time>2026-04-06T07:09:42.619Z</time></trkpt><trkpt lat="44.0421186" lon="12.163594"><ele>84.66666666666666</ele><time>2026-04-06T07:09:43.619Z</time></trkpt><trkpt lat="44.0419716" lon="12.1634573"><ele>85.0</ele><time>2026-04-06T07:09:44.619Z</time></trkpt><trkpt lat="44.0418265" lon="12.1633135"><ele>85.33333333333333</ele><time>2026-04-06T07:09:45.619Z</time></trkpt><trkpt lat="44.0416824" lon="12.1631703"><ele>85.66666666666667</ele><time>2026-04-06T07:09:46.619Z</time></trkpt><trkpt lat="44.0415403" lon="12.1630224"><ele>86.0</ele><time>2026-04-06T07:09:47.619Z</time></trkpt><trkpt lat="44.0413968" lon="12.1628773"><ele>86.0</ele><time>2026-04-06T07:09:48.619Z</time></trkpt><trkpt lat="44.041253" lon="12.1627332"><ele>86.0</ele><time>2026-04-06T07:09:49.619Z</time></trkpt><trkpt lat="44.0411094" lon="12.1625867"><ele>86.0</ele><time>2026-04-06T07:09:50.619Z</time></trkpt><trkpt lat="44.0409626" lon="12.1624452"><ele>85.66666666666667</ele><time>2026-04-06T07:09:51.619Z</time></trkpt><trkpt lat="44.040821" lon="12.1622984"><ele>85.33333333333333</ele><time>2026-04-06T07:09:52.619Z</time></trkpt><trkpt lat="44.0406755" lon="12.1621567"><ele>85.0</ele><time>2026-04-06T07:09:53.619Z</time></trkpt><trkpt lat="44.0405293" lon="12.1620155"><ele>85.0</ele><time>2026-04-06T07:09:54.619Z</time></trkpt><trkpt lat="44.0403843" lon="12.1618704"><ele>85.0</ele><time>2026-04-06T07:09:55.62Z</time></trkpt><trkpt lat="44.0402348" lon="12.1617328"><ele>85.0</ele><time>2026-04-06T07:09:56.62Z</time></trkpt><trkpt lat="44.040091" lon="12.1615811"><ele>86.33333333333333</ele><time>2026-04-06T07:09:57.619Z</time></trkpt><trkpt lat="44.0399433" lon="12.1614098"><ele>87.66666666666667</ele><time>2026-04-06T07:09:58.619Z</time></trkpt><trkpt lat="44.0397973" lon="12.1612296"><ele>89.0</ele><time>2026-04-06T07:09:59.619Z</time></trkpt><trkpt lat="44.0396617" lon="12.161043"><ele>89.0</ele><time>2026-04-06T07:10:00.618Z</time></trkpt><trkpt lat="44.0395257" lon="12.1608505"><ele>89.0</ele><time>2026-04-06T07:10:01.619Z</time></trkpt><trkpt lat="44.0393894" lon="12.1606505"><ele>89.0</ele><time>2026-04-06T07:10:02.619Z</time></trkpt><trkpt lat="44.0392554" lon="12.160457"><ele>89.33333333333334</ele><time>2026-04-06T07:10:03.619Z</time></trkpt><trkpt lat="44.0391298" lon="12.1602626"><ele>89.66666666666667</ele><time>2026-04-06T07:10:04.619Z</time></trkpt><trkpt lat="44.0390037" lon="12.1600663"><ele>90.0</ele><time>2026-04-06T07:10:05.619Z</time></trkpt><trkpt lat="44.0388852" lon="12.1598634"><ele>91.66666666666667</ele><time>2026-04-06T07:10:06.618Z</time></trkpt><trkpt lat="44.0387651" lon="12.1596643"><ele>93.33333333333334</ele><time>2026-04-06T07:10:07.619Z</time></trkpt><trkpt lat="44.0386411" lon="12.1594683"><ele>95.0</ele><time>2026-04-06T07:10:08.619Z</time></trkpt><trkpt lat="44.0385158" lon="12.1592798"><ele>95.0</ele><time>2026-04-06T07:10:09.619Z</time></trkpt><trkpt lat="44.0383879" lon="12.1590909"><ele>95.0</ele><time>2026-04-06T07:10:10.619Z</time></trkpt><trkpt lat="44.0382716" lon="12.1589055"><ele>95.0</ele><time>2026-04-06T07:10:11.618Z</time></trkpt><trkpt lat="44.0381606" lon="12.1587089"><ele>94.33333333333334</ele><time>2026-04-06T07:10:12.618Z</time></trkpt><trkpt lat="44.0380649" lon="12.1585168"><ele>93.66666666666667</ele><time>2026-04-06T07:10:13.619Z</time></trkpt><trkpt lat="44.0379813" lon="12.1583261"><ele>93.0</ele><time>2026-04-06T07:10:14.619Z</time></trkpt><trkpt lat="44.0379534" lon="12.1581208"><ele>93.0</ele><time>2026-04-06T07:10:15.619Z</time></trkpt><trkpt lat="44.0379168" lon="12.1579012"><ele>93.0</ele><time>2026-04-06T07:10:16.619Z</time></trkpt><trkpt lat="44.0379113" lon="12.1576631"><ele>93.0</ele><time>2026-04-06T07:10:17.619Z</time></trkpt><trkpt lat="44.037921" lon="12.1574188"><ele>93.75</ele><time>2026-04-06T07:10:18.619Z</time></trkpt><trkpt lat="44.0379302" lon="12.1571936"><ele>94.5</ele><time>2026-04-06T07:10:19.619Z</time></trkpt><trkpt lat="44.0379241" lon="12.156994"><ele>95.25</ele><time>2026-04-06T07:10:20.619Z</time></trkpt><trkpt lat="44.0378972" lon="12.1568044"><ele>96.0</ele><time>2026-04-06T07:10:21.618Z</time></trkpt><trkpt lat="44.037849" lon="12.1566081"><ele>98.75</ele><time>2026-04-06T07:10:22.619Z</time></trkpt><trkpt lat="44.0377841" lon="12.1564187"><ele>101.5</ele><time>2026-04-06T07:10:23.619Z</time></trkpt><trkpt lat="44.0377151" lon="12.1562357"><ele>104.25</ele><time>2026-04-06T07:10:24.619Z</time></trkpt><trkpt lat="44.0376555" lon="12.1560688"><ele>107.0</ele><time>2026-04-06T07:10:25.619Z</time></trkpt><trkpt lat="44.0375959" lon="12.1559222"><ele>107.0</ele><time>2026-04-06T07:10:26.619Z</time></trkpt><trkpt lat="44.0375373" lon="12.1557933"><ele>107.0</ele><time>2026-04-06T07:10:27.619Z</time></trkpt><trkpt lat="44.0374676" lon="12.1556751"><ele>107.0</ele><time>2026-04-06T07:10:28.618Z</time></trkpt><trkpt lat="44.0373928" lon="12.1555615"><ele>107.0</ele><time>2026-04-06T07:10:29.618Z</time></trkpt><trkpt lat="44.0372874" lon="12.1554746"><ele>106.8</ele><time>2026-04-06T07:10:30.619Z</time></trkpt><trkpt lat="44.0371928" lon="12.1554064"><ele>106.6</ele><time>2026-04-06T07:10:31.618Z</time></trkpt><trkpt lat="44.0371087" lon="12.1553511"><ele>106.39999999999999</ele><time>2026-04-06T07:10:32.618Z</time></trkpt><trkpt lat="44.0370412" lon="12.1553242"><ele>106.19999999999999</ele><time>2026-04-06T07:10:33.62Z</time></trkpt><trkpt lat="44.0369327" lon="12.1553308"><ele>106.0</ele><time>2026-04-06T07:10:35.619Z</time></trkpt><trkpt lat="44.0368101" lon="12.1553384"><ele>106.00000000000001</ele><time>2026-04-06T07:10:37.619Z</time></trkpt><trkpt lat="44.0366907" lon="12.1553481"><ele>106.0</ele><time>2026-04-06T07:10:39.619Z</time></trkpt><trkpt lat="44.0366288" lon="12.1553646"><ele>106.0</ele><time>2026-04-06T07:10:40.619Z</time></trkpt><trkpt lat="44.0365669" lon="12.1553863"><ele>106.0</ele><time>2026-04-06T07:10:41.619Z</time></trkpt><trkpt lat="44.0365049" lon="12.155419"><ele>106.00000000000001</ele><time>2026-04-06T07:10:42.619Z</time></trkpt><trkpt lat="44.0364478" lon="12.1554664"><ele>106.0</ele><time>2026-04-06T07:10:43.619Z</time></trkpt><trkpt lat="44.0363761" lon="12.1555254"><ele>104.8</ele><time>2026-04-06T07:10:44.618Z</time></trkpt><trkpt lat="44.0362927" lon="12.1555882"><ele>103.6</ele><time>2026-04-06T07:10:45.619Z</time></trkpt><trkpt lat="44.0361957" lon="12.1556437"><ele>102.4</ele><time>2026-04-06T07:10:46.618Z</time></trkpt><trkpt lat="44.036088" lon="12.1556849"><ele>101.2</ele><time>2026-04-06T07:10:47.619Z</time></trkpt><trkpt lat="44.0359733" lon="12.1557172"><ele>100.0</ele><time>2026-04-06T07:10:48.619Z</time></trkpt><trkpt lat="44.0358505" lon="12.1557245"><ele>99.0</ele><time>2026-04-06T07:10:49.619Z</time></trkpt><trkpt lat="44.0357354" lon="12.1557299"><ele>98.0</ele><time>2026-04-06T07:10:50.62Z</time></trkpt><trkpt lat="44.035629" lon="12.1557258"><ele>97.0</ele><time>2026-04-06T07:10:51.619Z</time></trkpt><trkpt lat="44.0355372" lon="12.1557191"><ele>96.0</ele><time>2026-04-06T07:10:52.619Z</time></trkpt><trkpt lat="44.0354395" lon="12.1557066"><ele>95.0</ele><time>2026-04-06T07:10:53.619Z</time></trkpt><trkpt lat="44.0353438" lon="12.1556904"><ele>95.0</ele><time>2026-04-06T07:10:54.619Z</time></trkpt><trkpt lat="44.0352538" lon="12.1556688"><ele>95.0</ele><time>2026-04-06T07:10:55.619Z</time></trkpt><trkpt lat="44.0351593" lon="12.1556379"><ele>95.0</ele><time>2026-04-06T07:10:56.619Z</time></trkpt><trkpt lat="44.0350673" lon="12.155596"><ele>95.0</ele><time>2026-04-06T07:10:57.619Z</time></trkpt><trkpt lat="44.0349877" lon="12.1555521"><ele>95.0</ele><time>2026-04-06T07:10:58.619Z</time></trkpt><trkpt lat="44.0349072" lon="12.155508"><ele>95.2</ele><time>2026-04-06T07:10:59.62Z</time></trkpt><trkpt lat="44.0348256" lon="12.1554535"><ele>95.4</ele><time>2026-04-06T07:11:00.62Z</time></trkpt><trkpt lat="44.0347435" lon="12.1553883"><ele>95.6</ele><time>2026-04-06T07:11:01.619Z</time></trkpt><trkpt lat="44.0346609" lon="12.155319"><ele>95.8</ele><time>2026-04-06T07:11:02.619Z</time></trkpt><trkpt lat="44.0345781" lon="12.1552479"><ele>96.0</ele><time>2026-04-06T07:11:03.619Z</time></trkpt><trkpt lat="44.0344927" lon="12.1551864"><ele>96.0</ele><time>2026-04-06T07:11:04.619Z</time></trkpt><trkpt lat="44.0344114" lon="12.1551289"><ele>96.0</ele><time>2026-04-06T07:11:05.618Z</time></trkpt><trkpt lat="44.0343393" lon="12.1550747"><ele>96.0</ele><time>2026-04-06T07:11:06.619Z</time></trkpt><trkpt lat="44.0342712" lon="12.1550239"><ele>96.0</ele><time>2026-04-06T07:11:07.619Z</time></trkpt><trkpt lat="44.0341947" lon="12.1549707"><ele>96.0</ele><time>2026-04-06T07:11:08.619Z</time></trkpt><trkpt lat="44.0341116" lon="12.1549102"><ele>96.0</ele><time>2026-04-06T07:11:09.619Z</time></trkpt><trkpt lat="44.0340247" lon="12.1548422"><ele>100.16666666666667</ele><time>2026-04-06T07:11:10.619Z</time></trkpt><trkpt lat="44.0339454" lon="12.1547701"><ele>104.33333333333334</ele><time>2026-04-06T07:11:11.619Z</time></trkpt><trkpt lat="44.0338851" lon="12.1546933"><ele>108.5</ele><time>2026-04-06T07:11:12.619Z</time></trkpt><trkpt lat="44.0338418" lon="12.1546034"><ele>112.66666666666667</ele><time>2026-04-06T07:11:13.619Z</time></trkpt><trkpt lat="44.0338075" lon="12.154497"><ele>116.83333333333334</ele><time>2026-04-06T07:11:14.618Z</time></trkpt><trkpt lat="44.0337863" lon="12.154375"><ele>121.0</ele><time>2026-04-06T07:11:15.62Z</time></trkpt><trkpt lat="44.0337669" lon="12.1542384"><ele>121.00000000000001</ele><time>2026-04-06T07:11:16.619Z</time></trkpt><trkpt lat="44.0337509" lon="12.1540927"><ele>121.0</ele><time>2026-04-06T07:11:17.618Z</time></trkpt><trkpt lat="44.0337391" lon="12.1539602"><ele>121.0</ele><time>2026-04-06T07:11:18.619Z</time></trkpt><trkpt lat="44.0337343" lon="12.1538326"><ele>121.0</ele><time>2026-04-06T07:11:19.619Z</time></trkpt><trkpt lat="44.0337357" lon="12.1537211"><ele>121.00000000000001</ele><time>2026-04-06T07:11:20.619Z</time></trkpt><trkpt lat="44.0337181" lon="12.1536327"><ele>121.0</ele><time>2026-04-06T07:11:21.619Z</time></trkpt><trkpt lat="44.0336931" lon="12.153538"><ele>120.16666666666667</ele><time>2026-04-06T07:11:22.618Z</time></trkpt><trkpt lat="44.0336383" lon="12.1534521"><ele>119.33333333333334</ele><time>2026-04-06T07:11:23.619Z</time></trkpt><trkpt lat="44.0335883" lon="12.1533723"><ele>118.5</ele><time>2026-04-06T07:11:24.618Z</time></trkpt><trkpt lat="44.03353" lon="12.1533019"><ele>117.66666666666666</ele><time>2026-04-06T07:11:25.619Z</time></trkpt><trkpt lat="44.0334732" lon="12.1532484"><ele>116.83333333333333</ele><time>2026-04-06T07:11:26.618Z</time></trkpt><trkpt lat="44.0333505" lon="12.1532038"><ele>116.0</ele><time>2026-04-06T07:11:28.619Z</time></trkpt><trkpt lat="44.0332682" lon="12.1531586"><ele>114.8</ele><time>2026-04-06T07:11:29.619Z</time></trkpt><trkpt lat="44.033178" lon="12.1531125"><ele>113.6</ele><time>2026-04-06T07:11:30.618Z</time></trkpt><trkpt lat="44.0330842" lon="12.1530742"><ele>112.4</ele><time>2026-04-06T07:11:31.619Z</time></trkpt><trkpt lat="44.0329833" lon="12.1530389"><ele>111.2</ele><time>2026-04-06T07:11:32.619Z</time></trkpt><trkpt lat="44.0328719" lon="12.153023"><ele>110.0</ele><time>2026-04-06T07:11:33.619Z</time></trkpt><trkpt lat="44.032772" lon="12.1530213"><ele>110.0</ele><time>2026-04-06T07:11:34.618Z</time></trkpt><trkpt lat="44.0326742" lon="12.1530252"><ele>110.0</ele><time>2026-04-06T07:11:35.619Z</time></trkpt><trkpt lat="44.032573" lon="12.1530363"><ele>110.0</ele><time>2026-04-06T07:11:36.619Z</time></trkpt><trkpt lat="44.0324632" lon="12.1530519"><ele>110.0</ele><time>2026-04-06T07:11:37.619Z</time></trkpt><trkpt lat="44.0323609" lon="12.1530671"><ele>110.0</ele><time>2026-04-06T07:11:38.619Z</time></trkpt><trkpt lat="44.032282" lon="12.1530907"><ele>110.83333333333333</ele><time>2026-04-06T07:11:39.618Z</time></trkpt><trkpt lat="44.0321982" lon="12.1531194"><ele>111.66666666666666</ele><time>2026-04-06T07:11:40.619Z</time></trkpt><trkpt lat="44.032118" lon="12.1531302"><ele>112.5</ele><time>2026-04-06T07:11:41.619Z</time></trkpt><trkpt lat="44.0320343" lon="12.1531162"><ele>113.33333333333334</ele><time>2026-04-06T07:11:42.619Z</time></trkpt><trkpt lat="44.0319459" lon="12.1530843"><ele>114.16666666666667</ele><time>2026-04-06T07:11:43.618Z</time></trkpt><trkpt lat="44.0318776" lon="12.1530518"><ele>115.0</ele><time>2026-04-06T07:11:44.619Z</time></trkpt><trkpt lat="44.0318051" lon="12.1530039"><ele>115.00000000000001</ele><time>2026-04-06T07:11:46.619Z</time></trkpt><trkpt lat="44.0317528" lon="12.1530569"><ele>115.0</ele><time>2026-04-06T07:11:50.619Z</time></trkpt><trkpt lat="44.0318435" lon="12.1530882"><ele>115.0</ele><time>2026-04-06T07:11:53.619Z</time></trkpt><trkpt lat="44.0319672" lon="12.1531191"><ele>115.0</ele><time>2026-04-06T07:11:55.619Z</time></trkpt><trkpt lat="44.03203" lon="12.1531422"><ele>115.00000000000001</ele><time>2026-04-06T07:11:56.619Z</time></trkpt><trkpt lat="44.0321035" lon="12.1531506"><ele>115.0</ele><time>2026-04-06T07:11:57.619Z</time></trkpt><trkpt lat="44.0322329" lon="12.1531147"><ele>115.00000000000001</ele><time>2026-04-06T07:11:59.619Z</time></trkpt><trkpt lat="44.0323162" lon="12.1530953"><ele>115.0</ele><time>2026-04-06T07:12:00.619Z</time></trkpt><trkpt lat="44.0323993" lon="12.1530838"><ele>115.0</ele><time>2026-04-06T07:12:01.618Z</time></trkpt><trkpt lat="44.0324901" lon="12.1530739"><ele>115.0</ele><time>2026-04-06T07:12:02.618Z</time></trkpt><trkpt lat="44.0325782" lon="12.1530584"><ele>115.00000000000001</ele><time>2026-04-06T07:12:03.619Z</time></trkpt><trkpt lat="44.0326611" lon="12.1530482"><ele>115.0</ele><time>2026-04-06T07:12:04.618Z</time></trkpt><trkpt lat="44.0327386" lon="12.1530411"><ele>114.0</ele><time>2026-04-06T07:12:05.619Z</time></trkpt><trkpt lat="44.032822" lon="12.1530406"><ele>113.0</ele><time>2026-04-06T07:12:06.619Z</time></trkpt><trkpt lat="44.0329144" lon="12.1530497"><ele>112.0</ele><time>2026-04-06T07:12:07.618Z</time></trkpt><trkpt lat="44.0330059" lon="12.1530753"><ele>111.0</ele><time>2026-04-06T07:12:08.619Z</time></trkpt><trkpt lat="44.0330951" lon="12.1531135"><ele>110.0</ele><time>2026-04-06T07:12:09.618Z</time></trkpt><trkpt lat="44.0331902" lon="12.1531581"><ele>109.99999999999999</ele><time>2026-04-06T07:12:10.618Z</time></trkpt><trkpt lat="44.033276" lon="12.1532006"><ele>110.0</ele><time>2026-04-06T07:12:11.619Z</time></trkpt><trkpt lat="44.0333536" lon="12.1532313"><ele>110.0</ele><time>2026-04-06T07:12:12.619Z</time></trkpt><trkpt lat="44.0334215" lon="12.1532543"><ele>110.0</ele><time>2026-04-06T07:12:13.619Z</time></trkpt><trkpt lat="44.033489" lon="12.1532814"><ele>109.99999999999999</ele><time>2026-04-06T07:12:14.619Z</time></trkpt><trkpt lat="44.0335498" lon="12.1533432"><ele>110.0</ele><time>2026-04-06T07:12:15.619Z</time></trkpt><trkpt lat="44.0336057" lon="12.1534101"><ele>110.99999999999999</ele><time>2026-04-06T07:12:16.619Z</time></trkpt><trkpt lat="44.033664" lon="12.1534824"><ele>112.0</ele><time>2026-04-06T07:12:17.619Z</time></trkpt><trkpt lat="44.0337054" lon="12.1535618"><ele>113.0</ele><time>2026-04-06T07:12:18.619Z</time></trkpt><trkpt lat="44.0337506" lon="12.1537227"><ele>114.0</ele><time>2026-04-06T07:12:20.618Z</time></trkpt><trkpt lat="44.0337381" lon="12.1538171"><ele>114.99999999999999</ele><time>2026-04-06T07:12:21.619Z</time></trkpt><trkpt lat="44.0337391" lon="12.1539255"><ele>116.0</ele><time>2026-04-06T07:12:22.618Z</time></trkpt><trkpt lat="44.033748" lon="12.1540475"><ele>117.0</ele><time>2026-04-06T07:12:23.619Z</time></trkpt><trkpt lat="44.0337659" lon="12.1541843"><ele>118.0</ele><time>2026-04-06T07:12:24.618Z</time></trkpt><trkpt lat="44.0337869" lon="12.1543263"><ele>119.0</ele><time>2026-04-06T07:12:25.619Z</time></trkpt><trkpt lat="44.0338111" lon="12.154475"><ele>120.0</ele><time>2026-04-06T07:12:26.62Z</time></trkpt><trkpt lat="44.0338637" lon="12.154615"><ele>121.0</ele><time>2026-04-06T07:12:27.619Z</time></trkpt><trkpt lat="44.0339268" lon="12.1547347"><ele>121.00000000000001</ele><time>2026-04-06T07:12:28.619Z</time></trkpt><trkpt lat="44.0339992" lon="12.1548166"><ele>121.0</ele><time>2026-04-06T07:12:29.618Z</time></trkpt><trkpt lat="44.0340718" lon="12.1548794"><ele>121.0</ele><time>2026-04-06T07:12:30.619Z</time></trkpt><trkpt lat="44.0341326" lon="12.1549249"><ele>121.0</ele><time>2026-04-06T07:12:31.618Z</time></trkpt><trkpt lat="44.0342287" lon="12.1549977"><ele>121.00000000000001</ele><time>2026-04-06T07:12:33.618Z</time></trkpt><trkpt lat="44.034301" lon="12.1550593"><ele>121.0</ele><time>2026-04-06T07:12:36.619Z</time></trkpt><trkpt lat="44.0343558" lon="12.1551062"><ele>116.0</ele><time>2026-04-06T07:12:40.619Z</time></trkpt><trkpt lat="44.0344824" lon="12.1551826"><ele>111.0</ele><time>2026-04-06T07:13:06.619Z</time></trkpt><trkpt lat="44.0345424" lon="12.1552292"><ele>106.0</ele><time>2026-04-06T07:13:07.619Z</time></trkpt><trkpt lat="44.0346209" lon="12.1552939"><ele>101.0</ele><time>2026-04-06T07:13:08.619Z</time></trkpt><trkpt lat="44.0347046" lon="12.1553621"><ele>96.0</ele><time>2026-04-06T07:13:09.618Z</time></trkpt><trkpt lat="44.0347877" lon="12.1554413"><ele>96.0</ele><time>2026-04-06T07:13:10.619Z</time></trkpt><trkpt lat="44.0348793" lon="12.1555123"><ele>96.0</ele><time>2026-04-06T07:13:11.619Z</time></trkpt><trkpt lat="44.0349958" lon="12.1555809"><ele>96.0</ele><time>2026-04-06T07:13:12.619Z</time></trkpt><trkpt lat="44.0351098" lon="12.1556412"><ele>96.0</ele><time>2026-04-06T07:13:13.62Z</time></trkpt><trkpt lat="44.0352288" lon="12.1556898"><ele>95.75</ele><time>2026-04-06T07:13:14.619Z</time></trkpt><trkpt lat="44.0353553" lon="12.1557166"><ele>95.5</ele><time>2026-04-06T07:13:15.618Z</time></trkpt><trkpt lat="44.0354821" lon="12.1557338"><ele>95.25</ele><time>2026-04-06T07:13:16.619Z</time></trkpt><trkpt lat="44.0356116" lon="12.1557513"><ele>95.0</ele><time>2026-04-06T07:13:17.618Z</time></trkpt><trkpt lat="44.0357391" lon="12.1557587"><ele>94.75</ele><time>2026-04-06T07:13:18.618Z</time></trkpt><trkpt lat="44.0358594" lon="12.1557672"><ele>94.5</ele><time>2026-04-06T07:13:19.619Z</time></trkpt><trkpt lat="44.0359702" lon="12.1557483"><ele>94.25</ele><time>2026-04-06T07:13:20.619Z</time></trkpt><trkpt lat="44.0360851" lon="12.1557148"><ele>94.0</ele><time>2026-04-06T07:13:21.618Z</time></trkpt><trkpt lat="44.0361959" lon="12.1556694"><ele>95.2</ele><time>2026-04-06T07:13:22.618Z</time></trkpt><trkpt lat="44.0363032" lon="12.1556066"><ele>96.4</ele><time>2026-04-06T07:13:23.619Z</time></trkpt><trkpt lat="44.0363993" lon="12.1555388"><ele>97.6</ele><time>2026-04-06T07:13:24.619Z</time></trkpt><trkpt lat="44.0364901" lon="12.1554813"><ele>98.8</ele><time>2026-04-06T07:13:25.619Z</time></trkpt><trkpt lat="44.0365729" lon="12.1554294"><ele>100.0</ele><time>2026-04-06T07:13:26.619Z</time></trkpt><trkpt lat="44.0366534" lon="12.1553924"><ele>101.00000000000001</ele><time>2026-04-06T07:13:27.619Z</time></trkpt><trkpt lat="44.0367405" lon="12.1553715"><ele>102.0</ele><time>2026-04-06T07:13:28.619Z</time></trkpt><trkpt lat="44.0368323" lon="12.15537"><ele>103.0</ele><time>2026-04-06T07:13:29.618Z</time></trkpt><trkpt lat="44.0369107" lon="12.1553804"><ele>104.0</ele><time>2026-04-06T07:13:30.619Z</time></trkpt><trkpt lat="44.0369819" lon="12.1553867"><ele>105.00000000000001</ele><time>2026-04-06T07:13:32.619Z</time></trkpt><trkpt lat="44.0370178" lon="12.1553092"><ele>106.0</ele><time>2026-04-06T07:13:37.619Z</time></trkpt><trkpt lat="44.0369341" lon="12.1551816"><ele>106.0</ele><time>2026-04-06T07:13:39.619Z</time></trkpt><trkpt lat="44.0368653" lon="12.1551125"><ele>106.0</ele><time>2026-04-06T07:13:40.619Z</time></trkpt><trkpt lat="44.0367853" lon="12.1550322"><ele>106.0</ele><time>2026-04-06T07:13:41.619Z</time></trkpt><trkpt lat="44.0366961" lon="12.154942"><ele>106.0</ele><time>2026-04-06T07:13:42.619Z</time></trkpt><trkpt lat="44.0366067" lon="12.1548363"><ele>106.0</ele><time>2026-04-06T07:13:43.619Z</time></trkpt><trkpt lat="44.0364999" lon="12.1547196"><ele>106.75</ele><time>2026-04-06T07:13:44.62Z</time></trkpt><trkpt lat="44.0363927" lon="12.1545953"><ele>107.5</ele><time>2026-04-06T07:13:45.619Z</time></trkpt><trkpt lat="44.0362811" lon="12.1544716"><ele>108.25</ele><time>2026-04-06T07:13:46.618Z</time></trkpt><trkpt lat="44.0361632" lon="12.1543381"><ele>109.0</ele><time>2026-04-06T07:13:47.619Z</time></trkpt><trkpt lat="44.036045" lon="12.1542037"><ele>109.0</ele><time>2026-04-06T07:13:48.618Z</time></trkpt><trkpt lat="44.0359237" lon="12.1540619"><ele>109.0</ele><time>2026-04-06T07:13:49.619Z</time></trkpt><trkpt lat="44.0358035" lon="12.1539148"><ele>109.0</ele><time>2026-04-06T07:13:50.62Z</time></trkpt><trkpt lat="44.0356842" lon="12.1537694"><ele>106.66666666666667</ele><time>2026-04-06T07:13:51.619Z</time></trkpt><trkpt lat="44.0355739" lon="12.15361"><ele>104.33333333333334</ele><time>2026-04-06T07:13:52.619Z</time></trkpt><trkpt lat="44.0354752" lon="12.1534371"><ele>102.0</ele><time>2026-04-06T07:13:53.62Z</time></trkpt><trkpt lat="44.0354084" lon="12.1532546"><ele>102.66666666666666</ele><time>2026-04-06T07:13:54.619Z</time></trkpt><trkpt lat="44.0353625" lon="12.153049"><ele>103.33333333333333</ele><time>2026-04-06T07:13:55.619Z</time></trkpt><trkpt lat="44.0353426" lon="12.1528289"><ele>104.0</ele><time>2026-04-06T07:13:56.618Z</time></trkpt><trkpt lat="44.0353411" lon="12.1525916"><ele>107.66666666666666</ele><time>2026-04-06T07:13:57.619Z</time></trkpt><trkpt lat="44.0353444" lon="12.1523398"><ele>111.33333333333334</ele><time>2026-04-06T07:13:58.618Z</time></trkpt><trkpt lat="44.0353439" lon="12.1520829"><ele>115.0</ele><time>2026-04-06T07:13:59.618Z</time></trkpt><trkpt lat="44.0353433" lon="12.1518428"><ele>115.0</ele><time>2026-04-06T07:14:00.618Z</time></trkpt><trkpt lat="44.0353263" lon="12.1516195"><ele>115.0</ele><time>2026-04-06T07:14:01.619Z</time></trkpt><trkpt lat="44.0352889" lon="12.1514216"><ele>115.0</ele><time>2026-04-06T07:14:02.619Z</time></trkpt><trkpt lat="44.0352341" lon="12.1512217"><ele>118.33333333333334</ele><time>2026-04-06T07:14:03.618Z</time></trkpt><trkpt lat="44.0351599" lon="12.1510257"><ele>121.66666666666666</ele><time>2026-04-06T07:14:04.619Z</time></trkpt><trkpt lat="44.035069" lon="12.1508363"><ele>125.0</ele><time>2026-04-06T07:14:05.619Z</time></trkpt><trkpt lat="44.034975" lon="12.1506627"><ele>124.5</ele><time>2026-04-06T07:14:06.619Z</time></trkpt><trkpt lat="44.0348734" lon="12.1505181"><ele>124.0</ele><time>2026-04-06T07:14:07.619Z</time></trkpt><trkpt lat="44.0347711" lon="12.1503758"><ele>123.5</ele><time>2026-04-06T07:14:08.619Z</time></trkpt><trkpt lat="44.0346703" lon="12.1502398"><ele>123.0</ele><time>2026-04-06T07:14:09.618Z</time></trkpt><trkpt lat="44.0345584" lon="12.1501032"><ele>123.0</ele><time>2026-04-06T07:14:10.619Z</time></trkpt><trkpt lat="44.0344442" lon="12.1499838"><ele>123.0</ele><time>2026-04-06T07:14:11.619Z</time></trkpt><trkpt lat="44.0343267" lon="12.1498758"><ele>123.0</ele><time>2026-04-06T07:14:12.619Z</time></trkpt><trkpt lat="44.034217" lon="12.1497802"><ele>123.0</ele><time>2026-04-06T07:14:13.619Z</time></trkpt><trkpt lat="44.0341081" lon="12.1496951"><ele>124.5</ele><time>2026-04-06T07:14:14.618Z</time></trkpt><trkpt lat="44.0339991" lon="12.1496101"><ele>126.0</ele><time>2026-04-06T07:14:15.62Z</time></trkpt><trkpt lat="44.0338895" lon="12.1495243"><ele>127.5</ele><time>2026-04-06T07:14:16.619Z</time></trkpt><trkpt lat="44.0337907" lon="12.1494438"><ele>129.0</ele><time>2026-04-06T07:14:17.619Z</time></trkpt><trkpt lat="44.0336943" lon="12.1493707"><ele>129.0</ele><time>2026-04-06T07:14:18.619Z</time></trkpt><trkpt lat="44.0335769" lon="12.1493516"><ele>129.0</ele><time>2026-04-06T07:14:19.619Z</time></trkpt><trkpt lat="44.0334607" lon="12.1493548"><ele>129.0</ele><time>2026-04-06T07:14:20.619Z</time></trkpt><trkpt lat="44.0333419" lon="12.1493778"><ele>129.0</ele><time>2026-04-06T07:14:21.62Z</time></trkpt><trkpt lat="44.0332296" lon="12.1494026"><ele>127.0</ele><time>2026-04-06T07:14:22.619Z</time></trkpt><trkpt lat="44.0331195" lon="12.1494226"><ele>125.0</ele><time>2026-04-06T07:14:23.619Z</time></trkpt><trkpt lat="44.03302" lon="12.1494264"><ele>123.0</ele><time>2026-04-06T07:14:24.619Z</time></trkpt><trkpt lat="44.0329178" lon="12.1493992"><ele>121.0</ele><time>2026-04-06T07:14:25.619Z</time></trkpt><trkpt lat="44.0328141" lon="12.1493554"><ele>119.0</ele><time>2026-04-06T07:14:26.619Z</time></trkpt><trkpt lat="44.0327127" lon="12.1492816"><ele>119.0</ele><time>2026-04-06T07:14:27.619Z</time></trkpt><trkpt lat="44.032616" lon="12.1491907"><ele>119.0</ele><time>2026-04-06T07:14:28.619Z</time></trkpt><trkpt lat="44.0325387" lon="12.1490638"><ele>119.0</ele><time>2026-04-06T07:14:29.619Z</time></trkpt><trkpt lat="44.0324562" lon="12.1489337"><ele>119.0</ele><time>2026-04-06T07:14:30.618Z</time></trkpt><trkpt lat="44.0323754" lon="12.1487969"><ele>119.75</ele><time>2026-04-06T07:14:31.619Z</time></trkpt><trkpt lat="44.0323051" lon="12.1486524"><ele>120.5</ele><time>2026-04-06T07:14:32.618Z</time></trkpt><trkpt lat="44.0322368" lon="12.1485098"><ele>121.25</ele><time>2026-04-06T07:14:33.619Z</time></trkpt><trkpt lat="44.0321832" lon="12.1483605"><ele>122.0</ele><time>2026-04-06T07:14:34.619Z</time></trkpt><trkpt lat="44.0321307" lon="12.1482064"><ele>122.0</ele><time>2026-04-06T07:14:35.619Z</time></trkpt><trkpt lat="44.032081" lon="12.1480522"><ele>122.0</ele><time>2026-04-06T07:14:36.619Z</time></trkpt><trkpt lat="44.0320304" lon="12.1478973"><ele>122.0</ele><time>2026-04-06T07:14:37.619Z</time></trkpt><trkpt lat="44.0319722" lon="12.1477496"><ele>122.0</ele><time>2026-04-06T07:14:38.618Z</time></trkpt><trkpt lat="44.0318963" lon="12.1476172"><ele>122.0</ele><time>2026-04-06T07:14:39.618Z</time></trkpt><trkpt lat="44.0318115" lon="12.1475051"><ele>121.99999999999999</ele><time>2026-04-06T07:14:40.619Z</time></trkpt><trkpt lat="44.0317136" lon="12.1474174"><ele>121.99999999999999</ele><time>2026-04-06T07:14:41.619Z</time></trkpt><trkpt lat="44.0316233" lon="12.1473402"><ele>122.0</ele><time>2026-04-06T07:14:42.619Z</time></trkpt><trkpt lat="44.0315476" lon="12.1472707"><ele>122.0</ele><time>2026-04-06T07:14:43.619Z</time></trkpt><trkpt lat="44.0314873" lon="12.1472137"><ele>122.0</ele><time>2026-04-06T07:14:44.619Z</time></trkpt><trkpt lat="44.0314096" lon="12.1471272"><ele>121.99999999999999</ele><time>2026-04-06T07:14:46.619Z</time></trkpt><trkpt lat="44.0314228" lon="12.1472207"><ele>121.99999999999999</ele><time>2026-04-06T07:14:51.619Z</time></trkpt><trkpt lat="44.0315191" lon="12.1473025"><ele>122.0</ele><time>2026-04-06T07:14:53.619Z</time></trkpt><trkpt lat="44.0315802" lon="12.1473655"><ele>122.0</ele><time>2026-04-06T07:14:54.618Z</time></trkpt><trkpt lat="44.0316619" lon="12.1474312"><ele>122.0</ele><time>2026-04-06T07:14:55.619Z</time></trkpt><trkpt lat="44.0317546" lon="12.1475124"><ele>122.0</ele><time>2026-04-06T07:14:56.619Z</time></trkpt><trkpt lat="44.0318602" lon="12.1476313"><ele>122.0</ele><time>2026-04-06T07:14:57.619Z</time></trkpt><trkpt lat="44.0319459" lon="12.1477695"><ele>122.0</ele><time>2026-04-06T07:14:58.619Z</time></trkpt><trkpt lat="44.0320165" lon="12.1479409"><ele>122.0</ele><time>2026-04-06T07:14:59.618Z</time></trkpt><trkpt lat="44.0320761" lon="12.1481378"><ele>122.0</ele><time>2026-04-06T07:15:00.619Z</time></trkpt><trkpt lat="44.0321398" lon="12.1483498"><ele>122.0</ele><time>2026-04-06T07:15:01.619Z</time></trkpt><trkpt lat="44.0322183" lon="12.1485555"><ele>121.0</ele><time>2026-04-06T07:15:02.619Z</time></trkpt><trkpt lat="44.0323055" lon="12.1487536"><ele>120.0</ele><time>2026-04-06T07:15:03.619Z</time></trkpt><trkpt lat="44.0324166" lon="12.1489365"><ele>119.0</ele><time>2026-04-06T07:15:04.619Z</time></trkpt><trkpt lat="44.0325272" lon="12.1491158"><ele>119.0</ele><time>2026-04-06T07:15:05.619Z</time></trkpt><trkpt lat="44.0326548" lon="12.1492725"><ele>119.0</ele><time>2026-04-06T07:15:06.619Z</time></trkpt><trkpt lat="44.0327803" lon="12.1493976"><ele>119.0</ele><time>2026-04-06T07:15:07.618Z</time></trkpt><trkpt lat="44.0329106" lon="12.1494654"><ele>119.0</ele><time>2026-04-06T07:15:08.618Z</time></trkpt><trkpt lat="44.0330421" lon="12.149485"><ele>119.0</ele><time>2026-04-06T07:15:09.619Z</time></trkpt><trkpt lat="44.0331815" lon="12.149466"><ele>119.0</ele><time>2026-04-06T07:15:10.618Z</time></trkpt><trkpt lat="44.0333242" lon="12.149431"><ele>119.0</ele><time>2026-04-06T07:15:11.619Z</time></trkpt><trkpt lat="44.0334661" lon="12.1494046"><ele>121.5</ele><time>2026-04-06T07:15:12.619Z</time></trkpt><trkpt lat="44.0335887" lon="12.14942"><ele>124.0</ele><time>2026-04-06T07:15:13.619Z</time></trkpt><trkpt lat="44.0337125" lon="12.1494699"><ele>126.5</ele><time>2026-04-06T07:15:14.62Z</time></trkpt><trkpt lat="44.0338413" lon="12.1495485"><ele>129.0</ele><time>2026-04-06T07:15:15.62Z</time></trkpt><trkpt lat="44.0339722" lon="12.1496439"><ele>129.0</ele><time>2026-04-06T07:15:16.619Z</time></trkpt><trkpt lat="44.0341035" lon="12.1497522"><ele>129.0</ele><time>2026-04-06T07:15:17.618Z</time></trkpt><trkpt lat="44.0342416" lon="12.1498688"><ele>129.0</ele><time>2026-04-06T07:15:18.619Z</time></trkpt><trkpt lat="44.0343847" lon="12.1499905"><ele>127.0</ele><time>2026-04-06T07:15:19.619Z</time></trkpt><trkpt lat="44.0345198" lon="12.1501347"><ele>125.0</ele><time>2026-04-06T07:15:20.619Z</time></trkpt><trkpt lat="44.0346547" lon="12.1502983"><ele>123.0</ele><time>2026-04-06T07:15:21.619Z</time></trkpt><trkpt lat="44.0347832" lon="12.1504672"><ele>123.0</ele><time>2026-04-06T07:15:22.619Z</time></trkpt><trkpt lat="44.0348948" lon="12.1506281"><ele>123.0</ele><time>2026-04-06T07:15:23.619Z</time></trkpt><trkpt lat="44.0350036" lon="12.1507953"><ele>123.0</ele><time>2026-04-06T07:15:24.619Z</time></trkpt><trkpt lat="44.035099" lon="12.1509735"><ele>123.5</ele><time>2026-04-06T07:15:25.619Z</time></trkpt><trkpt lat="44.0351781" lon="12.1511482"><ele>124.0</ele><time>2026-04-06T07:15:26.619Z</time></trkpt><trkpt lat="44.0352383" lon="12.151322"><ele>124.5</ele><time>2026-04-06T07:15:27.619Z</time></trkpt><trkpt lat="44.0352883" lon="12.1515096"><ele>125.0</ele><time>2026-04-06T07:15:28.618Z</time></trkpt><trkpt lat="44.0352986" lon="12.151719"><ele>121.66666666666666</ele><time>2026-04-06T07:15:29.619Z</time></trkpt><trkpt lat="44.0353142" lon="12.1519388"><ele>118.33333333333334</ele><time>2026-04-06T07:15:30.618Z</time></trkpt><trkpt lat="44.0353147" lon="12.1521768"><ele>115.0</ele><time>2026-04-06T07:15:31.619Z</time></trkpt><trkpt lat="44.0353173" lon="12.1524241"><ele>111.33333333333334</ele><time>2026-04-06T07:15:32.619Z</time></trkpt><trkpt lat="44.03532" lon="12.1526699"><ele>107.66666666666666</ele><time>2026-04-06T07:15:33.618Z</time></trkpt><trkpt lat="44.0353273" lon="12.1528951"><ele>104.0</ele><time>2026-04-06T07:15:34.619Z</time></trkpt><trkpt lat="44.035348" lon="12.1531034"><ele>103.33333333333333</ele><time>2026-04-06T07:15:35.619Z</time></trkpt><trkpt lat="44.0353987" lon="12.1532973"><ele>102.66666666666666</ele><time>2026-04-06T07:15:36.62Z</time></trkpt><trkpt lat="44.0354632" lon="12.1534794"><ele>102.0</ele><time>2026-04-06T07:15:37.619Z</time></trkpt><trkpt lat="44.0355784" lon="12.1536577"><ele>102.0</ele><time>2026-04-06T07:15:38.619Z</time></trkpt><trkpt lat="44.0357026" lon="12.1538307"><ele>102.0</ele><time>2026-04-06T07:15:39.618Z</time></trkpt><trkpt lat="44.0358426" lon="12.1540077"><ele>102.0</ele><time>2026-04-06T07:15:40.619Z</time></trkpt><trkpt lat="44.0359932" lon="12.1541853"><ele>104.33333333333334</ele><time>2026-04-06T07:15:41.619Z</time></trkpt><trkpt lat="44.0361436" lon="12.1543598"><ele>106.66666666666667</ele><time>2026-04-06T07:15:42.619Z</time></trkpt><trkpt lat="44.036298" lon="12.1545342"><ele>109.0</ele><time>2026-04-06T07:15:43.619Z</time></trkpt><trkpt lat="44.0364519" lon="12.1547146"><ele>108.0</ele><time>2026-04-06T07:15:44.619Z</time></trkpt><trkpt lat="44.0366072" lon="12.1548977"><ele>107.0</ele><time>2026-04-06T07:15:45.619Z</time></trkpt><trkpt lat="44.0367626" lon="12.1550725"><ele>106.0</ele><time>2026-04-06T07:15:46.619Z</time></trkpt><trkpt lat="44.0369181" lon="12.1552248"><ele>106.0</ele><time>2026-04-06T07:15:47.619Z</time></trkpt><trkpt lat="44.0370713" lon="12.1553518"><ele>106.0</ele><time>2026-04-06T07:15:48.62Z</time></trkpt><trkpt lat="44.0372171" lon="12.1554721"><ele>106.0</ele><time>2026-04-06T07:15:49.619Z</time></trkpt><trkpt lat="44.0373473" lon="12.1556005"><ele>106.33333333333334</ele><time>2026-04-06T07:15:50.619Z</time></trkpt><trkpt lat="44.0374644" lon="12.1557569"><ele>106.66666666666666</ele><time>2026-04-06T07:15:51.618Z</time></trkpt><trkpt lat="44.0375675" lon="12.1559428"><ele>107.0</ele><time>2026-04-06T07:15:52.618Z</time></trkpt><trkpt lat="44.0376576" lon="12.1561618"><ele>107.0</ele><time>2026-04-06T07:15:53.618Z</time></trkpt><trkpt lat="44.0377394" lon="12.1563954"><ele>107.0</ele><time>2026-04-06T07:15:54.619Z</time></trkpt><trkpt lat="44.0378151" lon="12.1566138"><ele>107.0</ele><time>2026-04-06T07:15:55.618Z</time></trkpt><trkpt lat="44.0378741" lon="12.1568288"><ele>103.33333333333333</ele><time>2026-04-06T07:15:56.619Z</time></trkpt><trkpt lat="44.0379053" lon="12.1570468"><ele>99.66666666666666</ele><time>2026-04-06T07:15:57.619Z</time></trkpt><trkpt lat="44.0379105" lon="12.1572763"><ele>96.0</ele><time>2026-04-06T07:15:58.619Z</time></trkpt><trkpt lat="44.0379027" lon="12.1575155"><ele>95.0</ele><time>2026-04-06T07:15:59.619Z</time></trkpt><trkpt lat="44.0379001" lon="12.1577578"><ele>94.0</ele><time>2026-04-06T07:16:00.619Z</time></trkpt><trkpt lat="44.0379078" lon="12.1579845"><ele>93.0</ele><time>2026-04-06T07:16:01.619Z</time></trkpt><trkpt lat="44.0379375" lon="12.1582087"><ele>92.66666666666667</ele><time>2026-04-06T07:16:02.619Z</time></trkpt><trkpt lat="44.0379995" lon="12.1584246"><ele>92.33333333333334</ele><time>2026-04-06T07:16:03.619Z</time></trkpt><trkpt lat="44.0380874" lon="12.1586364"><ele>92.0</ele><time>2026-04-06T07:16:04.619Z</time></trkpt><trkpt lat="44.0381981" lon="12.1588465"><ele>93.0</ele><time>2026-04-06T07:16:05.619Z</time></trkpt><trkpt lat="44.0383245" lon="12.159058"><ele>94.0</ele><time>2026-04-06T07:16:06.618Z</time></trkpt><trkpt lat="44.0384637" lon="12.1592744"><ele>95.0</ele><time>2026-04-06T07:16:07.619Z</time></trkpt><trkpt lat="44.0386121" lon="12.1594938"><ele>95.0</ele><time>2026-04-06T07:16:08.619Z</time></trkpt><trkpt lat="44.0387609" lon="12.159714"><ele>95.0</ele><time>2026-04-06T07:16:09.619Z</time></trkpt><trkpt lat="44.038908" lon="12.1599379"><ele>95.0</ele><time>2026-04-06T07:16:10.617Z</time></trkpt><trkpt lat="44.0390532" lon="12.1601628"><ele>95.33333333333334</ele><time>2026-04-06T07:16:11.62Z</time></trkpt><trkpt lat="44.0391914" lon="12.1603793"><ele>95.66666666666667</ele><time>2026-04-06T07:16:12.619Z</time></trkpt><trkpt lat="44.039323" lon="12.1605872"><ele>96.0</ele><time>2026-04-06T07:16:13.62Z</time></trkpt><trkpt lat="44.039454" lon="12.1607917"><ele>93.66666666666667</ele><time>2026-04-06T07:16:14.619Z</time></trkpt><trkpt lat="44.0395884" lon="12.1609972"><ele>91.33333333333334</ele><time>2026-04-06T07:16:15.62Z</time></trkpt><trkpt lat="44.0397322" lon="12.1611973"><ele>89.0</ele><time>2026-04-06T07:16:16.619Z</time></trkpt><trkpt lat="44.0398779" lon="12.16139"><ele>87.66666666666667</ele><time>2026-04-06T07:16:17.618Z</time></trkpt><trkpt lat="44.0400448" lon="12.1615729"><ele>86.33333333333333</ele><time>2026-04-06T07:16:18.619Z</time></trkpt><trkpt lat="44.0402151" lon="12.1617511"><ele>85.0</ele><time>2026-04-06T07:16:19.62Z</time></trkpt><trkpt lat="44.0403887" lon="12.1619292"><ele>85.0</ele><time>2026-04-06T07:16:20.619Z</time></trkpt><trkpt lat="44.0405638" lon="12.1621061"><ele>85.0</ele><time>2026-04-06T07:16:21.619Z</time></trkpt><trkpt lat="44.0407345" lon="12.1622745"><ele>85.0</ele><time>2026-04-06T07:16:22.619Z</time></trkpt><trkpt lat="44.0408945" lon="12.1624394"><ele>85.33333333333333</ele><time>2026-04-06T07:16:23.618Z</time></trkpt><trkpt lat="44.0410505" lon="12.1626012"><ele>85.66666666666667</ele><time>2026-04-06T07:16:24.618Z</time></trkpt><trkpt lat="44.041203" lon="12.162758"><ele>86.0</ele><time>2026-04-06T07:16:25.619Z</time></trkpt><trkpt lat="44.0413578" lon="12.162911"><ele>86.0</ele><time>2026-04-06T07:16:26.619Z</time></trkpt><trkpt lat="44.0415133" lon="12.1630667"><ele>86.0</ele><time>2026-04-06T07:16:27.62Z</time></trkpt><trkpt lat="44.0416703" lon="12.1632272"><ele>86.0</ele><time>2026-04-06T07:16:28.619Z</time></trkpt><trkpt lat="44.0418286" lon="12.1633843"><ele>85.66666666666667</ele><time>2026-04-06T07:16:29.619Z</time></trkpt><trkpt lat="44.0419876" lon="12.1635417"><ele>85.33333333333333</ele><time>2026-04-06T07:16:30.619Z</time></trkpt><trkpt lat="44.0421456" lon="12.1637012"><ele>85.0</ele><time>2026-04-06T07:16:31.619Z</time></trkpt><trkpt lat="44.0423036" lon="12.1638634"><ele>84.66666666666666</ele><time>2026-04-06T07:16:32.619Z</time></trkpt><trkpt lat="44.0424556" lon="12.1640347"><ele>84.33333333333333</ele><time>2026-04-06T07:16:33.62Z</time></trkpt><trkpt lat="44.0426058" lon="12.1642095"><ele>84.0</ele><time>2026-04-06T07:16:34.618Z</time></trkpt><trkpt lat="44.0427529" lon="12.1643887"><ele>84.0</ele><time>2026-04-06T07:16:35.619Z</time></trkpt><trkpt lat="44.0428979" lon="12.1645751"><ele>84.0</ele><time>2026-04-06T07:16:36.619Z</time></trkpt><trkpt lat="44.0430386" lon="12.1647702"><ele>84.0</ele><time>2026-04-06T07:16:37.62Z</time></trkpt><trkpt lat="44.0431747" lon="12.1649614"><ele>84.66666666666667</ele><time>2026-04-06T07:16:38.619Z</time></trkpt><trkpt lat="44.0433144" lon="12.1651533"><ele>85.33333333333334</ele><time>2026-04-06T07:16:39.618Z</time></trkpt><trkpt lat="44.0434548" lon="12.1653439"><ele>86.0</ele><time>2026-04-06T07:16:40.618Z</time></trkpt><trkpt lat="44.0435896" lon="12.1655371"><ele>84.66666666666667</ele><time>2026-04-06T07:16:41.619Z</time></trkpt><trkpt lat="44.0437251" lon="12.1657331"><ele>83.33333333333333</ele><time>2026-04-06T07:16:42.618Z</time></trkpt><trkpt lat="44.0438639" lon="12.1659266"><ele>82.0</ele><time>2026-04-06T07:16:43.618Z</time></trkpt><trkpt lat="44.0440036" lon="12.1661249"><ele>82.33333333333333</ele><time>2026-04-06T07:16:44.619Z</time></trkpt><trkpt lat="44.0441391" lon="12.1663182"><ele>82.66666666666667</ele><time>2026-04-06T07:16:45.619Z</time></trkpt><trkpt lat="44.044279" lon="12.1665087"><ele>83.0</ele><time>2026-04-06T07:16:46.619Z</time></trkpt><trkpt lat="44.0444206" lon="12.1666973"><ele>81.66666666666667</ele><time>2026-04-06T07:16:47.62Z</time></trkpt><trkpt lat="44.0445682" lon="12.1668688"><ele>80.33333333333333</ele><time>2026-04-06T07:16:48.618Z</time></trkpt><trkpt lat="44.0447312" lon="12.1670199"><ele>79.0</ele><time>2026-04-06T07:16:49.619Z</time></trkpt><trkpt lat="44.0449057" lon="12.1671365"><ele>81.33333333333333</ele><time>2026-04-06T07:16:50.619Z</time></trkpt><trkpt lat="44.0450878" lon="12.1672221"><ele>83.66666666666667</ele><time>2026-04-06T07:16:51.619Z</time></trkpt><trkpt lat="44.0452774" lon="12.167276"><ele>86.0</ele><time>2026-04-06T07:16:52.619Z</time></trkpt><trkpt lat="44.045471" lon="12.1673236"><ele>84.33333333333334</ele><time>2026-04-06T07:16:53.618Z</time></trkpt><trkpt lat="44.0456682" lon="12.1673621"><ele>82.66666666666667</ele><time>2026-04-06T07:16:54.619Z</time></trkpt><trkpt lat="44.0458456" lon="12.1674052"><ele>81.0</ele><time>2026-04-06T07:16:55.618Z</time></trkpt><trkpt lat="44.046019" lon="12.1674466"><ele>80.66666666666667</ele><time>2026-04-06T07:16:56.619Z</time></trkpt><trkpt lat="44.0461771" lon="12.1674843"><ele>80.33333333333334</ele><time>2026-04-06T07:16:57.619Z</time></trkpt><trkpt lat="44.0463379" lon="12.1675231"><ele>80.0</ele><time>2026-04-06T07:16:58.618Z</time></trkpt><trkpt lat="44.046496" lon="12.167572"><ele>81.66666666666667</ele><time>2026-04-06T07:16:59.618Z</time></trkpt><trkpt lat="44.046651" lon="12.1676424"><ele>83.33333333333333</ele><time>2026-04-06T07:17:00.62Z</time></trkpt><trkpt lat="44.0467974" lon="12.1677405"><ele>85.0</ele><time>2026-04-06T07:17:01.619Z</time></trkpt><trkpt lat="44.0469368" lon="12.1678842"><ele>85.0</ele><time>2026-04-06T07:17:02.618Z</time></trkpt><trkpt lat="44.0470733" lon="12.168061"><ele>85.0</ele><time>2026-04-06T07:17:03.618Z</time></trkpt><trkpt lat="44.0471978" lon="12.1682398"><ele>85.0</ele><time>2026-04-06T07:17:04.619Z</time></trkpt><trkpt lat="44.0473187" lon="12.1684142"><ele>85.66666666666666</ele><time>2026-04-06T07:17:05.619Z</time></trkpt><trkpt lat="44.0474132" lon="12.1686048"><ele>86.33333333333333</ele><time>2026-04-06T07:17:06.619Z</time></trkpt><trkpt lat="44.0475088" lon="12.1688107"><ele>87.0</ele><time>2026-04-06T07:17:07.62Z</time></trkpt><trkpt lat="44.0475964" lon="12.1690392"><ele>84.33333333333333</ele><time>2026-04-06T07:17:08.619Z</time></trkpt><trkpt lat="44.0476821" lon="12.1692802"><ele>81.66666666666666</ele><time>2026-04-06T07:17:09.618Z</time></trkpt><trkpt lat="44.0477721" lon="12.1695224"><ele>79.0</ele><time>2026-04-06T07:17:10.618Z</time></trkpt><trkpt lat="44.0478607" lon="12.1697654"><ele>78.0</ele><time>2026-04-06T07:17:11.619Z</time></trkpt><trkpt lat="44.0479462" lon="12.1700078"><ele>77.0</ele><time>2026-04-06T07:17:12.619Z</time></trkpt><trkpt lat="44.0480314" lon="12.1702474"><ele>76.0</ele><time>2026-04-06T07:17:13.619Z</time></trkpt><trkpt lat="44.0481147" lon="12.1704747"><ele>76.0</ele><time>2026-04-06T07:17:14.619Z</time></trkpt><trkpt lat="44.0481874" lon="12.170689"><ele>76.0</ele><time>2026-04-06T07:17:15.619Z</time></trkpt><trkpt lat="44.0482529" lon="12.1708987"><ele>76.0</ele><time>2026-04-06T07:17:16.619Z</time></trkpt><trkpt lat="44.0483037" lon="12.1711201"><ele>77.33333333333333</ele><time>2026-04-06T07:17:17.62Z</time></trkpt><trkpt lat="44.048342" lon="12.1713485"><ele>78.66666666666667</ele><time>2026-04-06T07:17:18.619Z</time></trkpt><trkpt lat="44.0483724" lon="12.1715734"><ele>80.0</ele><time>2026-04-06T07:17:19.619Z</time></trkpt><trkpt lat="44.0483899" lon="12.1717831"><ele>80.0</ele><time>2026-04-06T07:17:20.619Z</time></trkpt><trkpt lat="44.0484228" lon="12.1719741"><ele>80.0</ele><time>2026-04-06T07:17:21.619Z</time></trkpt><trkpt lat="44.0484743" lon="12.1721674"><ele>80.0</ele><time>2026-04-06T07:17:22.619Z</time></trkpt><trkpt lat="44.0485487" lon="12.1723513"><ele>80.0</ele><time>2026-04-06T07:17:23.619Z</time></trkpt><trkpt lat="44.0486522" lon="12.1725183"><ele>80.0</ele><time>2026-04-06T07:17:24.619Z</time></trkpt><trkpt lat="44.0487623" lon="12.172669"><ele>80.0</ele><time>2026-04-06T07:17:25.618Z</time></trkpt><trkpt lat="44.0488844" lon="12.1727848"><ele>80.0</ele><time>2026-04-06T07:17:26.619Z</time></trkpt><trkpt lat="44.0490053" lon="12.1728995"><ele>80.0</ele><time>2026-04-06T07:17:27.619Z</time></trkpt><trkpt lat="44.0491106" lon="12.1729994"><ele>79.75</ele><time>2026-04-06T07:17:28.619Z</time></trkpt><trkpt lat="44.0492121" lon="12.1730907"><ele>79.5</ele><time>2026-04-06T07:17:29.619Z</time></trkpt><trkpt lat="44.0493145" lon="12.1731869"><ele>79.25</ele><time>2026-04-06T07:17:30.618Z</time></trkpt><trkpt lat="44.0494213" lon="12.1732774"><ele>79.0</ele><time>2026-04-06T07:17:31.62Z</time></trkpt><trkpt lat="44.0495314" lon="12.1733661"><ele>79.0</ele><time>2026-04-06T07:17:32.619Z</time></trkpt><trkpt lat="44.049644" lon="12.1734588"><ele>79.0</ele><time>2026-04-06T07:17:33.619Z</time></trkpt><trkpt lat="44.0497665" lon="12.1735273"><ele>79.0</ele><time>2026-04-06T07:17:34.619Z</time></trkpt><trkpt lat="44.0498935" lon="12.1735802"><ele>79.0</ele><time>2026-04-06T07:17:35.618Z</time></trkpt><trkpt lat="44.0500252" lon="12.1736198"><ele>78.75</ele><time>2026-04-06T07:17:36.619Z</time></trkpt><trkpt lat="44.0501562" lon="12.1736511"><ele>78.5</ele><time>2026-04-06T07:17:37.619Z</time></trkpt><trkpt lat="44.0502852" lon="12.1736886"><ele>78.25</ele><time>2026-04-06T07:17:38.618Z</time></trkpt><trkpt lat="44.0504091" lon="12.1737183"><ele>78.0</ele><time>2026-04-06T07:17:39.619Z</time></trkpt><trkpt lat="44.050533" lon="12.1737554"><ele>78.0</ele><time>2026-04-06T07:17:40.619Z</time></trkpt><trkpt lat="44.0506548" lon="12.1738011"><ele>78.0</ele><time>2026-04-06T07:17:41.618Z</time></trkpt><trkpt lat="44.0507639" lon="12.17391"><ele>78.0</ele><time>2026-04-06T07:17:42.619Z</time></trkpt><trkpt lat="44.0508712" lon="12.1740293"><ele>78.0</ele><time>2026-04-06T07:17:43.619Z</time></trkpt><trkpt lat="44.0509602" lon="12.1741784"><ele>77.0</ele><time>2026-04-06T07:17:44.619Z</time></trkpt><trkpt lat="44.0510501" lon="12.1743383"><ele>76.0</ele><time>2026-04-06T07:17:45.618Z</time></trkpt><trkpt lat="44.0511359" lon="12.1744961"><ele>75.0</ele><time>2026-04-06T07:17:46.619Z</time></trkpt><trkpt lat="44.0512171" lon="12.1746443"><ele>74.0</ele><time>2026-04-06T07:17:47.62Z</time></trkpt><trkpt lat="44.051289" lon="12.1747754"><ele>73.8</ele><time>2026-04-06T07:17:48.619Z</time></trkpt><trkpt lat="44.0513583" lon="12.1748984"><ele>73.60000000000001</ele><time>2026-04-06T07:17:49.619Z</time></trkpt><trkpt lat="44.0514259" lon="12.175015"><ele>73.4</ele><time>2026-04-06T07:17:50.618Z</time></trkpt><trkpt lat="44.0514846" lon="12.175124"><ele>73.2</ele><time>2026-04-06T07:17:51.619Z</time></trkpt><trkpt lat="44.0515335" lon="12.1752198"><ele>73.0</ele><time>2026-04-06T07:17:52.619Z</time></trkpt><trkpt lat="44.0515769" lon="12.1753076"><ele>73.0</ele><time>2026-04-06T07:17:53.619Z</time></trkpt><trkpt lat="44.0516196" lon="12.1753862"><ele>73.0</ele><time>2026-04-06T07:17:54.618Z</time></trkpt><trkpt lat="44.0516758" lon="12.1755253"><ele>73.0</ele><time>2026-04-06T07:17:56.619Z</time></trkpt><trkpt lat="44.0516849" lon="12.1756406"><ele>73.0</ele><time>2026-04-06T07:17:58.619Z</time></trkpt><trkpt lat="44.0516711" lon="12.1757736"><ele>73.0</ele><time>2026-04-06T07:18:00.619Z</time></trkpt><trkpt lat="44.0515987" lon="12.1758489"><ele>72.66666666666666</ele><time>2026-04-06T07:18:02.619Z</time></trkpt><trkpt lat="44.05153" lon="12.1758583"><ele>72.33333333333333</ele><time>2026-04-06T07:18:03.62Z</time></trkpt><trkpt lat="44.0514465" lon="12.1758868"><ele>72.0</ele><time>2026-04-06T07:18:04.618Z</time></trkpt><trkpt lat="44.0513796" lon="12.1759372"><ele>71.66666666666667</ele><time>2026-04-06T07:18:05.619Z</time></trkpt><trkpt lat="44.0513081" lon="12.1760043"><ele>71.33333333333334</ele><time>2026-04-06T07:18:06.618Z</time></trkpt><trkpt lat="44.0512457" lon="12.1760711"><ele>71.0</ele><time>2026-04-06T07:18:07.619Z</time></trkpt><trkpt lat="44.0511897" lon="12.1761274"><ele>71.0</ele><time>2026-04-06T07:18:08.619Z</time></trkpt><trkpt lat="44.0511002" lon="12.1761919"><ele>71.0</ele><time>2026-04-06T07:18:10.619Z</time></trkpt><trkpt lat="44.0510356" lon="12.1762252"><ele>71.0</ele><time>2026-04-06T07:18:12.619Z</time></trkpt><trkpt lat="44.0509859" lon="12.1762984"><ele>71.0</ele><time>2026-04-06T07:18:22.619Z</time></trkpt><trkpt lat="44.0509743" lon="12.1763861"><ele>71.0</ele><time>2026-04-06T07:18:25.619Z</time></trkpt><trkpt lat="44.0510454" lon="12.1764348"><ele>71.0</ele><time>2026-04-06T07:18:57.619Z</time></trkpt><trkpt lat="44.0511241" lon="12.1763211"><ele>71.0</ele><time>2026-04-06T07:18:59.618Z</time></trkpt><trkpt lat="44.0511751" lon="12.1762509"><ele>71.0</ele><time>2026-04-06T07:19:00.618Z</time></trkpt><trkpt lat="44.0512463" lon="12.1761671"><ele>71.0</ele><time>2026-04-06T07:19:01.619Z</time></trkpt><trkpt lat="44.0513124" lon="12.1760823"><ele>71.0</ele><time>2026-04-06T07:19:02.618Z</time></trkpt><trkpt lat="44.0513782" lon="12.1760168"><ele>71.0</ele><time>2026-04-06T07:19:03.618Z</time></trkpt><trkpt lat="44.0514301" lon="12.1759581"><ele>71.0</ele><time>2026-04-06T07:19:04.619Z</time></trkpt><trkpt lat="44.0515499" lon="12.17592"><ele>71.2</ele><time>2026-04-06T07:19:06.619Z</time></trkpt><trkpt lat="44.0516692" lon="12.1759265"><ele>71.39999999999999</ele><time>2026-04-06T07:19:08.619Z</time></trkpt><trkpt lat="44.051733" lon="12.1759367"><ele>71.6</ele><time>2026-04-06T07:19:09.618Z</time></trkpt><trkpt lat="44.0518557" lon="12.1760281"><ele>71.8</ele><time>2026-04-06T07:19:11.619Z</time></trkpt><trkpt lat="44.0519207" lon="12.1761089"><ele>72.0</ele><time>2026-04-06T07:19:12.619Z</time></trkpt><trkpt lat="44.0519845" lon="12.1761998"><ele>72.0</ele><time>2026-04-06T07:19:13.619Z</time></trkpt><trkpt lat="44.0520484" lon="12.1763004"><ele>72.0</ele><time>2026-04-06T07:19:14.619Z</time></trkpt><trkpt lat="44.0521177" lon="12.1764073"><ele>72.0</ele><time>2026-04-06T07:19:15.619Z</time></trkpt><trkpt lat="44.0521842" lon="12.1765228"><ele>72.0</ele><time>2026-04-06T07:19:16.619Z</time></trkpt><trkpt lat="44.0522567" lon="12.1766352"><ele>72.0</ele><time>2026-04-06T07:19:17.62Z</time></trkpt><trkpt lat="44.0523191" lon="12.1767545"><ele>72.0</ele><time>2026-04-06T07:19:18.619Z</time></trkpt><trkpt lat="44.0523891" lon="12.1768696"><ele>72.0</ele><time>2026-04-06T07:19:19.619Z</time></trkpt><trkpt lat="44.0524488" lon="12.1769904"><ele>72.0</ele><time>2026-04-06T07:19:20.619Z</time></trkpt><trkpt lat="44.0525114" lon="12.1771113"><ele>72.0</ele><time>2026-04-06T07:19:21.619Z</time></trkpt><trkpt lat="44.0525738" lon="12.1772331"><ele>72.0</ele><time>2026-04-06T07:19:22.619Z</time></trkpt><trkpt lat="44.0526362" lon="12.1773592"><ele>71.75</ele><time>2026-04-06T07:19:23.618Z</time></trkpt><trkpt lat="44.0527191" lon="12.1774734"><ele>71.5</ele><time>2026-04-06T07:19:24.619Z</time></trkpt><trkpt lat="44.0528056" lon="12.1775802"><ele>71.25</ele><time>2026-04-06T07:19:25.619Z</time></trkpt><trkpt lat="44.0528902" lon="12.1776951"><ele>71.0</ele><time>2026-04-06T07:19:26.619Z</time></trkpt><trkpt lat="44.0529905" lon="12.177778"><ele>71.0</ele><time>2026-04-06T07:19:27.619Z</time></trkpt><trkpt lat="44.0530883" lon="12.1778632"><ele>71.0</ele><time>2026-04-06T07:19:28.619Z</time></trkpt><trkpt lat="44.0531884" lon="12.1779501"><ele>71.0</ele><time>2026-04-06T07:19:29.619Z</time></trkpt><trkpt lat="44.0532925" lon="12.1780385"><ele>71.0</ele><time>2026-04-06T07:19:30.619Z</time></trkpt><trkpt lat="44.0533979" lon="12.178124"><ele>71.75</ele><time>2026-04-06T07:19:31.619Z</time></trkpt><trkpt lat="44.0535043" lon="12.1782116"><ele>72.5</ele><time>2026-04-06T07:19:32.618Z</time></trkpt><trkpt lat="44.0536137" lon="12.1782951"><ele>73.25</ele><time>2026-04-06T07:19:33.62Z</time></trkpt><trkpt lat="44.0537277" lon="12.1783847"><ele>74.0</ele><time>2026-04-06T07:19:34.619Z</time></trkpt><trkpt lat="44.0538406" lon="12.1784825"><ele>74.0</ele><time>2026-04-06T07:19:35.618Z</time></trkpt><trkpt lat="44.0539632" lon="12.1785854"><ele>74.0</ele><time>2026-04-06T07:19:36.618Z</time></trkpt><trkpt lat="44.0540873" lon="12.1786888"><ele>74.0</ele><time>2026-04-06T07:19:37.619Z</time></trkpt><trkpt lat="44.0542145" lon="12.1787955"><ele>74.0</ele><time>2026-04-06T07:19:38.618Z</time></trkpt><trkpt lat="44.0543429" lon="12.1789081"><ele>74.0</ele><time>2026-04-06T07:19:39.619Z</time></trkpt><trkpt lat="44.0544769" lon="12.1790199"><ele>74.0</ele><time>2026-04-06T07:19:40.619Z</time></trkpt><trkpt lat="44.0546102" lon="12.1791309"><ele>74.0</ele><time>2026-04-06T07:19:41.618Z</time></trkpt><trkpt lat="44.0547431" lon="12.1792485"><ele>74.0</ele><time>2026-04-06T07:19:42.619Z</time></trkpt><trkpt lat="44.0548827" lon="12.1793629"><ele>74.0</ele><time>2026-04-06T07:19:43.619Z</time></trkpt><trkpt lat="44.0550207" lon="12.1794741"><ele>74.0</ele><time>2026-04-06T07:19:44.619Z</time></trkpt><trkpt lat="44.0551651" lon="12.1795753"><ele>74.66666666666667</ele><time>2026-04-06T07:19:45.619Z</time></trkpt><trkpt lat="44.0553095" lon="12.1796766"><ele>75.33333333333333</ele><time>2026-04-06T07:19:46.62Z</time></trkpt><trkpt lat="44.0554589" lon="12.1797629"><ele>76.0</ele><time>2026-04-06T07:19:47.619Z</time></trkpt><trkpt lat="44.0556067" lon="12.1798508"><ele>76.0</ele><time>2026-04-06T07:19:48.618Z</time></trkpt><trkpt lat="44.0557595" lon="12.1799286"><ele>76.0</ele><time>2026-04-06T07:19:49.619Z</time></trkpt><trkpt lat="44.0559108" lon="12.180015"><ele>76.0</ele><time>2026-04-06T07:19:50.619Z</time></trkpt><trkpt lat="44.0560663" lon="12.1800988"><ele>77.33333333333333</ele><time>2026-04-06T07:19:51.619Z</time></trkpt><trkpt lat="44.0562197" lon="12.1801838"><ele>78.66666666666667</ele><time>2026-04-06T07:19:52.618Z</time></trkpt><trkpt lat="44.0563745" lon="12.1802565"><ele>80.0</ele><time>2026-04-06T07:19:53.619Z</time></trkpt><trkpt lat="44.0565341" lon="12.180306"><ele>82.33333333333334</ele><time>2026-04-06T07:19:54.619Z</time></trkpt><trkpt lat="44.0567023" lon="12.1803469"><ele>84.66666666666667</ele><time>2026-04-06T07:19:55.619Z</time></trkpt><trkpt lat="44.0568632" lon="12.1803754"><ele>87.0</ele><time>2026-04-06T07:19:56.619Z</time></trkpt><trkpt lat="44.0570196" lon="12.1803962"><ele>87.0</ele><time>2026-04-06T07:19:57.619Z</time></trkpt><trkpt lat="44.0571726" lon="12.1804147"><ele>87.0</ele><time>2026-04-06T07:19:58.618Z</time></trkpt><trkpt lat="44.0573114" lon="12.1804352"><ele>87.0</ele><time>2026-04-06T07:19:59.619Z</time></trkpt><trkpt lat="44.0574552" lon="12.1804588"><ele>87.0</ele><time>2026-04-06T07:20:00.619Z</time></trkpt><trkpt lat="44.0576099" lon="12.1804881"><ele>89.0</ele><time>2026-04-06T07:20:01.618Z</time></trkpt><trkpt lat="44.0577628" lon="12.1805179"><ele>91.0</ele><time>2026-04-06T07:20:02.619Z</time></trkpt><trkpt lat="44.0579105" lon="12.1805451"><ele>93.0</ele><time>2026-04-06T07:20:03.619Z</time></trkpt><trkpt lat="44.0580509" lon="12.1805709"><ele>95.0</ele><time>2026-04-06T07:20:04.619Z</time></trkpt><trkpt lat="44.0581839" lon="12.1805935"><ele>95.25</ele><time>2026-04-06T07:20:05.618Z</time></trkpt><trkpt lat="44.0583153" lon="12.1806106"><ele>95.5</ele><time>2026-04-06T07:20:06.619Z</time></trkpt><trkpt lat="44.0584504" lon="12.1806369"><ele>95.75</ele><time>2026-04-06T07:20:07.619Z</time></trkpt><trkpt lat="44.0585893" lon="12.1806636"><ele>96.0</ele><time>2026-04-06T07:20:08.619Z</time></trkpt><trkpt lat="44.0587225" lon="12.1806913"><ele>95.19999999999999</ele><time>2026-04-06T07:20:09.619Z</time></trkpt><trkpt lat="44.0588466" lon="12.1807191"><ele>94.39999999999999</ele><time>2026-04-06T07:20:10.619Z</time></trkpt><trkpt lat="44.058964" lon="12.1807453"><ele>93.6</ele><time>2026-04-06T07:20:11.619Z</time></trkpt><trkpt lat="44.0590734" lon="12.1807701"><ele>92.8</ele><time>2026-04-06T07:20:12.619Z</time></trkpt><trkpt lat="44.0591643" lon="12.1807926"><ele>92.0</ele><time>2026-04-06T07:20:13.619Z</time></trkpt><trkpt lat="44.0592416" lon="12.1808217"><ele>91.8</ele><time>2026-04-06T07:20:14.618Z</time></trkpt><trkpt lat="44.0593419" lon="12.1809177"><ele>91.6</ele><time>2026-04-06T07:20:16.619Z</time></trkpt><trkpt lat="44.0594328" lon="12.1809856"><ele>91.39999999999999</ele><time>2026-04-06T07:20:18.619Z</time></trkpt><trkpt lat="44.0595064" lon="12.1810205"><ele>91.19999999999999</ele><time>2026-04-06T07:20:21.619Z</time></trkpt><trkpt lat="44.0595731" lon="12.1810544"><ele>91.0</ele><time>2026-04-06T07:23:15.618Z</time></trkpt><trkpt lat="44.0596527" lon="12.1810599"><ele>91.0</ele><time>2026-04-06T07:23:17.619Z</time></trkpt><trkpt lat="44.0597247" lon="12.1810134"><ele>91.0</ele><time>2026-04-06T07:23:20.618Z</time></trkpt><trkpt lat="44.0598064" lon="12.1809621"><ele>91.0</ele><time>2026-04-06T07:23:26.619Z</time></trkpt><trkpt lat="44.0599359" lon="12.1809887"><ele>91.0</ele><time>2026-04-06T07:23:28.619Z</time></trkpt><trkpt lat="44.0600084" lon="12.1810089"><ele>91.0</ele><time>2026-04-06T07:23:29.619Z</time></trkpt><trkpt lat="44.0601005" lon="12.1810323"><ele>91.5</ele><time>2026-04-06T07:23:30.619Z</time></trkpt><trkpt lat="44.0601936" lon="12.1810578"><ele>92.0</ele><time>2026-04-06T07:23:31.619Z</time></trkpt><trkpt lat="44.0603032" lon="12.1810986"><ele>92.5</ele><time>2026-04-06T07:23:32.619Z</time></trkpt><trkpt lat="44.0604252" lon="12.1811345"><ele>93.0</ele><time>2026-04-06T07:23:33.619Z</time></trkpt><trkpt lat="44.0605566" lon="12.1811762"><ele>93.0</ele><time>2026-04-06T07:23:34.619Z</time></trkpt><trkpt lat="44.0606861" lon="12.1812251"><ele>93.0</ele><time>2026-04-06T07:23:35.619Z</time></trkpt><trkpt lat="44.0608253" lon="12.1812684"><ele>93.0</ele><time>2026-04-06T07:23:36.619Z</time></trkpt><trkpt lat="44.0609513" lon="12.1813228"><ele>93.0</ele><time>2026-04-06T07:23:37.618Z</time></trkpt><trkpt lat="44.0610788" lon="12.1813798"><ele>92.75</ele><time>2026-04-06T07:23:38.618Z</time></trkpt><trkpt lat="44.0612061" lon="12.1814352"><ele>92.5</ele><time>2026-04-06T07:23:39.618Z</time></trkpt><trkpt lat="44.0613379" lon="12.1814941"><ele>92.25</ele><time>2026-04-06T07:23:40.619Z</time></trkpt><trkpt lat="44.0614675" lon="12.1815548"><ele>92.0</ele><time>2026-04-06T07:23:41.618Z</time></trkpt><trkpt lat="44.0615994" lon="12.1816149"><ele>91.25</ele><time>2026-04-06T07:23:42.618Z</time></trkpt><trkpt lat="44.0617274" lon="12.1816798"><ele>90.5</ele><time>2026-04-06T07:23:43.619Z</time></trkpt><trkpt lat="44.0618524" lon="12.1817463"><ele>89.75</ele><time>2026-04-06T07:23:44.619Z</time></trkpt><trkpt lat="44.0619789" lon="12.1818158"><ele>89.0</ele><time>2026-04-06T07:23:45.618Z</time></trkpt><trkpt lat="44.0621112" lon="12.1818824"><ele>89.0</ele><time>2026-04-06T07:23:46.618Z</time></trkpt><trkpt lat="44.0622481" lon="12.1819539"><ele>89.0</ele><time>2026-04-06T07:23:47.619Z</time></trkpt><trkpt lat="44.0623863" lon="12.1820286"><ele>89.0</ele><time>2026-04-06T07:23:48.619Z</time></trkpt><trkpt lat="44.0625296" lon="12.1821032"><ele>89.0</ele><time>2026-04-06T07:23:49.618Z</time></trkpt><trkpt lat="44.0626768" lon="12.1821791"><ele>89.0</ele><time>2026-04-06T07:23:50.619Z</time></trkpt><trkpt lat="44.0628244" lon="12.1822594"><ele>89.0</ele><time>2026-04-06T07:23:51.619Z</time></trkpt><trkpt lat="44.0629703" lon="12.1823385"><ele>89.0</ele><time>2026-04-06T07:23:52.618Z</time></trkpt><trkpt lat="44.063109" lon="12.1824083"><ele>88.75</ele><time>2026-04-06T07:23:53.618Z</time></trkpt><trkpt lat="44.0632373" lon="12.1824784"><ele>88.5</ele><time>2026-04-06T07:23:54.618Z</time></trkpt><trkpt lat="44.0633563" lon="12.1825395"><ele>88.25</ele><time>2026-04-06T07:23:55.619Z</time></trkpt><trkpt lat="44.0634754" lon="12.1825984"><ele>88.0</ele><time>2026-04-06T07:23:56.619Z</time></trkpt><trkpt lat="44.0635975" lon="12.1826556"><ele>88.5</ele><time>2026-04-06T07:23:57.619Z</time></trkpt><trkpt lat="44.0637238" lon="12.1827164"><ele>89.0</ele><time>2026-04-06T07:23:58.619Z</time></trkpt><trkpt lat="44.0638529" lon="12.1827832"><ele>89.5</ele><time>2026-04-06T07:23:59.619Z</time></trkpt><trkpt lat="44.0639866" lon="12.1828486"><ele>90.0</ele><time>2026-04-06T07:24:00.619Z</time></trkpt><trkpt lat="44.0641166" lon="12.1829042"><ele>90.0</ele><time>2026-04-06T07:24:01.619Z</time></trkpt><trkpt lat="44.0642402" lon="12.1829484"><ele>90.0</ele><time>2026-04-06T07:24:02.618Z</time></trkpt><trkpt lat="44.0643553" lon="12.1829828"><ele>90.0</ele><time>2026-04-06T07:24:03.618Z</time></trkpt><trkpt lat="44.0644655" lon="12.1830053"><ele>90.0</ele><time>2026-04-06T07:24:04.619Z</time></trkpt><trkpt lat="44.0645724" lon="12.1830062"><ele>90.0</ele><time>2026-04-06T07:24:05.619Z</time></trkpt><trkpt lat="44.0646791" lon="12.182968"><ele>90.0</ele><time>2026-04-06T07:24:06.62Z</time></trkpt><trkpt lat="44.0647709" lon="12.1829014"><ele>90.0</ele><time>2026-04-06T07:24:07.618Z</time></trkpt><trkpt lat="44.0648462" lon="12.1828115"><ele>90.0</ele><time>2026-04-06T07:24:08.619Z</time></trkpt><trkpt lat="44.0649116" lon="12.1827068"><ele>90.0</ele><time>2026-04-06T07:24:09.619Z</time></trkpt><trkpt lat="44.0649754" lon="12.1825916"><ele>89.0</ele><time>2026-04-06T07:24:10.619Z</time></trkpt><trkpt lat="44.0650403" lon="12.1824727"><ele>88.0</ele><time>2026-04-06T07:24:11.618Z</time></trkpt><trkpt lat="44.0651106" lon="12.1823641"><ele>87.0</ele><time>2026-04-06T07:24:12.618Z</time></trkpt><trkpt lat="44.0651864" lon="12.1822669"><ele>86.0</ele><time>2026-04-06T07:24:13.619Z</time></trkpt><trkpt lat="44.0652717" lon="12.182177"><ele>85.0</ele><time>2026-04-06T07:24:14.619Z</time></trkpt><trkpt lat="44.0653568" lon="12.182093"><ele>85.0</ele><time>2026-04-06T07:24:15.619Z</time></trkpt><trkpt lat="44.0654462" lon="12.1820186"><ele>85.0</ele><time>2026-04-06T07:24:16.618Z</time></trkpt><trkpt lat="44.065531" lon="12.1819635"><ele>85.0</ele><time>2026-04-06T07:24:17.619Z</time></trkpt><trkpt lat="44.0656219" lon="12.181949"><ele>85.0</ele><time>2026-04-06T07:24:18.619Z</time></trkpt><trkpt lat="44.0657136" lon="12.1819741"><ele>85.0</ele><time>2026-04-06T07:24:19.619Z</time></trkpt><trkpt lat="44.0658031" lon="12.1820357"><ele>84.8</ele><time>2026-04-06T07:24:20.618Z</time></trkpt><trkpt lat="44.0658817" lon="12.1821247"><ele>84.6</ele><time>2026-04-06T07:24:21.619Z</time></trkpt><trkpt lat="44.0659536" lon="12.1822295"><ele>84.4</ele><time>2026-04-06T07:24:22.619Z</time></trkpt><trkpt lat="44.0660207" lon="12.1823443"><ele>84.2</ele><time>2026-04-06T07:24:23.619Z</time></trkpt><trkpt lat="44.0660858" lon="12.1824557"><ele>84.0</ele><time>2026-04-06T07:24:24.618Z</time></trkpt><trkpt lat="44.0661401" lon="12.1825631"><ele>83.6</ele><time>2026-04-06T07:24:25.62Z</time></trkpt><trkpt lat="44.0662045" lon="12.1826775"><ele>83.2</ele><time>2026-04-06T07:24:26.619Z</time></trkpt><trkpt lat="44.0662764" lon="12.182793"><ele>82.8</ele><time>2026-04-06T07:24:27.619Z</time></trkpt><trkpt lat="44.0663525" lon="12.1829"><ele>82.39999999999999</ele><time>2026-04-06T07:24:28.618Z</time></trkpt><trkpt lat="44.0664351" lon="12.1830029"><ele>82.0</ele><time>2026-04-06T07:24:29.62Z</time></trkpt><trkpt lat="44.0665125" lon="12.183091"><ele>82.0</ele><time>2026-04-06T07:24:30.619Z</time></trkpt><trkpt lat="44.0665944" lon="12.1831738"><ele>82.0</ele><time>2026-04-06T07:24:31.618Z</time></trkpt><trkpt lat="44.0666786" lon="12.1832551"><ele>82.0</ele><time>2026-04-06T07:24:32.618Z</time></trkpt><trkpt lat="44.0667698" lon="12.1833373"><ele>82.0</ele><time>2026-04-06T07:24:33.619Z</time></trkpt><trkpt lat="44.0668637" lon="12.1834216"><ele>82.0</ele><time>2026-04-06T07:24:34.619Z</time></trkpt><trkpt lat="44.066962" lon="12.1835052"><ele>83.5</ele><time>2026-04-06T07:24:35.618Z</time></trkpt><trkpt lat="44.0670611" lon="12.1835839"><ele>85.0</ele><time>2026-04-06T07:24:36.619Z</time></trkpt><trkpt lat="44.067163" lon="12.1836662"><ele>86.5</ele><time>2026-04-06T07:24:37.618Z</time></trkpt><trkpt lat="44.0672721" lon="12.1837405"><ele>88.0</ele><time>2026-04-06T07:24:38.618Z</time></trkpt><trkpt lat="44.0673846" lon="12.1838163"><ele>88.25</ele><time>2026-04-06T07:24:39.619Z</time></trkpt><trkpt lat="44.067488" lon="12.1839019"><ele>88.5</ele><time>2026-04-06T07:24:40.619Z</time></trkpt><trkpt lat="44.0675954" lon="12.1839859"><ele>88.75</ele><time>2026-04-06T07:24:41.619Z</time></trkpt><trkpt lat="44.0676986" lon="12.1840664"><ele>89.0</ele><time>2026-04-06T07:24:42.619Z</time></trkpt><trkpt lat="44.0677999" lon="12.1841362"><ele>89.0</ele><time>2026-04-06T07:24:43.618Z</time></trkpt><trkpt lat="44.0678979" lon="12.1841933"><ele>89.0</ele><time>2026-04-06T07:24:44.618Z</time></trkpt><trkpt lat="44.0679824" lon="12.1842458"><ele>89.0</ele><time>2026-04-06T07:24:45.619Z</time></trkpt><trkpt lat="44.0680866" lon="12.1843042"><ele>89.0</ele><time>2026-04-06T07:24:46.619Z</time></trkpt><trkpt lat="44.0682072" lon="12.1843368"><ele>89.0</ele><time>2026-04-06T07:24:47.618Z</time></trkpt><trkpt lat="44.0683321" lon="12.1843366"><ele>89.0</ele><time>2026-04-06T07:24:48.619Z</time></trkpt><trkpt lat="44.068453" lon="12.1843042"><ele>89.0</ele><time>2026-04-06T07:24:49.618Z</time></trkpt><trkpt lat="44.0685767" lon="12.184245"><ele>89.0</ele><time>2026-04-06T07:24:50.618Z</time></trkpt><trkpt lat="44.068707" lon="12.1841821"><ele>89.0</ele><time>2026-04-06T07:24:51.619Z</time></trkpt><trkpt lat="44.0688411" lon="12.1841138"><ele>89.0</ele><time>2026-04-06T07:24:52.618Z</time></trkpt><trkpt lat="44.0689814" lon="12.1840448"><ele>89.0</ele><time>2026-04-06T07:24:53.619Z</time></trkpt><trkpt lat="44.0691229" lon="12.1839886"><ele>89.0</ele><time>2026-04-06T07:24:54.619Z</time></trkpt><trkpt lat="44.0692693" lon="12.1839409"><ele>89.0</ele><time>2026-04-06T07:24:55.62Z</time></trkpt><trkpt lat="44.0694125" lon="12.183921"><ele>89.0</ele><time>2026-04-06T07:24:56.619Z</time></trkpt><trkpt lat="44.0695629" lon="12.1839278"><ele>89.0</ele><time>2026-04-06T07:24:57.619Z</time></trkpt><trkpt lat="44.0697141" lon="12.183953"><ele>89.0</ele><time>2026-04-06T07:24:58.618Z</time></trkpt><trkpt lat="44.0698835" lon="12.1839895"><ele>89.66666666666667</ele><time>2026-04-06T07:24:59.619Z</time></trkpt><trkpt lat="44.0700604" lon="12.1840275"><ele>90.33333333333333</ele><time>2026-04-06T07:25:00.619Z</time></trkpt><trkpt lat="44.0702374" lon="12.1840674"><ele>91.0</ele><time>2026-04-06T07:25:01.618Z</time></trkpt><trkpt lat="44.0704177" lon="12.1841077"><ele>91.0</ele><time>2026-04-06T07:25:02.619Z</time></trkpt><trkpt lat="44.0706029" lon="12.1841514"><ele>91.0</ele><time>2026-04-06T07:25:03.618Z</time></trkpt><trkpt lat="44.0707894" lon="12.1841883"><ele>91.0</ele><time>2026-04-06T07:25:04.619Z</time></trkpt><trkpt lat="44.0709729" lon="12.1842279"><ele>89.66666666666666</ele><time>2026-04-06T07:25:05.618Z</time></trkpt><trkpt lat="44.0711553" lon="12.1842704"><ele>88.33333333333333</ele><time>2026-04-06T07:25:06.619Z</time></trkpt><trkpt lat="44.0713371" lon="12.1843073"><ele>87.0</ele><time>2026-04-06T07:25:07.619Z</time></trkpt><trkpt lat="44.0715224" lon="12.1843472"><ele>87.66666666666667</ele><time>2026-04-06T07:25:08.619Z</time></trkpt><trkpt lat="44.0717048" lon="12.1843891"><ele>88.33333333333334</ele><time>2026-04-06T07:25:09.618Z</time></trkpt><trkpt lat="44.0718843" lon="12.1844362"><ele>89.0</ele><time>2026-04-06T07:25:10.618Z</time></trkpt><trkpt lat="44.0720622" lon="12.1844946"><ele>89.0</ele><time>2026-04-06T07:25:11.619Z</time></trkpt><trkpt lat="44.0722433" lon="12.1845665"><ele>89.0</ele><time>2026-04-06T07:25:12.619Z</time></trkpt><trkpt lat="44.0724301" lon="12.1846533"><ele>89.0</ele><time>2026-04-06T07:25:13.618Z</time></trkpt><trkpt lat="44.0726202" lon="12.1847424"><ele>90.66666666666667</ele><time>2026-04-06T07:25:14.619Z</time></trkpt><trkpt lat="44.072814" lon="12.1848373"><ele>92.33333333333333</ele><time>2026-04-06T07:25:15.619Z</time></trkpt><trkpt lat="44.0730121" lon="12.184931"><ele>94.0</ele><time>2026-04-06T07:25:16.618Z</time></trkpt><trkpt lat="44.0732098" lon="12.1850233"><ele>91.0</ele><time>2026-04-06T07:25:17.619Z</time></trkpt><trkpt lat="44.0733961" lon="12.1851118"><ele>88.0</ele><time>2026-04-06T07:25:18.619Z</time></trkpt><trkpt lat="44.0735798" lon="12.1851919"><ele>85.0</ele><time>2026-04-06T07:25:19.619Z</time></trkpt><trkpt lat="44.0737634" lon="12.1852757"><ele>85.0</ele><time>2026-04-06T07:25:20.619Z</time></trkpt><trkpt lat="44.0739491" lon="12.1853723"><ele>85.0</ele><time>2026-04-06T07:25:21.619Z</time></trkpt><trkpt lat="44.0741388" lon="12.1855074"><ele>85.0</ele><time>2026-04-06T07:25:22.619Z</time></trkpt><trkpt lat="44.0743358" lon="12.1856547"><ele>83.66666666666666</ele><time>2026-04-06T07:25:23.619Z</time></trkpt><trkpt lat="44.0745356" lon="12.1858126"><ele>82.33333333333333</ele><time>2026-04-06T07:25:24.618Z</time></trkpt><trkpt lat="44.0747222" lon="12.1859581"><ele>81.0</ele><time>2026-04-06T07:25:25.619Z</time></trkpt><trkpt lat="44.0749091" lon="12.1860995"><ele>82.0</ele><time>2026-04-06T07:25:26.619Z</time></trkpt><trkpt lat="44.0750783" lon="12.1862352"><ele>83.0</ele><time>2026-04-06T07:25:27.619Z</time></trkpt><trkpt lat="44.0752561" lon="12.1863564"><ele>84.0</ele><time>2026-04-06T07:25:28.618Z</time></trkpt><trkpt lat="44.07543" lon="12.186475"><ele>83.33333333333333</ele><time>2026-04-06T07:25:29.619Z</time></trkpt><trkpt lat="44.0756102" lon="12.1865868"><ele>82.66666666666666</ele><time>2026-04-06T07:25:30.618Z</time></trkpt><trkpt lat="44.0757873" lon="12.186696"><ele>82.0</ele><time>2026-04-06T07:25:31.618Z</time></trkpt><trkpt lat="44.0759574" lon="12.1868111"><ele>81.0</ele><time>2026-04-06T07:25:32.618Z</time></trkpt><trkpt lat="44.0761297" lon="12.1869293"><ele>80.0</ele><time>2026-04-06T07:25:33.619Z</time></trkpt><trkpt lat="44.0763065" lon="12.1870451"><ele>79.0</ele><time>2026-04-06T07:25:34.619Z</time></trkpt><trkpt lat="44.0764848" lon="12.1871665"><ele>79.66666666666666</ele><time>2026-04-06T07:25:35.618Z</time></trkpt><trkpt lat="44.0766637" lon="12.1872841"><ele>80.33333333333333</ele><time>2026-04-06T07:25:36.619Z</time></trkpt><trkpt lat="44.0768321" lon="12.187392"><ele>81.0</ele><time>2026-04-06T07:25:37.619Z</time></trkpt><trkpt lat="44.0769749" lon="12.1874847"><ele>80.0</ele><time>2026-04-06T07:25:38.619Z</time></trkpt><trkpt lat="44.0770912" lon="12.1875661"><ele>79.0</ele><time>2026-04-06T07:25:39.619Z</time></trkpt><trkpt lat="44.077166" lon="12.1876184"><ele>78.0</ele><time>2026-04-06T07:25:40.618Z</time></trkpt><trkpt lat="44.0772346" lon="12.1876568"><ele>77.0</ele><time>2026-04-06T07:25:41.619Z</time></trkpt><trkpt lat="44.0773552" lon="12.1875997"><ele>76.0</ele><time>2026-04-06T07:25:43.619Z</time></trkpt><trkpt lat="44.0774231" lon="12.1875566"><ele>77.19999999999999</ele><time>2026-04-06T07:25:44.619Z</time></trkpt><trkpt lat="44.0775179" lon="12.1875085"><ele>78.39999999999999</ele><time>2026-04-06T07:25:45.618Z</time></trkpt><trkpt lat="44.077608" lon="12.1875031"><ele>79.6</ele><time>2026-04-06T07:25:46.619Z</time></trkpt><trkpt lat="44.077713" lon="12.1875315"><ele>80.8</ele><time>2026-04-06T07:25:47.619Z</time></trkpt><trkpt lat="44.0778389" lon="12.1875672"><ele>82.0</ele><time>2026-04-06T07:25:48.619Z</time></trkpt><trkpt lat="44.0779773" lon="12.1875884"><ele>82.0</ele><time>2026-04-06T07:25:49.618Z</time></trkpt><trkpt lat="44.0781219" lon="12.1875961"><ele>82.0</ele><time>2026-04-06T07:25:50.618Z</time></trkpt><trkpt lat="44.0782874" lon="12.1875995"><ele>82.0</ele><time>2026-04-06T07:25:51.618Z</time></trkpt><trkpt lat="44.0784663" lon="12.1876059"><ele>85.33333333333333</ele><time>2026-04-06T07:25:52.618Z</time></trkpt><trkpt lat="44.078642" lon="12.1876234"><ele>88.66666666666667</ele><time>2026-04-06T07:25:53.62Z</time></trkpt><trkpt lat="44.0788104" lon="12.187643"><ele>92.0</ele><time>2026-04-06T07:25:54.619Z</time></trkpt><trkpt lat="44.0789351" lon="12.1876813"><ele>92.0</ele><time>2026-04-06T07:25:55.619Z</time></trkpt><trkpt lat="44.0790481" lon="12.1876806"><ele>92.0</ele><time>2026-04-06T07:25:56.619Z</time></trkpt><trkpt lat="44.0791384" lon="12.1876401"><ele>92.0</ele><time>2026-04-06T07:25:57.619Z</time></trkpt><trkpt lat="44.0791987" lon="12.1875729"><ele>92.0</ele><time>2026-04-06T07:25:58.619Z</time></trkpt><trkpt lat="44.0792122" lon="12.187444"><ele>92.0</ele><time>2026-04-06T07:25:59.619Z</time></trkpt><trkpt lat="44.0792412" lon="12.1873178"><ele>95.75</ele><time>2026-04-06T07:26:00.618Z</time></trkpt><trkpt lat="44.0792116" lon="12.1871618"><ele>99.5</ele><time>2026-04-06T07:26:01.618Z</time></trkpt><trkpt lat="44.0791861" lon="12.1870133"><ele>103.25</ele><time>2026-04-06T07:26:02.619Z</time></trkpt><trkpt lat="44.0790956" lon="12.1868766"><ele>107.0</ele><time>2026-04-06T07:26:03.619Z</time></trkpt><trkpt lat="44.0790122" lon="12.1867307"><ele>108.0</ele><time>2026-04-06T07:26:04.619Z</time></trkpt><trkpt lat="44.0789366" lon="12.186589"><ele>109.0</ele><time>2026-04-06T07:26:05.618Z</time></trkpt><trkpt lat="44.0788677" lon="12.1864375"><ele>110.0</ele><time>2026-04-06T07:26:06.62Z</time></trkpt><trkpt lat="44.078825" lon="12.1862834"><ele>111.0</ele><time>2026-04-06T07:26:07.619Z</time></trkpt><trkpt lat="44.0787896" lon="12.1861246"><ele>112.5</ele><time>2026-04-06T07:26:08.619Z</time></trkpt><trkpt lat="44.0788288" lon="12.1859545"><ele>114.0</ele><time>2026-04-06T07:26:09.619Z</time></trkpt><trkpt lat="44.0788619" lon="12.1857752"><ele>115.5</ele><time>2026-04-06T07:26:10.618Z</time></trkpt><trkpt lat="44.0789191" lon="12.1855842"><ele>117.0</ele><time>2026-04-06T07:26:11.618Z</time></trkpt><trkpt lat="44.0789858" lon="12.1854096"><ele>117.25</ele><time>2026-04-06T07:26:12.619Z</time></trkpt><trkpt lat="44.079062" lon="12.185238"><ele>117.5</ele><time>2026-04-06T07:26:13.619Z</time></trkpt><trkpt lat="44.0791228" lon="12.1850828"><ele>117.75</ele><time>2026-04-06T07:26:14.618Z</time></trkpt><trkpt lat="44.0791645" lon="12.1849346"><ele>118.0</ele><time>2026-04-06T07:26:15.618Z</time></trkpt><trkpt lat="44.0791466" lon="12.1847873"><ele>119.0</ele><time>2026-04-06T07:26:16.619Z</time></trkpt><trkpt lat="44.0791155" lon="12.1846488"><ele>120.0</ele><time>2026-04-06T07:26:17.619Z</time></trkpt><trkpt lat="44.0790546" lon="12.1845052"><ele>121.0</ele><time>2026-04-06T07:26:18.618Z</time></trkpt><trkpt lat="44.0789811" lon="12.1843545"><ele>122.0</ele><time>2026-04-06T07:26:19.619Z</time></trkpt><trkpt lat="44.0788996" lon="12.1841902"><ele>123.66666666666666</ele><time>2026-04-06T07:26:20.619Z</time></trkpt><trkpt lat="44.0788158" lon="12.1840127"><ele>125.33333333333334</ele><time>2026-04-06T07:26:21.619Z</time></trkpt><trkpt lat="44.0787265" lon="12.1838249"><ele>127.0</ele><time>2026-04-06T07:26:22.618Z</time></trkpt><trkpt lat="44.0786287" lon="12.1836256"><ele>127.0</ele><time>2026-04-06T07:26:23.619Z</time></trkpt><trkpt lat="44.0785282" lon="12.1834257"><ele>127.0</ele><time>2026-04-06T07:26:24.618Z</time></trkpt><trkpt lat="44.0784248" lon="12.1832156"><ele>127.0</ele><time>2026-04-06T07:26:25.618Z</time></trkpt><trkpt lat="44.0783241" lon="12.183001"><ele>129.0</ele><time>2026-04-06T07:26:26.618Z</time></trkpt><trkpt lat="44.0782165" lon="12.1827943"><ele>131.0</ele><time>2026-04-06T07:26:27.618Z</time></trkpt><trkpt lat="44.0781043" lon="12.1825931"><ele>133.0</ele><time>2026-04-06T07:26:28.619Z</time></trkpt><trkpt lat="44.0779769" lon="12.1824182"><ele>134.66666666666669</ele><time>2026-04-06T07:26:29.618Z</time></trkpt><trkpt lat="44.077839" lon="12.1822679"><ele>136.33333333333334</ele><time>2026-04-06T07:26:30.618Z</time></trkpt><trkpt lat="44.0777044" lon="12.1821387"><ele>138.0</ele><time>2026-04-06T07:26:31.619Z</time></trkpt><trkpt lat="44.0775849" lon="12.1820201"><ele>138.0</ele><time>2026-04-06T07:26:32.619Z</time></trkpt><trkpt lat="44.0774929" lon="12.1819046"><ele>138.0</ele><time>2026-04-06T07:26:33.618Z</time></trkpt><trkpt lat="44.0774326" lon="12.1817845"><ele>138.0</ele><time>2026-04-06T07:26:34.619Z</time></trkpt><trkpt lat="44.0774069" lon="12.1816705"><ele>138.0</ele><time>2026-04-06T07:26:35.618Z</time></trkpt><trkpt lat="44.0774057" lon="12.1815603"><ele>138.0</ele><time>2026-04-06T07:26:36.619Z</time></trkpt><trkpt lat="44.0774432" lon="12.1814529"><ele>139.6</ele><time>2026-04-06T07:26:37.618Z</time></trkpt><trkpt lat="44.0774919" lon="12.1813458"><ele>141.20000000000002</ele><time>2026-04-06T07:26:38.619Z</time></trkpt><trkpt lat="44.0775767" lon="12.1812376"><ele>142.8</ele><time>2026-04-06T07:26:39.619Z</time></trkpt><trkpt lat="44.0776611" lon="12.1811118"><ele>144.4</ele><time>2026-04-06T07:26:40.619Z</time></trkpt><trkpt lat="44.0777366" lon="12.1810015"><ele>146.0</ele><time>2026-04-06T07:26:41.618Z</time></trkpt><trkpt lat="44.0778213" lon="12.1809123"><ele>146.0</ele><time>2026-04-06T07:26:42.619Z</time></trkpt><trkpt lat="44.077916" lon="12.1808471"><ele>146.0</ele><time>2026-04-06T07:26:43.62Z</time></trkpt><trkpt lat="44.0780131" lon="12.1808155"><ele>146.0</ele><time>2026-04-06T07:26:44.619Z</time></trkpt><trkpt lat="44.0781122" lon="12.1808379"><ele>146.0</ele><time>2026-04-06T07:26:45.618Z</time></trkpt><trkpt lat="44.0782121" lon="12.1808941"><ele>146.0</ele><time>2026-04-06T07:26:46.619Z</time></trkpt><trkpt lat="44.0783257" lon="12.18097"><ele>147.5</ele><time>2026-04-06T07:26:47.618Z</time></trkpt><trkpt lat="44.0784554" lon="12.1810462"><ele>149.0</ele><time>2026-04-06T07:26:48.619Z</time></trkpt><trkpt lat="44.0785905" lon="12.1811194"><ele>150.5</ele><time>2026-04-06T07:26:49.618Z</time></trkpt><trkpt lat="44.078728" lon="12.1811823"><ele>152.0</ele><time>2026-04-06T07:26:50.619Z</time></trkpt><trkpt lat="44.0788746" lon="12.1812242"><ele>152.0</ele><time>2026-04-06T07:26:51.618Z</time></trkpt><trkpt lat="44.0790307" lon="12.1812347"><ele>152.0</ele><time>2026-04-06T07:26:52.619Z</time></trkpt><trkpt lat="44.0791737" lon="12.1812363"><ele>152.0</ele><time>2026-04-06T07:26:53.618Z</time></trkpt><trkpt lat="44.0793003" lon="12.1812166"><ele>152.0</ele><time>2026-04-06T07:26:54.618Z</time></trkpt><trkpt lat="44.0794136" lon="12.1811966"><ele>152.83333333333331</ele><time>2026-04-06T07:26:55.618Z</time></trkpt><trkpt lat="44.0794593" lon="12.1811344"><ele>153.66666666666666</ele><time>2026-04-06T07:26:56.619Z</time></trkpt><trkpt lat="44.0795088" lon="12.1810775"><ele>154.5</ele><time>2026-04-06T07:26:57.618Z</time></trkpt><trkpt lat="44.0794742" lon="12.1809351"><ele>155.33333333333334</ele><time>2026-04-06T07:26:59.619Z</time></trkpt><trkpt lat="44.0793898" lon="12.1808566"><ele>156.16666666666669</ele><time>2026-04-06T07:27:01.618Z</time></trkpt><trkpt lat="44.0793275" lon="12.1808712"><ele>157.0</ele><time>2026-04-06T07:27:02.619Z</time></trkpt><trkpt lat="44.0792639" lon="12.1808921"><ele>157.0</ele><time>2026-04-06T07:27:03.619Z</time></trkpt><trkpt lat="44.0791924" lon="12.1809265"><ele>157.0</ele><time>2026-04-06T07:27:04.618Z</time></trkpt><trkpt lat="44.0791156" lon="12.1809468"><ele>157.0</ele><time>2026-04-06T07:27:05.619Z</time></trkpt><trkpt lat="44.079033" lon="12.1809545"><ele>157.0</ele><time>2026-04-06T07:27:06.618Z</time></trkpt><trkpt lat="44.0789467" lon="12.1809386"><ele>157.0</ele><time>2026-04-06T07:27:07.618Z</time></trkpt><trkpt lat="44.078867" lon="12.1808983"><ele>157.0</ele><time>2026-04-06T07:27:08.618Z</time></trkpt><trkpt lat="44.078781" lon="12.1808359"><ele>155.75</ele><time>2026-04-06T07:27:09.619Z</time></trkpt><trkpt lat="44.0786998" lon="12.1807343"><ele>154.5</ele><time>2026-04-06T07:27:10.618Z</time></trkpt><trkpt lat="44.0786169" lon="12.1806198"><ele>153.25</ele><time>2026-04-06T07:27:11.618Z</time></trkpt><trkpt lat="44.0785608" lon="12.1804586"><ele>152.0</ele><time>2026-04-06T07:27:12.618Z</time></trkpt><trkpt lat="44.0785059" lon="12.180275"><ele>156.33333333333331</ele><time>2026-04-06T07:27:13.618Z</time></trkpt><trkpt lat="44.0784522" lon="12.1800747"><ele>160.66666666666666</ele><time>2026-04-06T07:27:14.618Z</time></trkpt><trkpt lat="44.0783979" lon="12.1798618"><ele>165.0</ele><time>2026-04-06T07:27:15.619Z</time></trkpt><trkpt lat="44.0783303" lon="12.1796185"><ele>164.33333333333334</ele><time>2026-04-06T07:27:16.618Z</time></trkpt><trkpt lat="44.0782662" lon="12.1793856"><ele>163.66666666666669</ele><time>2026-04-06T07:27:17.618Z</time></trkpt><trkpt lat="44.0782099" lon="12.179143"><ele>163.0</ele><time>2026-04-06T07:27:18.619Z</time></trkpt><trkpt lat="44.0781509" lon="12.1789039"><ele>165.0</ele><time>2026-04-06T07:27:19.619Z</time></trkpt><trkpt lat="44.0781035" lon="12.1786771"><ele>167.0</ele><time>2026-04-06T07:27:20.618Z</time></trkpt><trkpt lat="44.0780584" lon="12.178459"><ele>169.0</ele><time>2026-04-06T07:27:21.618Z</time></trkpt><trkpt lat="44.0780145" lon="12.1782622"><ele>170.5</ele><time>2026-04-06T07:27:22.619Z</time></trkpt><trkpt lat="44.0779776" lon="12.1780918"><ele>172.0</ele><time>2026-04-06T07:27:23.619Z</time></trkpt><trkpt lat="44.0779462" lon="12.1779173"><ele>173.5</ele><time>2026-04-06T07:27:24.619Z</time></trkpt><trkpt lat="44.0779496" lon="12.1777365"><ele>175.0</ele><time>2026-04-06T07:27:25.62Z</time></trkpt><trkpt lat="44.0779755" lon="12.1775456"><ele>178.25</ele><time>2026-04-06T07:27:26.618Z</time></trkpt><trkpt lat="44.0780165" lon="12.1773455"><ele>181.5</ele><time>2026-04-06T07:27:27.619Z</time></trkpt><trkpt lat="44.0780527" lon="12.1771523"><ele>184.75</ele><time>2026-04-06T07:27:28.618Z</time></trkpt><trkpt lat="44.0780868" lon="12.1769681"><ele>188.0</ele><time>2026-04-06T07:27:29.619Z</time></trkpt><trkpt lat="44.0780716" lon="12.1767913"><ele>188.0</ele><time>2026-04-06T07:27:30.619Z</time></trkpt><trkpt lat="44.0780397" lon="12.1766225"><ele>188.0</ele><time>2026-04-06T07:27:31.619Z</time></trkpt><trkpt lat="44.07798" lon="12.1764536"><ele>188.0</ele><time>2026-04-06T07:27:32.619Z</time></trkpt><trkpt lat="44.0779122" lon="12.1762787"><ele>188.0</ele><time>2026-04-06T07:27:33.619Z</time></trkpt><trkpt lat="44.0778333" lon="12.1761113"><ele>191.0</ele><time>2026-04-06T07:27:34.618Z</time></trkpt><trkpt lat="44.0777546" lon="12.1759718"><ele>194.0</ele><time>2026-04-06T07:27:35.619Z</time></trkpt><trkpt lat="44.0776683" lon="12.1758588"><ele>197.0</ele><time>2026-04-06T07:27:36.618Z</time></trkpt><trkpt lat="44.0775966" lon="12.1757835"><ele>200.0</ele><time>2026-04-06T07:27:37.618Z</time></trkpt><trkpt lat="44.0775418" lon="12.1757034"><ele>203.0</ele><time>2026-04-06T07:27:38.619Z</time></trkpt><trkpt lat="44.0775166" lon="12.1756208"><ele>203.0</ele><time>2026-04-06T07:27:39.618Z</time></trkpt><trkpt lat="44.0775653" lon="12.1755022"><ele>203.0</ele><time>2026-04-06T07:27:41.618Z</time></trkpt><trkpt lat="44.0776835" lon="12.1755356"><ele>203.0</ele><time>2026-04-06T07:27:43.619Z</time></trkpt><trkpt lat="44.0777444" lon="12.1756332"><ele>203.0</ele><time>2026-04-06T07:27:44.619Z</time></trkpt><trkpt lat="44.077815" lon="12.1757587"><ele>203.0</ele><time>2026-04-06T07:27:45.618Z</time></trkpt><trkpt lat="44.0779008" lon="12.1758901"><ele>203.0</ele><time>2026-04-06T07:27:46.618Z</time></trkpt><trkpt lat="44.0780023" lon="12.1760303"><ele>203.0</ele><time>2026-04-06T07:27:47.619Z</time></trkpt><trkpt lat="44.0781102" lon="12.1761462"><ele>203.0</ele><time>2026-04-06T07:27:48.618Z</time></trkpt><trkpt lat="44.0782231" lon="12.1762438"><ele>203.0</ele><time>2026-04-06T07:27:49.619Z</time></trkpt><trkpt lat="44.0783238" lon="12.1763242"><ele>205.8</ele><time>2026-04-06T07:27:50.619Z</time></trkpt><trkpt lat="44.0784158" lon="12.176368"><ele>208.60000000000002</ele><time>2026-04-06T07:27:51.619Z</time></trkpt><trkpt lat="44.0784971" lon="12.1763853"><ele>211.39999999999998</ele><time>2026-04-06T07:27:52.619Z</time></trkpt><trkpt lat="44.0786069" lon="12.1762955"><ele>214.2</ele><time>2026-04-06T07:27:54.619Z</time></trkpt><trkpt lat="44.0786656" lon="12.176242"><ele>217.0</ele><time>2026-04-06T07:27:55.619Z</time></trkpt><trkpt lat="44.0787276" lon="12.1761842"><ele>217.0</ele><time>2026-04-06T07:27:56.619Z</time></trkpt><trkpt lat="44.078812" lon="12.1761177"><ele>217.0</ele><time>2026-04-06T07:27:57.619Z</time></trkpt><trkpt lat="44.0789013" lon="12.1760485"><ele>217.0</ele><time>2026-04-06T07:27:58.618Z</time></trkpt><trkpt lat="44.0789927" lon="12.1759633"><ele>217.0</ele><time>2026-04-06T07:27:59.618Z</time></trkpt><trkpt lat="44.0790765" lon="12.1758856"><ele>217.0</ele><time>2026-04-06T07:28:00.618Z</time></trkpt><trkpt lat="44.0791588" lon="12.1757989"><ele>221.0</ele><time>2026-04-06T07:28:01.619Z</time></trkpt><trkpt lat="44.0792375" lon="12.1756849"><ele>225.0</ele><time>2026-04-06T07:28:02.619Z</time></trkpt><trkpt lat="44.079312" lon="12.1755559"><ele>229.0</ele><time>2026-04-06T07:28:03.619Z</time></trkpt><trkpt lat="44.0793808" lon="12.1754292"><ele>233.0</ele><time>2026-04-06T07:28:04.619Z</time></trkpt><trkpt lat="44.0794389" lon="12.1753078"><ele>233.0</ele><time>2026-04-06T07:28:05.618Z</time></trkpt><trkpt lat="44.0794911" lon="12.1751851"><ele>233.0</ele><time>2026-04-06T07:28:06.619Z</time></trkpt><trkpt lat="44.07952" lon="12.1750635"><ele>233.0</ele><time>2026-04-06T07:28:07.618Z</time></trkpt><trkpt lat="44.0795178" lon="12.1749026"><ele>233.0</ele><time>2026-04-06T07:28:08.619Z</time></trkpt><trkpt lat="44.0794849" lon="12.1747435"><ele>233.0</ele><time>2026-04-06T07:28:09.618Z</time></trkpt><trkpt lat="44.0794068" lon="12.1745588"><ele>233.75</ele><time>2026-04-06T07:28:10.618Z</time></trkpt><trkpt lat="44.0793417" lon="12.1743798"><ele>234.5</ele><time>2026-04-06T07:28:11.618Z</time></trkpt><trkpt lat="44.0792696" lon="12.1742029"><ele>235.25</ele><time>2026-04-06T07:28:12.619Z</time></trkpt><trkpt lat="44.0791959" lon="12.1740066"><ele>236.0</ele><time>2026-04-06T07:28:13.618Z</time></trkpt><trkpt lat="44.0791183" lon="12.1738036"><ele>240.33333333333334</ele><time>2026-04-06T07:28:14.618Z</time></trkpt><trkpt lat="44.0790079" lon="12.1736355"><ele>244.66666666666669</ele><time>2026-04-06T07:28:15.618Z</time></trkpt><trkpt lat="44.0788919" lon="12.1734782"><ele>249.0</ele><time>2026-04-06T07:28:16.619Z</time></trkpt><trkpt lat="44.0787605" lon="12.1733261"><ele>247.66666666666669</ele><time>2026-04-06T07:28:17.618Z</time></trkpt><trkpt lat="44.078641" lon="12.1731611"><ele>246.33333333333334</ele><time>2026-04-06T07:28:18.618Z</time></trkpt><trkpt lat="44.0785449" lon="12.1730023"><ele>245.0</ele><time>2026-04-06T07:28:19.618Z</time></trkpt><trkpt lat="44.0784778" lon="12.1728376"><ele>245.0</ele><time>2026-04-06T07:28:20.618Z</time></trkpt><trkpt lat="44.0784349" lon="12.1726705"><ele>245.0</ele><time>2026-04-06T07:28:21.618Z</time></trkpt><trkpt lat="44.0784076" lon="12.1724991"><ele>245.0</ele><time>2026-04-06T07:28:22.619Z</time></trkpt><trkpt lat="44.0783781" lon="12.1723284"><ele>245.0</ele><time>2026-04-06T07:28:23.619Z</time></trkpt><trkpt lat="44.0783517" lon="12.1721758"><ele>244.25</ele><time>2026-04-06T07:28:24.619Z</time></trkpt><trkpt lat="44.0783255" lon="12.1720415"><ele>243.5</ele><time>2026-04-06T07:28:25.618Z</time></trkpt><trkpt lat="44.0782642" lon="12.1719214"><ele>242.75</ele><time>2026-04-06T07:28:26.619Z</time></trkpt><trkpt lat="44.078185" lon="12.1718045"><ele>242.0</ele><time>2026-04-06T07:28:27.618Z</time></trkpt><trkpt lat="44.0780845" lon="12.171689"><ele>242.0</ele><time>2026-04-06T07:28:28.619Z</time></trkpt><trkpt lat="44.0779783" lon="12.1715719"><ele>242.0</ele><time>2026-04-06T07:28:29.619Z</time></trkpt><trkpt lat="44.0778718" lon="12.1714568"><ele>242.0</ele><time>2026-04-06T07:28:30.619Z</time></trkpt><trkpt lat="44.077771" lon="12.1713364"><ele>242.0</ele><time>2026-04-06T07:28:31.618Z</time></trkpt><trkpt lat="44.0776659" lon="12.1712196"><ele>243.25</ele><time>2026-04-06T07:28:32.619Z</time></trkpt><trkpt lat="44.0775534" lon="12.171102"><ele>244.5</ele><time>2026-04-06T07:28:33.618Z</time></trkpt><trkpt lat="44.0774369" lon="12.1709799"><ele>245.75</ele><time>2026-04-06T07:28:34.618Z</time></trkpt><trkpt lat="44.0773218" lon="12.170847"><ele>247.0</ele><time>2026-04-06T07:28:35.619Z</time></trkpt><trkpt lat="44.077211" lon="12.1707198"><ele>250.6</ele><time>2026-04-06T07:28:36.619Z</time></trkpt><trkpt lat="44.0771161" lon="12.170613"><ele>254.2</ele><time>2026-04-06T07:28:37.619Z</time></trkpt><trkpt lat="44.0770305" lon="12.170532"><ele>257.8</ele><time>2026-04-06T07:28:38.618Z</time></trkpt><trkpt lat="44.0769558" lon="12.1704664"><ele>261.4</ele><time>2026-04-06T07:28:39.618Z</time></trkpt><trkpt lat="44.0768798" lon="12.1704059"><ele>265.0</ele><time>2026-04-06T07:28:40.618Z</time></trkpt><trkpt lat="44.0767903" lon="12.1703689"><ele>265.0</ele><time>2026-04-06T07:28:41.619Z</time></trkpt><trkpt lat="44.0767057" lon="12.1703191"><ele>265.0</ele><time>2026-04-06T07:28:42.618Z</time></trkpt><trkpt lat="44.0766374" lon="12.1702747"><ele>265.0</ele><time>2026-04-06T07:28:43.618Z</time></trkpt><trkpt lat="44.0765745" lon="12.1702296"><ele>265.0</ele><time>2026-04-06T07:28:44.618Z</time></trkpt><trkpt lat="44.076498" lon="12.170127"><ele>265.0</ele><time>2026-04-06T07:28:46.618Z</time></trkpt><trkpt lat="44.0764264" lon="12.1700007"><ele>262.2857142857143</ele><time>2026-04-06T07:28:48.619Z</time></trkpt><trkpt lat="44.0763999" lon="12.1699186"><ele>259.57142857142856</ele><time>2026-04-06T07:28:49.619Z</time></trkpt><trkpt lat="44.0763816" lon="12.1698318"><ele>256.8571428571429</ele><time>2026-04-06T07:28:50.618Z</time></trkpt><trkpt lat="44.0763727" lon="12.1697297"><ele>254.14285714285714</ele><time>2026-04-06T07:28:51.618Z</time></trkpt><trkpt lat="44.0763636" lon="12.1696291"><ele>251.42857142857144</ele><time>2026-04-06T07:28:52.618Z</time></trkpt><trkpt lat="44.0763698" lon="12.1695191"><ele>248.71428571428575</ele><time>2026-04-06T07:28:53.619Z</time></trkpt><trkpt lat="44.0763802" lon="12.1693971"><ele>246.00000000000003</ele><time>2026-04-06T07:28:54.619Z</time></trkpt><trkpt lat="44.0763873" lon="12.169279"><ele>246.0</ele><time>2026-04-06T07:28:55.619Z</time></trkpt><trkpt lat="44.0763988" lon="12.1691568"><ele>246.0</ele><time>2026-04-06T07:28:56.618Z</time></trkpt><trkpt lat="44.0764048" lon="12.1690443"><ele>246.0</ele><time>2026-04-06T07:28:57.618Z</time></trkpt><trkpt lat="44.0764169" lon="12.1689345"><ele>246.0</ele><time>2026-04-06T07:28:58.618Z</time></trkpt><trkpt lat="44.0764345" lon="12.1688243"><ele>246.0</ele><time>2026-04-06T07:28:59.619Z</time></trkpt><trkpt lat="44.0764632" lon="12.168719"><ele>246.0</ele><time>2026-04-06T07:29:00.619Z</time></trkpt><trkpt lat="44.0764997" lon="12.1686265"><ele>245.4</ele><time>2026-04-06T07:29:01.618Z</time></trkpt><trkpt lat="44.0765619" lon="12.1685343"><ele>244.8</ele><time>2026-04-06T07:29:02.619Z</time></trkpt><trkpt lat="44.0766419" lon="12.1684479"><ele>244.20000000000002</ele><time>2026-04-06T07:29:03.618Z</time></trkpt><trkpt lat="44.0767252" lon="12.1683608"><ele>243.60000000000002</ele><time>2026-04-06T07:29:04.618Z</time></trkpt><trkpt lat="44.0768243" lon="12.1682828"><ele>243.0</ele><time>2026-04-06T07:29:05.618Z</time></trkpt><trkpt lat="44.0769174" lon="12.1682023"><ele>246.4</ele><time>2026-04-06T07:29:06.619Z</time></trkpt><trkpt lat="44.0770007" lon="12.1681329"><ele>249.8</ele><time>2026-04-06T07:29:07.618Z</time></trkpt><trkpt lat="44.0770819" lon="12.1680705"><ele>253.2</ele><time>2026-04-06T07:29:08.618Z</time></trkpt><trkpt lat="44.0771676" lon="12.1679911"><ele>256.6</ele><time>2026-04-06T07:29:09.618Z</time></trkpt><trkpt lat="44.077242" lon="12.1679087"><ele>260.0</ele><time>2026-04-06T07:29:10.618Z</time></trkpt><trkpt lat="44.0773154" lon="12.1678165"><ele>260.0</ele><time>2026-04-06T07:29:11.618Z</time></trkpt><trkpt lat="44.0773814" lon="12.167729"><ele>260.0</ele><time>2026-04-06T07:29:12.619Z</time></trkpt><trkpt lat="44.0774406" lon="12.1676479"><ele>260.0</ele><time>2026-04-06T07:29:13.618Z</time></trkpt><trkpt lat="44.0774873" lon="12.1675691"><ele>260.0</ele><time>2026-04-06T07:29:14.618Z</time></trkpt><trkpt lat="44.0775247" lon="12.1674944"><ele>260.0</ele><time>2026-04-06T07:29:15.618Z</time></trkpt><trkpt lat="44.0775557" lon="12.1673384"><ele>260.0</ele><time>2026-04-06T07:29:17.619Z</time></trkpt><trkpt lat="44.0775566" lon="12.1672499"><ele>261.83333333333337</ele><time>2026-04-06T07:29:18.618Z</time></trkpt><trkpt lat="44.0775497" lon="12.1671557"><ele>263.6666666666667</ele><time>2026-04-06T07:29:19.618Z</time></trkpt><trkpt lat="44.0775389" lon="12.1670475"><ele>265.5</ele><time>2026-04-06T07:29:20.618Z</time></trkpt><trkpt lat="44.0775218" lon="12.1669213"><ele>267.3333333333333</ele><time>2026-04-06T07:29:21.618Z</time></trkpt><trkpt lat="44.0775057" lon="12.1668055"><ele>269.16666666666663</ele><time>2026-04-06T07:29:22.619Z</time></trkpt><trkpt lat="44.0774878" lon="12.1666983"><ele>271.0</ele><time>2026-04-06T07:29:23.618Z</time></trkpt><trkpt lat="44.0774697" lon="12.1665972"><ele>271.3333333333333</ele><time>2026-04-06T07:29:24.619Z</time></trkpt><trkpt lat="44.0774542" lon="12.1664926"><ele>271.66666666666663</ele><time>2026-04-06T07:29:25.618Z</time></trkpt><trkpt lat="44.0774407" lon="12.1664022"><ele>272.0</ele><time>2026-04-06T07:29:26.618Z</time></trkpt><trkpt lat="44.0774183" lon="12.1662539"><ele>272.3333333333333</ele><time>2026-04-06T07:29:28.618Z</time></trkpt><trkpt lat="44.0774072" lon="12.1661406"><ele>272.6666666666667</ele><time>2026-04-06T07:29:30.618Z</time></trkpt><trkpt lat="44.0773995" lon="12.1660374"><ele>273.0</ele><time>2026-04-06T07:29:33.618Z</time></trkpt><trkpt lat="44.0773912" lon="12.1659505"><ele>273.0</ele><time>2026-04-06T07:30:47.618Z</time></trkpt><trkpt lat="44.0773682" lon="12.1658137"><ele>273.0</ele><time>2026-04-06T07:30:49.618Z</time></trkpt><trkpt lat="44.0773644" lon="12.1656575"><ele>273.0</ele><time>2026-04-06T07:30:51.618Z</time></trkpt><trkpt lat="44.0773516" lon="12.1654929"><ele>273.0</ele><time>2026-04-06T07:30:53.618Z</time></trkpt><trkpt lat="44.077344" lon="12.1653921"><ele>273.0</ele><time>2026-04-06T07:30:54.619Z</time></trkpt><trkpt lat="44.0773417" lon="12.1652948"><ele>275.5</ele><time>2026-04-06T07:30:55.618Z</time></trkpt><trkpt lat="44.07734" lon="12.1651906"><ele>278.0</ele><time>2026-04-06T07:30:56.618Z</time></trkpt><trkpt lat="44.0773367" lon="12.1650838"><ele>280.5</ele><time>2026-04-06T07:30:57.618Z</time></trkpt><trkpt lat="44.0773286" lon="12.1649703"><ele>283.0</ele><time>2026-04-06T07:30:58.618Z</time></trkpt><trkpt lat="44.0773192" lon="12.164854"><ele>285.5</ele><time>2026-04-06T07:30:59.618Z</time></trkpt><trkpt lat="44.0773111" lon="12.1647372"><ele>288.0</ele><time>2026-04-06T07:31:00.618Z</time></trkpt><trkpt lat="44.077305" lon="12.1646089"><ele>289.2</ele><time>2026-04-06T07:31:01.618Z</time></trkpt><trkpt lat="44.0773017" lon="12.1644821"><ele>290.4</ele><time>2026-04-06T07:31:02.618Z</time></trkpt><trkpt lat="44.0772882" lon="12.1643569"><ele>291.59999999999997</ele><time>2026-04-06T07:31:03.619Z</time></trkpt><trkpt lat="44.0772652" lon="12.164227"><ele>292.8</ele><time>2026-04-06T07:31:04.618Z</time></trkpt><trkpt lat="44.0772349" lon="12.1640866"><ele>294.0</ele><time>2026-04-06T07:31:05.618Z</time></trkpt><trkpt lat="44.0772077" lon="12.1639391"><ele>294.59999999999997</ele><time>2026-04-06T07:31:06.618Z</time></trkpt><trkpt lat="44.0771747" lon="12.1637902"><ele>295.2</ele><time>2026-04-06T07:31:07.618Z</time></trkpt><trkpt lat="44.0771416" lon="12.1636446"><ele>295.79999999999995</ele><time>2026-04-06T07:31:08.619Z</time></trkpt><trkpt lat="44.0771076" lon="12.1634968"><ele>296.4</ele><time>2026-04-06T07:31:09.618Z</time></trkpt><trkpt lat="44.0770797" lon="12.1633421"><ele>297.0</ele><time>2026-04-06T07:31:10.618Z</time></trkpt><trkpt lat="44.0770484" lon="12.1631716"><ele>300.3333333333333</ele><time>2026-04-06T07:31:11.618Z</time></trkpt><trkpt lat="44.0770294" lon="12.1629809"><ele>303.66666666666663</ele><time>2026-04-06T07:31:12.618Z</time></trkpt><trkpt lat="44.077022" lon="12.1627707"><ele>307.0</ele><time>2026-04-06T07:31:13.618Z</time></trkpt><trkpt lat="44.0770259" lon="12.1625461"><ele>311.0</ele><time>2026-04-06T07:31:14.617Z</time></trkpt><trkpt lat="44.0770417" lon="12.1623152"><ele>315.0</ele><time>2026-04-06T07:31:15.618Z</time></trkpt><trkpt lat="44.077061" lon="12.1620762"><ele>319.0</ele><time>2026-04-06T07:31:16.618Z</time></trkpt><trkpt lat="44.0770842" lon="12.1618405"><ele>319.0</ele><time>2026-04-06T07:31:17.618Z</time></trkpt><trkpt lat="44.0771084" lon="12.1616079"><ele>319.0</ele><time>2026-04-06T07:31:18.618Z</time></trkpt><trkpt lat="44.0771287" lon="12.1613855"><ele>319.0</ele><time>2026-04-06T07:31:19.618Z</time></trkpt><trkpt lat="44.0771468" lon="12.161171"><ele>319.5</ele><time>2026-04-06T07:31:20.619Z</time></trkpt><trkpt lat="44.0771607" lon="12.1609655"><ele>320.0</ele><time>2026-04-06T07:31:21.618Z</time></trkpt><trkpt lat="44.0771678" lon="12.1607773"><ele>320.5</ele><time>2026-04-06T07:31:22.618Z</time></trkpt><trkpt lat="44.0771818" lon="12.16059"><ele>321.0</ele><time>2026-04-06T07:31:23.618Z</time></trkpt><trkpt lat="44.0772075" lon="12.16042"><ele>319.3333333333333</ele><time>2026-04-06T07:31:24.618Z</time></trkpt><trkpt lat="44.0772804" lon="12.1602374"><ele>317.66666666666663</ele><time>2026-04-06T07:31:25.618Z</time></trkpt><trkpt lat="44.0773537" lon="12.1600468"><ele>316.0</ele><time>2026-04-06T07:31:26.618Z</time></trkpt><trkpt lat="44.0774356" lon="12.1598328"><ele>311.0</ele><time>2026-04-06T07:31:27.618Z</time></trkpt><trkpt lat="44.0774994" lon="12.1596294"><ele>306.0</ele><time>2026-04-06T07:31:28.618Z</time></trkpt><trkpt lat="44.0775615" lon="12.1594419"><ele>301.0</ele><time>2026-04-06T07:31:29.618Z</time></trkpt><trkpt lat="44.0776256" lon="12.1592632"><ele>301.0</ele><time>2026-04-06T07:31:30.618Z</time></trkpt><trkpt lat="44.0777148" lon="12.159131"><ele>301.0</ele><time>2026-04-06T07:31:31.618Z</time></trkpt><trkpt lat="44.077786" lon="12.158993"><ele>301.0</ele><time>2026-04-06T07:31:32.618Z</time></trkpt><trkpt lat="44.0778357" lon="12.1588376"><ele>301.0</ele><time>2026-04-06T07:31:33.618Z</time></trkpt><trkpt lat="44.0778864" lon="12.1586911"><ele>299.8</ele><time>2026-04-06T07:31:34.618Z</time></trkpt><trkpt lat="44.0779097" lon="12.1585519"><ele>298.6</ele><time>2026-04-06T07:31:35.618Z</time></trkpt><trkpt lat="44.0779074" lon="12.1584189"><ele>297.4</ele><time>2026-04-06T07:31:36.618Z</time></trkpt><trkpt lat="44.07785" lon="12.1583071"><ele>296.2</ele><time>2026-04-06T07:31:37.618Z</time></trkpt><trkpt lat="44.0777998" lon="12.1582083"><ele>295.0</ele><time>2026-04-06T07:31:38.618Z</time></trkpt><trkpt lat="44.0777342" lon="12.1581113"><ele>292.5</ele><time>2026-04-06T07:31:39.618Z</time></trkpt><trkpt lat="44.0776477" lon="12.1580191"><ele>290.0</ele><time>2026-04-06T07:31:40.618Z</time></trkpt><trkpt lat="44.0775409" lon="12.1579404"><ele>287.5</ele><time>2026-04-06T07:31:41.619Z</time></trkpt><trkpt lat="44.0774377" lon="12.1578656"><ele>285.0</ele><time>2026-04-06T07:31:42.619Z</time></trkpt><trkpt lat="44.0773473" lon="12.1577867"><ele>285.0</ele><time>2026-04-06T07:31:43.618Z</time></trkpt><trkpt lat="44.0773061" lon="12.1576946"><ele>285.0</ele><time>2026-04-06T07:31:44.617Z</time></trkpt><trkpt lat="44.0772593" lon="12.1576061"><ele>285.0</ele><time>2026-04-06T07:31:45.618Z</time></trkpt><trkpt lat="44.0772196" lon="12.1575236"><ele>285.0</ele><time>2026-04-06T07:31:46.618Z</time></trkpt><trkpt lat="44.0771805" lon="12.1574465"><ele>285.0</ele><time>2026-04-06T07:31:47.619Z</time></trkpt><trkpt lat="44.0771345" lon="12.1573847"><ele>285.0</ele><time>2026-04-06T07:31:48.618Z</time></trkpt><trkpt lat="44.0770529" lon="12.1572841"><ele>284.8333333333333</ele><time>2026-04-06T07:31:50.618Z</time></trkpt><trkpt lat="44.0770107" lon="12.1572005"><ele>284.6666666666667</ele><time>2026-04-06T07:31:52.618Z</time></trkpt><trkpt lat="44.0770168" lon="12.1570762"><ele>284.5</ele><time>2026-04-06T07:31:54.618Z</time></trkpt><trkpt lat="44.0770243" lon="12.1569849"><ele>284.33333333333337</ele><time>2026-04-06T07:31:55.618Z</time></trkpt><trkpt lat="44.0770332" lon="12.1568926"><ele>284.1666666666667</ele><time>2026-04-06T07:31:56.619Z</time></trkpt><trkpt lat="44.0770465" lon="12.1567844"><ele>284.0</ele><time>2026-04-06T07:31:57.618Z</time></trkpt><trkpt lat="44.0770564" lon="12.1566762"><ele>284.0</ele><time>2026-04-06T07:31:58.618Z</time></trkpt><trkpt lat="44.0770545" lon="12.1565536"><ele>284.0</ele><time>2026-04-06T07:31:59.618Z</time></trkpt><trkpt lat="44.0770522" lon="12.1564306"><ele>284.0</ele><time>2026-04-06T07:32:00.618Z</time></trkpt><trkpt lat="44.0770504" lon="12.1563015"><ele>284.0</ele><time>2026-04-06T07:32:01.618Z</time></trkpt><trkpt lat="44.0770513" lon="12.1561769"><ele>284.0</ele><time>2026-04-06T07:32:02.618Z</time></trkpt><trkpt lat="44.0770503" lon="12.1560662"><ele>284.0</ele><time>2026-04-06T07:32:03.619Z</time></trkpt><trkpt lat="44.0770484" lon="12.1559653"><ele>283.0</ele><time>2026-04-06T07:32:04.618Z</time></trkpt><trkpt lat="44.0770454" lon="12.1558688"><ele>282.0</ele><time>2026-04-06T07:32:05.619Z</time></trkpt><trkpt lat="44.077042" lon="12.1557761"><ele>281.0</ele><time>2026-04-06T07:32:06.618Z</time></trkpt><trkpt lat="44.0770481" lon="12.1556797"><ele>280.0</ele><time>2026-04-06T07:32:07.619Z</time></trkpt><trkpt lat="44.0770522" lon="12.1555832"><ele>279.0</ele><time>2026-04-06T07:32:08.618Z</time></trkpt><trkpt lat="44.0770553" lon="12.1554802"><ele>278.0</ele><time>2026-04-06T07:32:09.619Z</time></trkpt><trkpt lat="44.0770675" lon="12.1553885"><ele>277.0</ele><time>2026-04-06T07:32:10.619Z</time></trkpt><trkpt lat="44.0770688" lon="12.1552485"><ele>277.16666666666663</ele><time>2026-04-06T07:32:12.618Z</time></trkpt><trkpt lat="44.0770805" lon="12.1551618"><ele>277.3333333333333</ele><time>2026-04-06T07:32:14.618Z</time></trkpt><trkpt lat="44.0770683" lon="12.1550133"><ele>277.5</ele><time>2026-04-06T07:32:17.618Z</time></trkpt><trkpt lat="44.0770721" lon="12.1548924"><ele>277.6666666666667</ele><time>2026-04-06T07:32:19.618Z</time></trkpt><trkpt lat="44.0770702" lon="12.1548046"><ele>277.83333333333337</ele><time>2026-04-06T07:32:20.618Z</time></trkpt><trkpt lat="44.077071" lon="12.1547105"><ele>278.0</ele><time>2026-04-06T07:32:21.619Z</time></trkpt><trkpt lat="44.0770685" lon="12.1546001"><ele>278.0</ele><time>2026-04-06T07:32:22.618Z</time></trkpt><trkpt lat="44.0770602" lon="12.1544825"><ele>278.0</ele><time>2026-04-06T07:32:23.619Z</time></trkpt><trkpt lat="44.0770507" lon="12.1543621"><ele>278.0</ele><time>2026-04-06T07:32:24.618Z</time></trkpt><trkpt lat="44.0770368" lon="12.1542382"><ele>278.0</ele><time>2026-04-06T07:32:25.618Z</time></trkpt><trkpt lat="44.0770157" lon="12.1541023"><ele>278.0</ele><time>2026-04-06T07:32:26.618Z</time></trkpt><trkpt lat="44.0769831" lon="12.1539692"><ele>277.8</ele><time>2026-04-06T07:32:27.618Z</time></trkpt><trkpt lat="44.0769469" lon="12.1538246"><ele>277.6</ele><time>2026-04-06T07:32:28.618Z</time></trkpt><trkpt lat="44.076903" lon="12.1536871"><ele>277.4</ele><time>2026-04-06T07:32:29.618Z</time></trkpt><trkpt lat="44.076855" lon="12.1535438"><ele>277.2</ele><time>2026-04-06T07:32:30.618Z</time></trkpt><trkpt lat="44.0768144" lon="12.1534132"><ele>277.0</ele><time>2026-04-06T07:32:31.618Z</time></trkpt><trkpt lat="44.0767767" lon="12.1532832"><ele>276.2</ele><time>2026-04-06T07:32:32.619Z</time></trkpt><trkpt lat="44.0767583" lon="12.1531572"><ele>275.4</ele><time>2026-04-06T07:32:33.618Z</time></trkpt><trkpt lat="44.0767534" lon="12.1530215"><ele>274.6</ele><time>2026-04-06T07:32:34.618Z</time></trkpt><trkpt lat="44.0767596" lon="12.1528745"><ele>273.8</ele><time>2026-04-06T07:32:35.618Z</time></trkpt><trkpt lat="44.0767687" lon="12.1527259"><ele>273.0</ele><time>2026-04-06T07:32:36.618Z</time></trkpt><trkpt lat="44.0767809" lon="12.1525866"><ele>273.0</ele><time>2026-04-06T07:32:37.618Z</time></trkpt><trkpt lat="44.0767944" lon="12.1524528"><ele>273.0</ele><time>2026-04-06T07:32:38.618Z</time></trkpt><trkpt lat="44.0768062" lon="12.1523264"><ele>273.0</ele><time>2026-04-06T07:32:39.619Z</time></trkpt><trkpt lat="44.0768167" lon="12.1521952"><ele>273.0</ele><time>2026-04-06T07:32:40.618Z</time></trkpt><trkpt lat="44.076812" lon="12.1520548"><ele>273.0</ele><time>2026-04-06T07:32:41.618Z</time></trkpt><trkpt lat="44.0767904" lon="12.1519218"><ele>272.6</ele><time>2026-04-06T07:32:42.618Z</time></trkpt><trkpt lat="44.0767519" lon="12.1517941"><ele>272.20000000000005</ele><time>2026-04-06T07:32:43.618Z</time></trkpt><trkpt lat="44.0767057" lon="12.1516673"><ele>271.8</ele><time>2026-04-06T07:32:44.618Z</time></trkpt><trkpt lat="44.076655" lon="12.151549"><ele>271.40000000000003</ele><time>2026-04-06T07:32:45.618Z</time></trkpt><trkpt lat="44.0765911" lon="12.1514295"><ele>271.0</ele><time>2026-04-06T07:32:46.618Z</time></trkpt><trkpt lat="44.0765213" lon="12.1513137"><ele>271.0</ele><time>2026-04-06T07:32:47.618Z</time></trkpt><trkpt lat="44.076453" lon="12.1511979"><ele>271.0</ele><time>2026-04-06T07:32:48.618Z</time></trkpt><trkpt lat="44.0763808" lon="12.1510788"><ele>271.0</ele><time>2026-04-06T07:32:49.619Z</time></trkpt><trkpt lat="44.0763147" lon="12.1509723"><ele>271.0</ele><time>2026-04-06T07:32:50.618Z</time></trkpt><trkpt lat="44.0762533" lon="12.1508763"><ele>271.0</ele><time>2026-04-06T07:32:51.618Z</time></trkpt><trkpt lat="44.0761964" lon="12.1507943"><ele>271.0</ele><time>2026-04-06T07:32:52.618Z</time></trkpt><trkpt lat="44.0761346" lon="12.1507116"><ele>271.0</ele><time>2026-04-06T07:32:53.618Z</time></trkpt><trkpt lat="44.0760643" lon="12.1506192"><ele>271.0</ele><time>2026-04-06T07:32:54.618Z</time></trkpt><trkpt lat="44.0759876" lon="12.1505268"><ele>271.0</ele><time>2026-04-06T07:32:55.618Z</time></trkpt><trkpt lat="44.0759026" lon="12.1504347"><ele>271.0</ele><time>2026-04-06T07:32:56.618Z</time></trkpt><trkpt lat="44.0758071" lon="12.1503457"><ele>276.25</ele><time>2026-04-06T07:32:57.619Z</time></trkpt><trkpt lat="44.0757012" lon="12.1502675"><ele>281.5</ele><time>2026-04-06T07:32:58.618Z</time></trkpt><trkpt lat="44.0755939" lon="12.1501948"><ele>286.75</ele><time>2026-04-06T07:32:59.619Z</time></trkpt><trkpt lat="44.0754871" lon="12.1501291"><ele>292.0</ele><time>2026-04-06T07:33:00.618Z</time></trkpt><trkpt lat="44.0753679" lon="12.1500753"><ele>292.0</ele><time>2026-04-06T07:33:01.618Z</time></trkpt><trkpt lat="44.0752448" lon="12.1500193"><ele>292.0</ele><time>2026-04-06T07:33:02.618Z</time></trkpt><trkpt lat="44.0751237" lon="12.1499437"><ele>292.0</ele><time>2026-04-06T07:33:03.618Z</time></trkpt><trkpt lat="44.0749953" lon="12.1498586"><ele>292.0</ele><time>2026-04-06T07:33:04.618Z</time></trkpt><trkpt lat="44.0748611" lon="12.1497689"><ele>292.0</ele><time>2026-04-06T07:33:05.618Z</time></trkpt><trkpt lat="44.0747249" lon="12.1496758"><ele>292.0</ele><time>2026-04-06T07:33:06.618Z</time></trkpt><trkpt lat="44.0746114" lon="12.1495942"><ele>292.0</ele><time>2026-04-06T07:33:07.618Z</time></trkpt><trkpt lat="44.0745107" lon="12.1495189"><ele>292.0</ele><time>2026-04-06T07:33:08.618Z</time></trkpt><trkpt lat="44.074435" lon="12.1494419"><ele>292.0</ele><time>2026-04-06T07:33:09.619Z</time></trkpt><trkpt lat="44.0743848" lon="12.1493657"><ele>292.0</ele><time>2026-04-06T07:33:10.618Z</time></trkpt><trkpt lat="44.0743521" lon="12.1492278"><ele>292.0</ele><time>2026-04-06T07:33:12.618Z</time></trkpt><trkpt lat="44.0743615" lon="12.1491341"><ele>292.0</ele><time>2026-04-06T07:33:13.618Z</time></trkpt><trkpt lat="44.0743767" lon="12.1490204"><ele>292.0</ele><time>2026-04-06T07:33:14.618Z</time></trkpt><trkpt lat="44.0743865" lon="12.1488898"><ele>292.0</ele><time>2026-04-06T07:33:15.618Z</time></trkpt><trkpt lat="44.0743718" lon="12.1487373"><ele>293.0</ele><time>2026-04-06T07:33:16.618Z</time></trkpt><trkpt lat="44.0743376" lon="12.1485962"><ele>294.0</ele><time>2026-04-06T07:33:17.618Z</time></trkpt><trkpt lat="44.0742761" lon="12.148466"><ele>295.0</ele><time>2026-04-06T07:33:18.618Z</time></trkpt><trkpt lat="44.0742014" lon="12.148352"><ele>296.0</ele><time>2026-04-06T07:33:19.618Z</time></trkpt><trkpt lat="44.074128" lon="12.1482481"><ele>297.0</ele><time>2026-04-06T07:33:20.618Z</time></trkpt><trkpt lat="44.0740621" lon="12.1481382"><ele>293.75</ele><time>2026-04-06T07:33:21.619Z</time></trkpt><trkpt lat="44.0740153" lon="12.1480179"><ele>290.5</ele><time>2026-04-06T07:33:22.618Z</time></trkpt><trkpt lat="44.0739782" lon="12.1478818"><ele>287.25</ele><time>2026-04-06T07:33:23.618Z</time></trkpt><trkpt lat="44.0739471" lon="12.1477254"><ele>284.0</ele><time>2026-04-06T07:33:24.618Z</time></trkpt><trkpt lat="44.0739068" lon="12.1475525"><ele>284.0</ele><time>2026-04-06T07:33:25.618Z</time></trkpt><trkpt lat="44.0738435" lon="12.1473806"><ele>284.0</ele><time>2026-04-06T07:33:26.618Z</time></trkpt><trkpt lat="44.0737792" lon="12.1472188"><ele>284.0</ele><time>2026-04-06T07:33:27.619Z</time></trkpt><trkpt lat="44.073713" lon="12.1470655"><ele>284.0</ele><time>2026-04-06T07:33:28.618Z</time></trkpt><trkpt lat="44.0736489" lon="12.1469082"><ele>285.0</ele><time>2026-04-06T07:33:29.619Z</time></trkpt><trkpt lat="44.0736011" lon="12.1467502"><ele>286.0</ele><time>2026-04-06T07:33:30.618Z</time></trkpt><trkpt lat="44.0735725" lon="12.1465888"><ele>287.0</ele><time>2026-04-06T07:33:31.618Z</time></trkpt><trkpt lat="44.0735619" lon="12.1464209"><ele>288.0</ele><time>2026-04-06T07:33:32.618Z</time></trkpt><trkpt lat="44.0735574" lon="12.1462638"><ele>288.0</ele><time>2026-04-06T07:33:33.618Z</time></trkpt><trkpt lat="44.0735462" lon="12.146116"><ele>288.0</ele><time>2026-04-06T07:33:34.618Z</time></trkpt><trkpt lat="44.0735398" lon="12.1459729"><ele>288.0</ele><time>2026-04-06T07:33:35.618Z</time></trkpt><trkpt lat="44.0735142" lon="12.1458271"><ele>288.0</ele><time>2026-04-06T07:33:36.617Z</time></trkpt><trkpt lat="44.073472" lon="12.1456717"><ele>288.0</ele><time>2026-04-06T07:33:37.618Z</time></trkpt><trkpt lat="44.0734423" lon="12.1455197"><ele>287.8</ele><time>2026-04-06T07:33:38.618Z</time></trkpt><trkpt lat="44.0734275" lon="12.145365"><ele>287.6</ele><time>2026-04-06T07:33:39.618Z</time></trkpt><trkpt lat="44.0734204" lon="12.1452116"><ele>287.4</ele><time>2026-04-06T07:33:40.619Z</time></trkpt><trkpt lat="44.0734367" lon="12.145075"><ele>287.2</ele><time>2026-04-06T07:33:41.618Z</time></trkpt><trkpt lat="44.0734438" lon="12.1449485"><ele>287.0</ele><time>2026-04-06T07:33:42.618Z</time></trkpt><trkpt lat="44.0734467" lon="12.1448335"><ele>287.0</ele><time>2026-04-06T07:33:43.618Z</time></trkpt><trkpt lat="44.0734267" lon="12.1447197"><ele>287.0</ele><time>2026-04-06T07:33:44.618Z</time></trkpt><trkpt lat="44.0733923" lon="12.1445933"><ele>287.0</ele><time>2026-04-06T07:33:45.618Z</time></trkpt><trkpt lat="44.073341" lon="12.144458"><ele>287.0</ele><time>2026-04-06T07:33:46.618Z</time></trkpt><trkpt lat="44.0732803" lon="12.1443117"><ele>287.0</ele><time>2026-04-06T07:33:47.618Z</time></trkpt><trkpt lat="44.0732138" lon="12.1441523"><ele>291.0</ele><time>2026-04-06T07:33:48.618Z</time></trkpt><trkpt lat="44.0731415" lon="12.1439773"><ele>295.0</ele><time>2026-04-06T07:33:49.618Z</time></trkpt><trkpt lat="44.0730696" lon="12.1437865"><ele>299.0</ele><time>2026-04-06T07:33:50.618Z</time></trkpt><trkpt lat="44.0729924" lon="12.1435985"><ele>299.0</ele><time>2026-04-06T07:33:51.618Z</time></trkpt><trkpt lat="44.0729102" lon="12.1434061"><ele>299.0</ele><time>2026-04-06T07:33:52.618Z</time></trkpt><trkpt lat="44.0728257" lon="12.1432153"><ele>299.0</ele><time>2026-04-06T07:33:53.618Z</time></trkpt><trkpt lat="44.0727333" lon="12.1430211"><ele>299.6666666666667</ele><time>2026-04-06T07:33:54.618Z</time></trkpt><trkpt lat="44.0726331" lon="12.1428268"><ele>300.3333333333333</ele><time>2026-04-06T07:33:55.618Z</time></trkpt><trkpt lat="44.07253" lon="12.142632"><ele>301.0</ele><time>2026-04-06T07:33:56.618Z</time></trkpt><trkpt lat="44.0724201" lon="12.1424364"><ele>306.0</ele><time>2026-04-06T07:33:57.617Z</time></trkpt><trkpt lat="44.0723069" lon="12.1422493"><ele>311.0</ele><time>2026-04-06T07:33:58.618Z</time></trkpt><trkpt lat="44.0722113" lon="12.1420759"><ele>316.0</ele><time>2026-04-06T07:33:59.618Z</time></trkpt><trkpt lat="44.0721167" lon="12.1419164"><ele>316.0</ele><time>2026-04-06T07:34:00.618Z</time></trkpt><trkpt lat="44.0720187" lon="12.1417597"><ele>316.0</ele><time>2026-04-06T07:34:01.618Z</time></trkpt><trkpt lat="44.0719242" lon="12.1416297"><ele>316.0</ele><time>2026-04-06T07:34:02.619Z</time></trkpt><trkpt lat="44.0718429" lon="12.1415217"><ele>316.0</ele><time>2026-04-06T07:34:03.618Z</time></trkpt><trkpt lat="44.071767" lon="12.1414258"><ele>315.8</ele><time>2026-04-06T07:34:04.618Z</time></trkpt><trkpt lat="44.0716968" lon="12.1413282"><ele>315.6</ele><time>2026-04-06T07:34:05.618Z</time></trkpt><trkpt lat="44.0716318" lon="12.141218"><ele>315.4</ele><time>2026-04-06T07:34:06.617Z</time></trkpt><trkpt lat="44.0715729" lon="12.1411026"><ele>315.2</ele><time>2026-04-06T07:34:07.618Z</time></trkpt><trkpt lat="44.0715338" lon="12.1409757"><ele>315.0</ele><time>2026-04-06T07:34:08.618Z</time></trkpt><trkpt lat="44.0714922" lon="12.1408686"><ele>317.0</ele><time>2026-04-06T07:34:09.618Z</time></trkpt><trkpt lat="44.0714397" lon="12.1407436"><ele>319.0</ele><time>2026-04-06T07:34:11.618Z</time></trkpt><trkpt lat="44.0713987" lon="12.1406659"><ele>321.0</ele><time>2026-04-06T07:35:15.618Z</time></trkpt><trkpt lat="44.071358" lon="12.1405952"><ele>323.0</ele><time>2026-04-06T07:35:17.618Z</time></trkpt><trkpt lat="44.0713165" lon="12.1405281"><ele>325.0</ele><time>2026-04-06T07:36:41.618Z</time></trkpt><trkpt lat="44.0712507" lon="12.1404087"><ele>327.0</ele><time>2026-04-06T07:36:43.618Z</time></trkpt><trkpt lat="44.0712154" lon="12.1403222"><ele>327.5</ele><time>2026-04-06T07:36:44.619Z</time></trkpt><trkpt lat="44.0711861" lon="12.1402175"><ele>328.0</ele><time>2026-04-06T07:36:45.618Z</time></trkpt><trkpt lat="44.0711653" lon="12.1400989"><ele>328.5</ele><time>2026-04-06T07:36:46.617Z</time></trkpt><trkpt lat="44.0711532" lon="12.1399785"><ele>329.0</ele><time>2026-04-06T07:36:47.618Z</time></trkpt><trkpt lat="44.0711538" lon="12.1398567"><ele>329.5</ele><time>2026-04-06T07:36:48.617Z</time></trkpt><trkpt lat="44.0711573" lon="12.1397294"><ele>330.0</ele><time>2026-04-06T07:36:49.619Z</time></trkpt><trkpt lat="44.0711697" lon="12.1396051"><ele>330.0</ele><time>2026-04-06T07:36:50.617Z</time></trkpt><trkpt lat="44.0711802" lon="12.139472"><ele>330.0</ele><time>2026-04-06T07:36:51.618Z</time></trkpt><trkpt lat="44.0711969" lon="12.1393302"><ele>330.0</ele><time>2026-04-06T07:36:52.618Z</time></trkpt><trkpt lat="44.0712199" lon="12.1392002"><ele>330.0</ele><time>2026-04-06T07:36:53.617Z</time></trkpt><trkpt lat="44.0712444" lon="12.1390704"><ele>330.0</ele><time>2026-04-06T07:36:54.618Z</time></trkpt><trkpt lat="44.0712709" lon="12.1389478"><ele>331.0</ele><time>2026-04-06T07:36:55.618Z</time></trkpt><trkpt lat="44.071299" lon="12.1388252"><ele>332.0</ele><time>2026-04-06T07:36:56.618Z</time></trkpt><trkpt lat="44.0713425" lon="12.1386918"><ele>333.0</ele><time>2026-04-06T07:36:57.617Z</time></trkpt><trkpt lat="44.0713879" lon="12.1385579"><ele>334.0</ele><time>2026-04-06T07:36:58.618Z</time></trkpt><trkpt lat="44.0714376" lon="12.1384315"><ele>335.0</ele><time>2026-04-06T07:36:59.618Z</time></trkpt><trkpt lat="44.0714941" lon="12.1383191"><ele>335.0</ele><time>2026-04-06T07:37:00.617Z</time></trkpt><trkpt lat="44.0715525" lon="12.1382279"><ele>335.0</ele><time>2026-04-06T07:37:01.617Z</time></trkpt><trkpt lat="44.0716133" lon="12.1381641"><ele>335.0</ele><time>2026-04-06T07:37:02.617Z</time></trkpt><trkpt lat="44.0716904" lon="12.1381164"><ele>335.0</ele><time>2026-04-06T07:37:03.618Z</time></trkpt><trkpt lat="44.0717703" lon="12.1380948"><ele>335.0</ele><time>2026-04-06T07:37:04.618Z</time></trkpt><trkpt lat="44.0718578" lon="12.1381017"><ele>335.0</ele><time>2026-04-06T07:37:05.617Z</time></trkpt><trkpt lat="44.0719404" lon="12.1380934"><ele>334.5</ele><time>2026-04-06T07:37:06.618Z</time></trkpt><trkpt lat="44.0720191" lon="12.1380758"><ele>334.0</ele><time>2026-04-06T07:37:07.617Z</time></trkpt><trkpt lat="44.072096" lon="12.1380461"><ele>333.5</ele><time>2026-04-06T07:37:08.617Z</time></trkpt><trkpt lat="44.0721761" lon="12.1379957"><ele>333.0</ele><time>2026-04-06T07:37:09.617Z</time></trkpt><trkpt lat="44.0722521" lon="12.1379295"><ele>332.5</ele><time>2026-04-06T07:37:10.617Z</time></trkpt><trkpt lat="44.0723264" lon="12.1378568"><ele>332.0</ele><time>2026-04-06T07:37:11.618Z</time></trkpt><trkpt lat="44.0723921" lon="12.1377887"><ele>331.1428571428571</ele><time>2026-04-06T07:37:12.617Z</time></trkpt><trkpt lat="44.0724486" lon="12.1377316"><ele>330.28571428571433</ele><time>2026-04-06T07:37:13.618Z</time></trkpt><trkpt lat="44.0725046" lon="12.1376837"><ele>329.42857142857144</ele><time>2026-04-06T07:37:14.617Z</time></trkpt><trkpt lat="44.0725717" lon="12.1376574"><ele>328.57142857142856</ele><time>2026-04-06T07:37:15.618Z</time></trkpt><trkpt lat="44.072645" lon="12.137635"><ele>327.71428571428567</ele><time>2026-04-06T07:37:16.618Z</time></trkpt><trkpt lat="44.072731" lon="12.1376224"><ele>326.8571428571429</ele><time>2026-04-06T07:37:17.618Z</time></trkpt><trkpt lat="44.0728126" lon="12.1376325"><ele>326.0</ele><time>2026-04-06T07:37:18.617Z</time></trkpt><trkpt lat="44.0728969" lon="12.1376583"><ele>326.0</ele><time>2026-04-06T07:37:19.618Z</time></trkpt><trkpt lat="44.0729858" lon="12.1376911"><ele>326.0</ele><time>2026-04-06T07:37:20.617Z</time></trkpt><trkpt lat="44.0730687" lon="12.1377185"><ele>326.0</ele><time>2026-04-06T07:37:21.617Z</time></trkpt><trkpt lat="44.0731453" lon="12.1377319"><ele>326.0</ele><time>2026-04-06T07:37:22.618Z</time></trkpt><trkpt lat="44.0732103" lon="12.1377162"><ele>326.0</ele><time>2026-04-06T07:37:23.617Z</time></trkpt><trkpt lat="44.073274" lon="12.1376883"><ele>326.0</ele><time>2026-04-06T07:37:24.619Z</time></trkpt><trkpt lat="44.0733218" lon="12.1376242"><ele>325.42857142857144</ele><time>2026-04-06T07:37:25.618Z</time></trkpt><trkpt lat="44.0733768" lon="12.1375581"><ele>324.85714285714283</ele><time>2026-04-06T07:37:26.617Z</time></trkpt><trkpt lat="44.0734319" lon="12.1374916"><ele>324.2857142857143</ele><time>2026-04-06T07:37:27.617Z</time></trkpt><trkpt lat="44.0734789" lon="12.13743"><ele>323.7142857142857</ele><time>2026-04-06T07:37:28.618Z</time></trkpt><trkpt lat="44.0735453" lon="12.1373322"><ele>323.1428571428571</ele><time>2026-04-06T07:37:30.617Z</time></trkpt><trkpt lat="44.0736014" lon="12.1372682"><ele>322.57142857142856</ele><time>2026-04-06T07:37:33.617Z</time></trkpt><trkpt lat="44.073596" lon="12.1371779"><ele>322.0</ele><time>2026-04-06T07:38:08.617Z</time></trkpt><trkpt lat="44.073533" lon="12.1371892"><ele>322.0</ele><time>2026-04-06T07:38:10.618Z</time></trkpt><trkpt lat="44.0734333" lon="12.1372021"><ele>322.0</ele><time>2026-04-06T07:38:12.617Z</time></trkpt><trkpt lat="44.0733061" lon="12.1372188"><ele>322.0</ele><time>2026-04-06T07:38:14.617Z</time></trkpt><trkpt lat="44.0732369" lon="12.1372203"><ele>322.0</ele><time>2026-04-06T07:38:15.617Z</time></trkpt><trkpt lat="44.0731664" lon="12.1372044"><ele>322.0</ele><time>2026-04-06T07:38:16.618Z</time></trkpt><trkpt lat="44.0730929" lon="12.1371774"><ele>322.0</ele><time>2026-04-06T07:38:17.617Z</time></trkpt><trkpt lat="44.0730123" lon="12.1371382"><ele>326.6</ele><time>2026-04-06T07:38:18.618Z</time></trkpt><trkpt lat="44.0729314" lon="12.1370915"><ele>331.20000000000005</ele><time>2026-04-06T07:38:19.618Z</time></trkpt><trkpt lat="44.0728449" lon="12.1370419"><ele>335.8</ele><time>2026-04-06T07:38:20.617Z</time></trkpt><trkpt lat="44.07276" lon="12.1369854"><ele>340.4</ele><time>2026-04-06T07:38:21.617Z</time></trkpt><trkpt lat="44.0726765" lon="12.1369196"><ele>345.0</ele><time>2026-04-06T07:38:22.617Z</time></trkpt><trkpt lat="44.072602" lon="12.1368485"><ele>345.0</ele><time>2026-04-06T07:38:23.618Z</time></trkpt><trkpt lat="44.0725388" lon="12.1367667"><ele>345.0</ele><time>2026-04-06T07:38:24.617Z</time></trkpt><trkpt lat="44.0724866" lon="12.1366856"><ele>345.0</ele><time>2026-04-06T07:38:25.617Z</time></trkpt><trkpt lat="44.0724247" lon="12.1365426"><ele>345.0</ele><time>2026-04-06T07:38:27.617Z</time></trkpt><trkpt lat="44.072397" lon="12.136384"><ele>345.0</ele><time>2026-04-06T07:38:29.618Z</time></trkpt><trkpt lat="44.072382" lon="12.1362314"><ele>348.8333333333333</ele><time>2026-04-06T07:38:31.617Z</time></trkpt><trkpt lat="44.0723672" lon="12.1361349"><ele>352.6666666666667</ele><time>2026-04-06T07:38:32.617Z</time></trkpt><trkpt lat="44.0723573" lon="12.1360329"><ele>356.5</ele><time>2026-04-06T07:38:33.617Z</time></trkpt><trkpt lat="44.0723403" lon="12.1359253"><ele>360.33333333333337</ele><time>2026-04-06T07:38:34.618Z</time></trkpt><trkpt lat="44.0723259" lon="12.1358172"><ele>364.1666666666667</ele><time>2026-04-06T07:38:35.618Z</time></trkpt><trkpt lat="44.0723165" lon="12.1357146"><ele>368.0</ele><time>2026-04-06T07:38:36.617Z</time></trkpt><trkpt lat="44.0723018" lon="12.1356131"><ele>370.83333333333337</ele><time>2026-04-06T07:38:37.617Z</time></trkpt><trkpt lat="44.0722758" lon="12.1355107"><ele>373.6666666666667</ele><time>2026-04-06T07:38:38.617Z</time></trkpt><trkpt lat="44.0722484" lon="12.1354079"><ele>376.5</ele><time>2026-04-06T07:38:39.618Z</time></trkpt><trkpt lat="44.0722283" lon="12.1352956"><ele>379.33333333333337</ele><time>2026-04-06T07:38:40.617Z</time></trkpt><trkpt lat="44.0722088" lon="12.1351747"><ele>382.1666666666667</ele><time>2026-04-06T07:38:41.617Z</time></trkpt><trkpt lat="44.0721951" lon="12.1350484"><ele>385.0</ele><time>2026-04-06T07:38:42.617Z</time></trkpt><trkpt lat="44.0721807" lon="12.1349091"><ele>388.0</ele><time>2026-04-06T07:38:43.618Z</time></trkpt><trkpt lat="44.0721646" lon="12.1347631"><ele>391.0</ele><time>2026-04-06T07:38:44.617Z</time></trkpt><trkpt lat="44.0721507" lon="12.1346182"><ele>394.0</ele><time>2026-04-06T07:38:45.617Z</time></trkpt><trkpt lat="44.072141" lon="12.1344791"><ele>397.0</ele><time>2026-04-06T07:38:46.617Z</time></trkpt><trkpt lat="44.0721294" lon="12.1343548"><ele>400.0</ele><time>2026-04-06T07:38:47.617Z</time></trkpt><trkpt lat="44.0721153" lon="12.1342479"><ele>400.00000000000006</ele><time>2026-04-06T07:38:48.617Z</time></trkpt><trkpt lat="44.0720755" lon="12.1340873"><ele>400.0</ele><time>2026-04-06T07:38:50.618Z</time></trkpt><trkpt lat="44.0720445" lon="12.1339925"><ele>400.0</ele><time>2026-04-06T07:38:51.618Z</time></trkpt><trkpt lat="44.0720178" lon="12.1339051"><ele>400.0</ele><time>2026-04-06T07:38:52.617Z</time></trkpt><trkpt lat="44.0720068" lon="12.1338184"><ele>400.00000000000006</ele><time>2026-04-06T07:38:53.617Z</time></trkpt><trkpt lat="44.0720756" lon="12.1337602"><ele>400.0</ele><time>2026-04-06T07:38:54.617Z</time></trkpt><trkpt lat="44.0721311" lon="12.1336957"><ele>402.1666666666667</ele><time>2026-04-06T07:38:55.617Z</time></trkpt><trkpt lat="44.0721916" lon="12.1336198"><ele>404.33333333333337</ele><time>2026-04-06T07:38:56.617Z</time></trkpt><trkpt lat="44.0722528" lon="12.1335407"><ele>406.5</ele><time>2026-04-06T07:38:57.617Z</time></trkpt><trkpt lat="44.0723015" lon="12.1334615"><ele>408.66666666666663</ele><time>2026-04-06T07:38:58.617Z</time></trkpt><trkpt lat="44.0723423" lon="12.1333743"><ele>410.8333333333333</ele><time>2026-04-06T07:38:59.617Z</time></trkpt><trkpt lat="44.0723827" lon="12.1332695"><ele>413.0</ele><time>2026-04-06T07:39:00.617Z</time></trkpt><trkpt lat="44.0724255" lon="12.1331625"><ele>411.3333333333333</ele><time>2026-04-06T07:39:01.618Z</time></trkpt><trkpt lat="44.0724737" lon="12.1330476"><ele>409.66666666666663</ele><time>2026-04-06T07:39:02.618Z</time></trkpt><trkpt lat="44.0725121" lon="12.1329382"><ele>408.0</ele><time>2026-04-06T07:39:03.617Z</time></trkpt><trkpt lat="44.0725451" lon="12.1328288"><ele>406.33333333333337</ele><time>2026-04-06T07:39:04.617Z</time></trkpt><trkpt lat="44.0725708" lon="12.1327163"><ele>404.6666666666667</ele><time>2026-04-06T07:39:05.617Z</time></trkpt><trkpt lat="44.0725965" lon="12.1326138"><ele>403.0</ele><time>2026-04-06T07:39:06.617Z</time></trkpt><trkpt lat="44.0726031" lon="12.1325242"><ele>403.0</ele><time>2026-04-06T07:39:07.618Z</time></trkpt><trkpt lat="44.072577" lon="12.1323867"><ele>403.0</ele><time>2026-04-06T07:39:09.617Z</time></trkpt><trkpt lat="44.0725156" lon="12.1323514"><ele>403.0</ele><time>2026-04-06T07:39:11.617Z</time></trkpt><trkpt lat="44.0724488" lon="12.1324039"><ele>403.0</ele><time>2026-04-06T07:39:13.618Z</time></trkpt><trkpt lat="44.0723646" lon="12.1325052"><ele>403.0</ele><time>2026-04-06T07:39:15.617Z</time></trkpt><trkpt lat="44.0722723" lon="12.1325526"><ele>407.2</ele><time>2026-04-06T07:39:17.618Z</time></trkpt><trkpt lat="44.0722163" lon="12.1325045"><ele>411.4</ele><time>2026-04-06T07:39:20.617Z</time></trkpt><trkpt lat="44.0722189" lon="12.132383"><ele>415.59999999999997</ele><time>2026-04-06T07:39:25.617Z</time></trkpt><trkpt lat="44.072251" lon="12.1322466"><ele>419.79999999999995</ele><time>2026-04-06T07:39:27.617Z</time></trkpt><trkpt lat="44.0722547" lon="12.1321104"><ele>424.0</ele><time>2026-04-06T07:39:29.617Z</time></trkpt><trkpt lat="44.0722223" lon="12.1319541"><ele>425.50000000000006</ele><time>2026-04-06T07:39:31.617Z</time></trkpt><trkpt lat="44.0721783" lon="12.1318281"><ele>427.0</ele><time>2026-04-06T07:39:33.617Z</time></trkpt><trkpt lat="44.0721495" lon="12.13175"><ele>428.5</ele><time>2026-04-06T07:39:34.617Z</time></trkpt><trkpt lat="44.0721245" lon="12.1316689"><ele>430.0</ele><time>2026-04-06T07:39:35.618Z</time></trkpt><trkpt lat="44.0721007" lon="12.1315704"><ele>431.50000000000006</ele><time>2026-04-06T07:39:36.617Z</time></trkpt><trkpt lat="44.0720811" lon="12.1314621"><ele>433.0</ele><time>2026-04-06T07:39:37.617Z</time></trkpt><trkpt lat="44.0720623" lon="12.1313445"><ele>433.50000000000006</ele><time>2026-04-06T07:39:38.617Z</time></trkpt><trkpt lat="44.072056" lon="12.1312102"><ele>434.0</ele><time>2026-04-06T07:39:39.617Z</time></trkpt><trkpt lat="44.0720457" lon="12.1310859"><ele>434.5</ele><time>2026-04-06T07:39:40.617Z</time></trkpt><trkpt lat="44.072036" lon="12.1309788"><ele>435.0</ele><time>2026-04-06T07:39:41.617Z</time></trkpt><trkpt lat="44.0720325" lon="12.1308778"><ele>435.50000000000006</ele><time>2026-04-06T07:39:42.617Z</time></trkpt><trkpt lat="44.0720494" lon="12.1307501"><ele>436.0</ele><time>2026-04-06T07:39:44.618Z</time></trkpt><trkpt lat="44.0721054" lon="12.1306496"><ele>434.50000000000006</ele><time>2026-04-06T07:39:47.617Z</time></trkpt><trkpt lat="44.0721895" lon="12.1305956"><ele>433.0</ele><time>2026-04-06T07:39:49.617Z</time></trkpt><trkpt lat="44.0722648" lon="12.1305637"><ele>431.5</ele><time>2026-04-06T07:39:50.617Z</time></trkpt><trkpt lat="44.0723431" lon="12.1305194"><ele>430.0</ele><time>2026-04-06T07:39:51.617Z</time></trkpt><trkpt lat="44.0724327" lon="12.1304673"><ele>428.50000000000006</ele><time>2026-04-06T07:39:52.617Z</time></trkpt><trkpt lat="44.0725208" lon="12.1304148"><ele>427.0</ele><time>2026-04-06T07:39:53.617Z</time></trkpt><trkpt lat="44.0726003" lon="12.1303683"><ele>425.6666666666667</ele><time>2026-04-06T07:39:54.617Z</time></trkpt><trkpt lat="44.0726716" lon="12.1303212"><ele>424.33333333333337</ele><time>2026-04-06T07:39:55.618Z</time></trkpt><trkpt lat="44.072743" lon="12.1302819"><ele>423.0</ele><time>2026-04-06T07:39:56.617Z</time></trkpt><trkpt lat="44.0728578" lon="12.1302465"><ele>421.66666666666663</ele><time>2026-04-06T07:39:58.617Z</time></trkpt><trkpt lat="44.0729212" lon="12.1302271"><ele>420.3333333333333</ele><time>2026-04-06T07:39:59.617Z</time></trkpt><trkpt lat="44.072987" lon="12.130206"><ele>419.0</ele><time>2026-04-06T07:40:00.617Z</time></trkpt><trkpt lat="44.0730894" lon="12.1301917"><ele>419.0</ele><time>2026-04-06T07:40:02.617Z</time></trkpt><trkpt lat="44.073182" lon="12.1301555"><ele>419.0</ele><time>2026-04-06T07:40:04.617Z</time></trkpt><trkpt lat="44.0732513" lon="12.1300662"><ele>419.0</ele><time>2026-04-06T07:40:06.617Z</time></trkpt><trkpt lat="44.0733058" lon="12.1299712"><ele>419.0</ele><time>2026-04-06T07:40:08.617Z</time></trkpt><trkpt lat="44.0733069" lon="12.129839"><ele>419.0</ele><time>2026-04-06T07:40:10.617Z</time></trkpt><trkpt lat="44.0733454" lon="12.1297134"><ele>416.66666666666663</ele><time>2026-04-06T07:40:12.618Z</time></trkpt><trkpt lat="44.0733975" lon="12.129606"><ele>414.3333333333333</ele><time>2026-04-06T07:40:14.617Z</time></trkpt><trkpt lat="44.0734387" lon="12.129485"><ele>412.0</ele><time>2026-04-06T07:40:16.617Z</time></trkpt><trkpt lat="44.0734707" lon="12.1293934"><ele>409.66666666666663</ele><time>2026-04-06T07:40:18.617Z</time></trkpt><trkpt lat="44.073538" lon="12.1293972"><ele>407.3333333333333</ele><time>2026-04-06T07:40:21.617Z</time></trkpt><trkpt lat="44.0736218" lon="12.1294602"><ele>405.0</ele><time>2026-04-06T07:40:24.617Z</time></trkpt><trkpt lat="44.0736996" lon="12.1294741"><ele>405.0</ele><time>2026-04-06T07:40:27.617Z</time></trkpt><trkpt lat="44.0737541" lon="12.1293787"><ele>405.0</ele><time>2026-04-06T07:40:30.617Z</time></trkpt><trkpt lat="44.073781" lon="12.1292725"><ele>405.0</ele><time>2026-04-06T07:40:32.617Z</time></trkpt><trkpt lat="44.07382" lon="12.1291236"><ele>405.0</ele><time>2026-04-06T07:40:34.617Z</time></trkpt><trkpt lat="44.0738594" lon="12.1289661"><ele>405.0</ele><time>2026-04-06T07:40:36.617Z</time></trkpt><trkpt lat="44.0738818" lon="12.1288779"><ele>402.6666666666667</ele><time>2026-04-06T07:40:37.617Z</time></trkpt><trkpt lat="44.0738968" lon="12.1287919"><ele>400.33333333333337</ele><time>2026-04-06T07:40:38.617Z</time></trkpt><trkpt lat="44.0739118" lon="12.1287067"><ele>398.0</ele><time>2026-04-06T07:40:39.617Z</time></trkpt><trkpt lat="44.0739217" lon="12.1285362"><ele>395.6666666666667</ele><time>2026-04-06T07:40:41.617Z</time></trkpt><trkpt lat="44.0739121" lon="12.1284427"><ele>393.33333333333337</ele><time>2026-04-06T07:40:42.617Z</time></trkpt><trkpt lat="44.0738968" lon="12.1283485"><ele>391.0</ele><time>2026-04-06T07:40:43.617Z</time></trkpt><trkpt lat="44.0738795" lon="12.128254"><ele>389.33333333333337</ele><time>2026-04-06T07:40:44.617Z</time></trkpt><trkpt lat="44.0738723" lon="12.1281628"><ele>387.6666666666667</ele><time>2026-04-06T07:40:45.616Z</time></trkpt><trkpt lat="44.0738778" lon="12.1280686"><ele>386.0</ele><time>2026-04-06T07:40:46.617Z</time></trkpt><trkpt lat="44.0738935" lon="12.1279674"><ele>384.33333333333337</ele><time>2026-04-06T07:40:47.617Z</time></trkpt><trkpt lat="44.0739267" lon="12.1278649"><ele>382.6666666666667</ele><time>2026-04-06T07:40:48.617Z</time></trkpt><trkpt lat="44.0739699" lon="12.1277605"><ele>381.0</ele><time>2026-04-06T07:40:49.617Z</time></trkpt><trkpt lat="44.0740366" lon="12.1276647"><ele>381.0</ele><time>2026-04-06T07:40:50.617Z</time></trkpt><trkpt lat="44.0740973" lon="12.1275701"><ele>381.0</ele><time>2026-04-06T07:40:51.617Z</time></trkpt><trkpt lat="44.0741619" lon="12.1274797"><ele>381.0</ele><time>2026-04-06T07:40:52.617Z</time></trkpt><trkpt lat="44.0742291" lon="12.1273891"><ele>381.0</ele><time>2026-04-06T07:40:53.617Z</time></trkpt><trkpt lat="44.0742994" lon="12.127303"><ele>381.0</ele><time>2026-04-06T07:40:54.617Z</time></trkpt><trkpt lat="44.0743714" lon="12.1272187"><ele>378.8333333333333</ele><time>2026-04-06T07:40:55.617Z</time></trkpt><trkpt lat="44.0744358" lon="12.1271394"><ele>376.6666666666667</ele><time>2026-04-06T07:40:56.617Z</time></trkpt><trkpt lat="44.0744998" lon="12.1270726"><ele>374.5</ele><time>2026-04-06T07:40:57.617Z</time></trkpt><trkpt lat="44.0745717" lon="12.1270221"><ele>372.33333333333337</ele><time>2026-04-06T07:40:58.617Z</time></trkpt><trkpt lat="44.0746565" lon="12.1269846"><ele>370.1666666666667</ele><time>2026-04-06T07:40:59.618Z</time></trkpt><trkpt lat="44.0747505" lon="12.126958"><ele>368.0</ele><time>2026-04-06T07:41:00.617Z</time></trkpt><trkpt lat="44.0748486" lon="12.1269262"><ele>366.2</ele><time>2026-04-06T07:41:01.617Z</time></trkpt><trkpt lat="44.0749499" lon="12.1268958"><ele>364.4</ele><time>2026-04-06T07:41:02.617Z</time></trkpt><trkpt lat="44.0750485" lon="12.1268675"><ele>362.59999999999997</ele><time>2026-04-06T07:41:03.617Z</time></trkpt><trkpt lat="44.0751529" lon="12.1268377"><ele>360.79999999999995</ele><time>2026-04-06T07:41:04.617Z</time></trkpt><trkpt lat="44.0752512" lon="12.1268255"><ele>359.0</ele><time>2026-04-06T07:41:05.617Z</time></trkpt><trkpt lat="44.0753395" lon="12.1268258"><ele>359.0</ele><time>2026-04-06T07:41:06.617Z</time></trkpt><trkpt lat="44.0754196" lon="12.1268248"><ele>359.0</ele><time>2026-04-06T07:41:07.617Z</time></trkpt><trkpt lat="44.0755002" lon="12.1268205"><ele>359.0</ele><time>2026-04-06T07:41:08.616Z</time></trkpt><trkpt lat="44.0755788" lon="12.1267873"><ele>359.0</ele><time>2026-04-06T07:41:09.617Z</time></trkpt><trkpt lat="44.0756534" lon="12.1267306"><ele>359.0</ele><time>2026-04-06T07:41:10.617Z</time></trkpt><trkpt lat="44.0757275" lon="12.1266627"><ele>359.0</ele><time>2026-04-06T07:41:11.617Z</time></trkpt><trkpt lat="44.0758009" lon="12.1265859"><ele>356.79999999999995</ele><time>2026-04-06T07:41:12.616Z</time></trkpt><trkpt lat="44.0758723" lon="12.1265063"><ele>354.59999999999997</ele><time>2026-04-06T07:41:13.617Z</time></trkpt><trkpt lat="44.0759497" lon="12.1264307"><ele>352.4</ele><time>2026-04-06T07:41:14.617Z</time></trkpt><trkpt lat="44.0760324" lon="12.1263542"><ele>350.2</ele><time>2026-04-06T07:41:15.617Z</time></trkpt><trkpt lat="44.0761145" lon="12.1262826"><ele>348.0</ele><time>2026-04-06T07:41:16.616Z</time></trkpt><trkpt lat="44.0762065" lon="12.1262186"><ele>348.0</ele><time>2026-04-06T07:41:17.617Z</time></trkpt><trkpt lat="44.0762999" lon="12.1261549"><ele>348.0</ele><time>2026-04-06T07:41:18.617Z</time></trkpt><trkpt lat="44.0763883" lon="12.1260857"><ele>348.0</ele><time>2026-04-06T07:41:19.617Z</time></trkpt><trkpt lat="44.0764833" lon="12.1260181"><ele>348.0</ele><time>2026-04-06T07:41:20.617Z</time></trkpt><trkpt lat="44.0765812" lon="12.1259516"><ele>348.0</ele><time>2026-04-06T07:41:21.617Z</time></trkpt><trkpt lat="44.0766816" lon="12.1258903"><ele>345.4</ele><time>2026-04-06T07:41:22.616Z</time></trkpt><trkpt lat="44.0767833" lon="12.1258307"><ele>342.79999999999995</ele><time>2026-04-06T07:41:23.617Z</time></trkpt><trkpt lat="44.0768732" lon="12.125769"><ele>340.2</ele><time>2026-04-06T07:41:24.617Z</time></trkpt><trkpt lat="44.0769582" lon="12.125707"><ele>337.6</ele><time>2026-04-06T07:41:25.617Z</time></trkpt><trkpt lat="44.0770409" lon="12.1256467"><ele>335.0</ele><time>2026-04-06T07:41:26.616Z</time></trkpt><trkpt lat="44.0771131" lon="12.1255876"><ele>334.57142857142856</ele><time>2026-04-06T07:41:27.617Z</time></trkpt><trkpt lat="44.0771875" lon="12.1255541"><ele>334.1428571428571</ele><time>2026-04-06T07:41:28.617Z</time></trkpt><trkpt lat="44.0772594" lon="12.1255282"><ele>333.71428571428567</ele><time>2026-04-06T07:41:29.617Z</time></trkpt><trkpt lat="44.0773233" lon="12.1255178"><ele>333.2857142857143</ele><time>2026-04-06T07:41:30.617Z</time></trkpt><trkpt lat="44.0773901" lon="12.1255038"><ele>332.8571428571429</ele><time>2026-04-06T07:41:31.617Z</time></trkpt><trkpt lat="44.0774591" lon="12.1254865"><ele>332.4285714285714</ele><time>2026-04-06T07:41:32.616Z</time></trkpt><trkpt lat="44.0775247" lon="12.1254656"><ele>332.0</ele><time>2026-04-06T07:41:33.617Z</time></trkpt><trkpt lat="44.0775941" lon="12.1254484"><ele>329.20000000000005</ele><time>2026-04-06T07:41:34.617Z</time></trkpt><trkpt lat="44.0777045" lon="12.1254092"><ele>326.40000000000003</ele><time>2026-04-06T07:41:36.617Z</time></trkpt><trkpt lat="44.0777649" lon="12.12538"><ele>323.6</ele><time>2026-04-06T07:41:38.617Z</time></trkpt><trkpt lat="44.0778669" lon="12.1253554"><ele>320.8</ele><time>2026-04-06T07:41:40.617Z</time></trkpt><trkpt lat="44.0779677" lon="12.1252898"><ele>318.0</ele><time>2026-04-06T07:41:42.617Z</time></trkpt><trkpt lat="44.0780396" lon="12.125207"><ele>318.0</ele><time>2026-04-06T07:41:44.617Z</time></trkpt><trkpt lat="44.078052" lon="12.1251079"><ele>318.0</ele><time>2026-04-06T07:41:46.617Z</time></trkpt><trkpt lat="44.0779979" lon="12.1250029"><ele>318.0</ele><time>2026-04-06T07:41:48.617Z</time></trkpt><trkpt lat="44.0779238" lon="12.1249447"><ele>318.0</ele><time>2026-04-06T07:41:49.617Z</time></trkpt><trkpt lat="44.0778389" lon="12.1248728"><ele>318.0</ele><time>2026-04-06T07:41:50.616Z</time></trkpt><trkpt lat="44.0777417" lon="12.1247958"><ele>316.5</ele><time>2026-04-06T07:41:51.617Z</time></trkpt><trkpt lat="44.0776521" lon="12.124717"><ele>315.0</ele><time>2026-04-06T07:41:52.617Z</time></trkpt><trkpt lat="44.0775822" lon="12.1246435"><ele>313.5</ele><time>2026-04-06T07:41:53.617Z</time></trkpt><trkpt lat="44.0775236" lon="12.1245663"><ele>312.0</ele><time>2026-04-06T07:41:54.617Z</time></trkpt><trkpt lat="44.0774926" lon="12.1244793"><ele>310.5</ele><time>2026-04-06T07:41:55.616Z</time></trkpt><trkpt lat="44.0774668" lon="12.1243854"><ele>309.0</ele><time>2026-04-06T07:41:56.616Z</time></trkpt><trkpt lat="44.0774491" lon="12.1242895"><ele>309.00000000000006</ele><time>2026-04-06T07:41:57.617Z</time></trkpt><trkpt lat="44.0774315" lon="12.1242029"><ele>309.0</ele><time>2026-04-06T07:41:58.617Z</time></trkpt><trkpt lat="44.0773982" lon="12.1241177"><ele>309.0</ele><time>2026-04-06T07:41:59.617Z</time></trkpt><trkpt lat="44.077368" lon="12.1240364"><ele>309.0</ele><time>2026-04-06T07:42:00.617Z</time></trkpt><trkpt lat="44.0773258" lon="12.1239661"><ele>309.0</ele><time>2026-04-06T07:42:01.617Z</time></trkpt><trkpt lat="44.0772814" lon="12.1238909"><ele>309.00000000000006</ele><time>2026-04-06T07:42:02.617Z</time></trkpt><trkpt lat="44.0772353" lon="12.1238216"><ele>309.0</ele><time>2026-04-06T07:42:03.616Z</time></trkpt><trkpt lat="44.0771893" lon="12.123749"><ele>309.0</ele><time>2026-04-06T07:42:04.616Z</time></trkpt><trkpt lat="44.0771529" lon="12.1236709"><ele>309.0</ele><time>2026-04-06T07:42:05.617Z</time></trkpt><trkpt lat="44.0771148" lon="12.1235404"><ele>309.0</ele><time>2026-04-06T07:42:07.617Z</time></trkpt><trkpt lat="44.0770812" lon="12.1234294"><ele>309.0</ele><time>2026-04-06T07:42:09.616Z</time></trkpt><trkpt lat="44.0770168" lon="12.1232876"><ele>309.0</ele><time>2026-04-06T07:42:11.617Z</time></trkpt><trkpt lat="44.0769717" lon="12.1232215"><ele>309.0</ele><time>2026-04-06T07:42:12.617Z</time></trkpt><trkpt lat="44.0769191" lon="12.1231571"><ele>308.0</ele><time>2026-04-06T07:42:13.617Z</time></trkpt><trkpt lat="44.0768626" lon="12.1230986"><ele>307.0</ele><time>2026-04-06T07:42:14.616Z</time></trkpt><trkpt lat="44.0768008" lon="12.1230598"><ele>306.0</ele><time>2026-04-06T07:42:15.617Z</time></trkpt><trkpt lat="44.0767349" lon="12.1230418"><ele>305.0</ele><time>2026-04-06T07:42:16.616Z</time></trkpt><trkpt lat="44.0766727" lon="12.1230219"><ele>304.0</ele><time>2026-04-06T07:42:17.616Z</time></trkpt><trkpt lat="44.0765814" lon="12.1229238"><ele>303.0</ele><time>2026-04-06T07:42:19.617Z</time></trkpt><trkpt lat="44.0765658" lon="12.1227591"><ele>306.0</ele><time>2026-04-06T07:42:21.617Z</time></trkpt><trkpt lat="44.07657" lon="12.1226479"><ele>309.0</ele><time>2026-04-06T07:42:22.616Z</time></trkpt><trkpt lat="44.0765757" lon="12.1225171"><ele>312.0</ele><time>2026-04-06T07:42:23.617Z</time></trkpt><trkpt lat="44.0765834" lon="12.1223673"><ele>315.0</ele><time>2026-04-06T07:42:24.617Z</time></trkpt><trkpt lat="44.0765844" lon="12.1222175"><ele>318.0</ele><time>2026-04-06T07:42:25.617Z</time></trkpt><trkpt lat="44.0765929" lon="12.1220683"><ele>318.0</ele><time>2026-04-06T07:42:26.617Z</time></trkpt><trkpt lat="44.0765983" lon="12.1219239"><ele>318.0</ele><time>2026-04-06T07:42:27.617Z</time></trkpt><trkpt lat="44.0766336" lon="12.1217991"><ele>318.0</ele><time>2026-04-06T07:42:28.617Z</time></trkpt><trkpt lat="44.0766711" lon="12.1216886"><ele>318.0</ele><time>2026-04-06T07:42:29.616Z</time></trkpt><trkpt lat="44.0767097" lon="12.1215839"><ele>318.0</ele><time>2026-04-06T07:42:30.617Z</time></trkpt><trkpt lat="44.0767488" lon="12.1214794"><ele>315.8333333333333</ele><time>2026-04-06T07:42:31.617Z</time></trkpt><trkpt lat="44.0767852" lon="12.1213875"><ele>313.6666666666667</ele><time>2026-04-06T07:42:32.617Z</time></trkpt><trkpt lat="44.0768167" lon="12.1212712"><ele>311.5</ele><time>2026-04-06T07:42:34.616Z</time></trkpt><trkpt lat="44.0768163" lon="12.1211486"><ele>309.33333333333337</ele><time>2026-04-06T07:43:10.617Z</time></trkpt><trkpt lat="44.0767887" lon="12.1209938"><ele>307.1666666666667</ele><time>2026-04-06T07:43:12.617Z</time></trkpt><trkpt lat="44.0767712" lon="12.120884"><ele>305.0</ele><time>2026-04-06T07:43:13.617Z</time></trkpt><trkpt lat="44.0767426" lon="12.1207618"><ele>305.2</ele><time>2026-04-06T07:43:14.616Z</time></trkpt><trkpt lat="44.0767049" lon="12.1206367"><ele>305.4</ele><time>2026-04-06T07:43:15.617Z</time></trkpt><trkpt lat="44.0766619" lon="12.1205108"><ele>305.6</ele><time>2026-04-06T07:43:16.617Z</time></trkpt><trkpt lat="44.076614" lon="12.1203875"><ele>305.8</ele><time>2026-04-06T07:43:17.616Z</time></trkpt><trkpt lat="44.076569" lon="12.1202599"><ele>306.0</ele><time>2026-04-06T07:43:18.617Z</time></trkpt><trkpt lat="44.076531" lon="12.1201377"><ele>309.3333333333333</ele><time>2026-04-06T07:43:19.616Z</time></trkpt><trkpt lat="44.0765086" lon="12.1200316"><ele>312.6666666666667</ele><time>2026-04-06T07:43:20.616Z</time></trkpt><trkpt lat="44.0764896" lon="12.1199377"><ele>316.0</ele><time>2026-04-06T07:43:21.616Z</time></trkpt><trkpt lat="44.0764686" lon="12.1198341"><ele>319.33333333333337</ele><time>2026-04-06T07:43:22.616Z</time></trkpt><trkpt lat="44.0764776" lon="12.1197267"><ele>322.6666666666667</ele><time>2026-04-06T07:43:23.617Z</time></trkpt><trkpt lat="44.0765418" lon="12.1196158"><ele>326.0</ele><time>2026-04-06T07:43:24.616Z</time></trkpt><trkpt lat="44.0765724" lon="12.1195129"><ele>326.0</ele><time>2026-04-06T07:43:25.616Z</time></trkpt><trkpt lat="44.0766003" lon="12.1194061"><ele>326.0</ele><time>2026-04-06T07:43:26.617Z</time></trkpt><trkpt lat="44.0766031" lon="12.1193107"><ele>326.0</ele><time>2026-04-06T07:43:27.616Z</time></trkpt><trkpt lat="44.0765954" lon="12.1192128"><ele>326.0</ele><time>2026-04-06T07:43:28.617Z</time></trkpt><trkpt lat="44.0765423" lon="12.1190794"><ele>326.0</ele><time>2026-04-06T07:43:30.616Z</time></trkpt><trkpt lat="44.0764873" lon="12.1190313"><ele>326.0</ele><time>2026-04-06T07:43:31.617Z</time></trkpt><trkpt lat="44.076429" lon="12.1189695"><ele>325.6666666666667</ele><time>2026-04-06T07:43:32.617Z</time></trkpt><trkpt lat="44.0763916" lon="12.1188923"><ele>325.33333333333337</ele><time>2026-04-06T07:43:33.617Z</time></trkpt><trkpt lat="44.0763794" lon="12.1187993"><ele>325.0</ele><time>2026-04-06T07:43:34.617Z</time></trkpt><trkpt lat="44.0763771" lon="12.1186848"><ele>324.6666666666667</ele><time>2026-04-06T07:43:35.617Z</time></trkpt><trkpt lat="44.0763787" lon="12.1185615"><ele>324.3333333333333</ele><time>2026-04-06T07:43:36.616Z</time></trkpt><trkpt lat="44.0763789" lon="12.1184328"><ele>324.0</ele><time>2026-04-06T07:43:37.618Z</time></trkpt><trkpt lat="44.0763646" lon="12.1183"><ele>323.8333333333333</ele><time>2026-04-06T07:43:38.616Z</time></trkpt><trkpt lat="44.076355" lon="12.1181762"><ele>323.6666666666667</ele><time>2026-04-06T07:43:39.616Z</time></trkpt><trkpt lat="44.076334" lon="12.1180679"><ele>323.5</ele><time>2026-04-06T07:43:40.616Z</time></trkpt><trkpt lat="44.0763016" lon="12.1179715"><ele>323.33333333333337</ele><time>2026-04-06T07:43:41.616Z</time></trkpt><trkpt lat="44.076245" lon="12.1178797"><ele>323.1666666666667</ele><time>2026-04-06T07:43:42.617Z</time></trkpt><trkpt lat="44.0761753" lon="12.1178072"><ele>323.0</ele><time>2026-04-06T07:43:43.617Z</time></trkpt><trkpt lat="44.0761" lon="12.1177365"><ele>323.0</ele><time>2026-04-06T07:43:44.617Z</time></trkpt><trkpt lat="44.0760286" lon="12.1176664"><ele>323.0</ele><time>2026-04-06T07:43:45.616Z</time></trkpt><trkpt lat="44.0759811" lon="12.1175931"><ele>323.0</ele><time>2026-04-06T07:43:46.617Z</time></trkpt><trkpt lat="44.0759509" lon="12.1175076"><ele>323.0</ele><time>2026-04-06T07:43:47.616Z</time></trkpt><trkpt lat="44.0759437" lon="12.1174103"><ele>323.0</ele><time>2026-04-06T07:43:48.616Z</time></trkpt><trkpt lat="44.075951" lon="12.1173034"><ele>323.0</ele><time>2026-04-06T07:43:49.617Z</time></trkpt><trkpt lat="44.0759597" lon="12.1171897"><ele>323.1666666666667</ele><time>2026-04-06T07:43:50.617Z</time></trkpt><trkpt lat="44.0759653" lon="12.1170693"><ele>323.33333333333337</ele><time>2026-04-06T07:43:51.617Z</time></trkpt><trkpt lat="44.0759695" lon="12.1169603"><ele>323.5</ele><time>2026-04-06T07:43:52.617Z</time></trkpt><trkpt lat="44.0759692" lon="12.1168635"><ele>323.6666666666667</ele><time>2026-04-06T07:43:53.617Z</time></trkpt><trkpt lat="44.0759675" lon="12.1167233"><ele>323.8333333333333</ele><time>2026-04-06T07:43:55.617Z</time></trkpt><trkpt lat="44.0759571" lon="12.1166104"><ele>324.0</ele><time>2026-04-06T07:43:57.616Z</time></trkpt><trkpt lat="44.075931" lon="12.1164819"><ele>324.4</ele><time>2026-04-06T07:43:59.616Z</time></trkpt><trkpt lat="44.0759042" lon="12.1163196"><ele>324.79999999999995</ele><time>2026-04-06T07:44:01.617Z</time></trkpt><trkpt lat="44.0758884" lon="12.1162167"><ele>325.20000000000005</ele><time>2026-04-06T07:44:02.617Z</time></trkpt><trkpt lat="44.0758679" lon="12.1161002"><ele>325.6</ele><time>2026-04-06T07:44:03.616Z</time></trkpt><trkpt lat="44.0758455" lon="12.1159794"><ele>326.0</ele><time>2026-04-06T07:44:04.616Z</time></trkpt><trkpt lat="44.0758329" lon="12.1158577"><ele>326.6</ele><time>2026-04-06T07:44:05.618Z</time></trkpt><trkpt lat="44.075817" lon="12.1157368"><ele>327.20000000000005</ele><time>2026-04-06T07:44:06.616Z</time></trkpt><trkpt lat="44.075806" lon="12.1156468"><ele>327.79999999999995</ele><time>2026-04-06T07:44:07.617Z</time></trkpt><trkpt lat="44.075723" lon="12.1155242"><ele>328.4</ele><time>2026-04-06T07:44:09.617Z</time></trkpt><trkpt lat="44.075615" lon="12.1155351"><ele>329.0</ele><time>2026-04-06T07:44:11.617Z</time></trkpt><trkpt lat="44.0755596" lon="12.1155941"><ele>331.1666666666667</ele><time>2026-04-06T07:44:12.616Z</time></trkpt><trkpt lat="44.0754984" lon="12.11566"><ele>333.33333333333337</ele><time>2026-04-06T07:44:13.617Z</time></trkpt><trkpt lat="44.0754341" lon="12.1157302"><ele>335.5</ele><time>2026-04-06T07:44:14.617Z</time></trkpt><trkpt lat="44.0753634" lon="12.1157972"><ele>337.6666666666667</ele><time>2026-04-06T07:44:15.616Z</time></trkpt><trkpt lat="44.0752956" lon="12.1158527"><ele>339.8333333333333</ele><time>2026-04-06T07:44:16.617Z</time></trkpt><trkpt lat="44.0752371" lon="12.1158908"><ele>342.0</ele><time>2026-04-06T07:44:17.618Z</time></trkpt><trkpt lat="44.0751478" lon="12.1158777"><ele>342.0</ele><time>2026-04-06T07:44:19.616Z</time></trkpt><trkpt lat="44.075104" lon="12.1157554"><ele>342.0</ele><time>2026-04-06T07:44:21.617Z</time></trkpt><trkpt lat="44.0750927" lon="12.1156612"><ele>342.0</ele><time>2026-04-06T07:44:22.616Z</time></trkpt><trkpt lat="44.0750822" lon="12.115562"><ele>342.0</ele><time>2026-04-06T07:44:23.616Z</time></trkpt><trkpt lat="44.075052" lon="12.1154675"><ele>342.0</ele><time>2026-04-06T07:44:24.616Z</time></trkpt><trkpt lat="44.0750092" lon="12.1153634"><ele>342.0</ele><time>2026-04-06T07:44:25.617Z</time></trkpt><trkpt lat="44.0749484" lon="12.1152512"><ele>341.6</ele><time>2026-04-06T07:44:26.616Z</time></trkpt><trkpt lat="44.0748787" lon="12.1151337"><ele>341.20000000000005</ele><time>2026-04-06T07:44:27.616Z</time></trkpt><trkpt lat="44.0748005" lon="12.1150174"><ele>340.8</ele><time>2026-04-06T07:44:28.617Z</time></trkpt><trkpt lat="44.0747277" lon="12.1149085"><ele>340.4</ele><time>2026-04-06T07:44:29.617Z</time></trkpt><trkpt lat="44.0746648" lon="12.1147959"><ele>340.0</ele><time>2026-04-06T07:44:30.617Z</time></trkpt><trkpt lat="44.0746169" lon="12.11468"><ele>340.0</ele><time>2026-04-06T07:44:31.617Z</time></trkpt><trkpt lat="44.0745809" lon="12.1145637"><ele>340.0</ele><time>2026-04-06T07:44:32.617Z</time></trkpt><trkpt lat="44.0745502" lon="12.1144545"><ele>340.0</ele><time>2026-04-06T07:44:33.616Z</time></trkpt><trkpt lat="44.0745394" lon="12.1143653"><ele>340.0</ele><time>2026-04-06T07:44:34.616Z</time></trkpt><trkpt lat="44.0745211" lon="12.1142628"><ele>340.0</ele><time>2026-04-06T07:44:36.616Z</time></trkpt><trkpt lat="44.0744419" lon="12.1142713"><ele>340.0</ele><time>2026-04-06T07:44:43.616Z</time></trkpt><trkpt lat="44.0743858" lon="12.1144156"><ele>340.0</ele><time>2026-04-06T07:44:45.616Z</time></trkpt><trkpt lat="44.0743564" lon="12.1145142"><ele>340.0</ele><time>2026-04-06T07:44:46.615Z</time></trkpt><trkpt lat="44.07432" lon="12.1146205"><ele>340.0</ele><time>2026-04-06T07:44:47.616Z</time></trkpt><trkpt lat="44.0742811" lon="12.1147447"><ele>340.0</ele><time>2026-04-06T07:44:48.616Z</time></trkpt><trkpt lat="44.0742403" lon="12.1148813"><ele>340.0</ele><time>2026-04-06T07:44:49.616Z</time></trkpt><trkpt lat="44.0741856" lon="12.1150307"><ele>341.75</ele><time>2026-04-06T07:44:50.617Z</time></trkpt><trkpt lat="44.0741308" lon="12.1151953"><ele>343.5</ele><time>2026-04-06T07:44:51.616Z</time></trkpt><trkpt lat="44.0740721" lon="12.1153701"><ele>345.25</ele><time>2026-04-06T07:44:52.617Z</time></trkpt><trkpt lat="44.07401" lon="12.1155502"><ele>347.0</ele><time>2026-04-06T07:44:53.617Z</time></trkpt><trkpt lat="44.0739466" lon="12.11574"><ele>353.6666666666667</ele><time>2026-04-06T07:44:54.617Z</time></trkpt><trkpt lat="44.0738746" lon="12.1159346"><ele>360.3333333333333</ele><time>2026-04-06T07:44:55.616Z</time></trkpt><trkpt lat="44.0738008" lon="12.1161331"><ele>367.0</ele><time>2026-04-06T07:44:56.616Z</time></trkpt><trkpt lat="44.0737303" lon="12.116338"><ele>367.0</ele><time>2026-04-06T07:44:57.617Z</time></trkpt><trkpt lat="44.0736633" lon="12.1165467"><ele>367.0</ele><time>2026-04-06T07:44:58.617Z</time></trkpt><trkpt lat="44.0736017" lon="12.1167626"><ele>367.0</ele><time>2026-04-06T07:44:59.617Z</time></trkpt><trkpt lat="44.0735472" lon="12.1169762"><ele>369.3333333333333</ele><time>2026-04-06T07:45:00.616Z</time></trkpt><trkpt lat="44.0735036" lon="12.1171924"><ele>371.6666666666667</ele><time>2026-04-06T07:45:01.617Z</time></trkpt><trkpt lat="44.0734512" lon="12.1173952"><ele>374.0</ele><time>2026-04-06T07:45:02.617Z</time></trkpt><trkpt lat="44.0733895" lon="12.1175952"><ele>375.33333333333337</ele><time>2026-04-06T07:45:03.616Z</time></trkpt><trkpt lat="44.0733158" lon="12.1177931"><ele>376.6666666666667</ele><time>2026-04-06T07:45:04.616Z</time></trkpt><trkpt lat="44.0732171" lon="12.1179809"><ele>378.0</ele><time>2026-04-06T07:45:05.617Z</time></trkpt><trkpt lat="44.0731206" lon="12.1181759"><ele>383.66666666666663</ele><time>2026-04-06T07:45:06.616Z</time></trkpt><trkpt lat="44.0730203" lon="12.1183703"><ele>389.3333333333333</ele><time>2026-04-06T07:45:07.617Z</time></trkpt><trkpt lat="44.0729206" lon="12.1185773"><ele>395.0</ele><time>2026-04-06T07:45:08.616Z</time></trkpt><trkpt lat="44.0728127" lon="12.118787"><ele>395.0</ele><time>2026-04-06T07:45:09.617Z</time></trkpt><trkpt lat="44.0727148" lon="12.1189984"><ele>395.0</ele><time>2026-04-06T07:45:10.616Z</time></trkpt><trkpt lat="44.0726233" lon="12.1191897"><ele>395.0</ele><time>2026-04-06T07:45:11.616Z</time></trkpt><trkpt lat="44.0725405" lon="12.1193554"><ele>395.2</ele><time>2026-04-06T07:45:12.616Z</time></trkpt><trkpt lat="44.0724669" lon="12.1194991"><ele>395.4</ele><time>2026-04-06T07:45:13.616Z</time></trkpt><trkpt lat="44.0724036" lon="12.119616"><ele>395.6</ele><time>2026-04-06T07:45:14.616Z</time></trkpt><trkpt lat="44.072343" lon="12.119707"><ele>395.8</ele><time>2026-04-06T07:45:15.616Z</time></trkpt><trkpt lat="44.0722314" lon="12.1197062"><ele>396.0</ele><time>2026-04-06T07:45:17.616Z</time></trkpt><trkpt lat="44.072177" lon="12.1196521"><ele>397.0</ele><time>2026-04-06T07:45:18.617Z</time></trkpt><trkpt lat="44.0721291" lon="12.1195811"><ele>398.0</ele><time>2026-04-06T07:45:19.616Z</time></trkpt><trkpt lat="44.0720863" lon="12.119459"><ele>399.0</ele><time>2026-04-06T07:45:20.616Z</time></trkpt><trkpt lat="44.072039" lon="12.119315"><ele>400.0</ele><time>2026-04-06T07:45:21.617Z</time></trkpt><trkpt lat="44.0719829" lon="12.1191765"><ele>401.0</ele><time>2026-04-06T07:45:22.616Z</time></trkpt><trkpt lat="44.0719255" lon="12.1190485"><ele>401.0</ele><time>2026-04-06T07:45:23.616Z</time></trkpt><trkpt lat="44.0718704" lon="12.1189794"><ele>401.0</ele><time>2026-04-06T07:45:24.616Z</time></trkpt><trkpt lat="44.071808" lon="12.1189413"><ele>401.0</ele><time>2026-04-06T07:45:25.616Z</time></trkpt><trkpt lat="44.0717313" lon="12.1189341"><ele>401.0</ele><time>2026-04-06T07:45:26.616Z</time></trkpt><trkpt lat="44.0716614" lon="12.1189596"><ele>401.0</ele><time>2026-04-06T07:45:27.616Z</time></trkpt><trkpt lat="44.0716023" lon="12.1190135"><ele>401.0</ele><time>2026-04-06T07:45:28.617Z</time></trkpt><trkpt lat="44.0715527" lon="12.1190845"><ele>401.0</ele><time>2026-04-06T07:45:29.617Z</time></trkpt><trkpt lat="44.0715181" lon="12.1191766"><ele>401.6</ele><time>2026-04-06T07:45:30.617Z</time></trkpt><trkpt lat="44.0714868" lon="12.1192907"><ele>402.20000000000005</ele><time>2026-04-06T07:45:31.616Z</time></trkpt><trkpt lat="44.0714478" lon="12.1194249"><ele>402.79999999999995</ele><time>2026-04-06T07:45:32.616Z</time></trkpt><trkpt lat="44.0714156" lon="12.1195816"><ele>403.4</ele><time>2026-04-06T07:45:33.616Z</time></trkpt><trkpt lat="44.0713787" lon="12.119763"><ele>404.0</ele><time>2026-04-06T07:45:34.616Z</time></trkpt><trkpt lat="44.0713577" lon="12.1199456"><ele>408.25</ele><time>2026-04-06T07:45:35.616Z</time></trkpt><trkpt lat="44.0713477" lon="12.1201492"><ele>412.5</ele><time>2026-04-06T07:45:36.617Z</time></trkpt><trkpt lat="44.0713607" lon="12.1203567"><ele>416.75</ele><time>2026-04-06T07:45:37.616Z</time></trkpt><trkpt lat="44.0713915" lon="12.1205637"><ele>421.0</ele><time>2026-04-06T07:45:38.618Z</time></trkpt><trkpt lat="44.0714343" lon="12.1207721"><ele>424.0</ele><time>2026-04-06T07:45:39.616Z</time></trkpt><trkpt lat="44.0714764" lon="12.1209757"><ele>427.0</ele><time>2026-04-06T07:45:40.617Z</time></trkpt><trkpt lat="44.0715167" lon="12.1211541"><ele>430.0</ele><time>2026-04-06T07:45:41.617Z</time></trkpt><trkpt lat="44.0715547" lon="12.1213223"><ele>433.0</ele><time>2026-04-06T07:45:42.616Z</time></trkpt><trkpt lat="44.0715792" lon="12.1214791"><ele>433.79999999999995</ele><time>2026-04-06T07:45:43.617Z</time></trkpt><trkpt lat="44.0715992" lon="12.1216318"><ele>434.59999999999997</ele><time>2026-04-06T07:45:44.616Z</time></trkpt><trkpt lat="44.0715745" lon="12.1217724"><ele>435.40000000000003</ele><time>2026-04-06T07:45:45.616Z</time></trkpt><trkpt lat="44.0715384" lon="12.1219013"><ele>436.20000000000005</ele><time>2026-04-06T07:45:46.616Z</time></trkpt><trkpt lat="44.0714865" lon="12.1220105"><ele>437.0</ele><time>2026-04-06T07:45:47.616Z</time></trkpt><trkpt lat="44.0714152" lon="12.1220964"><ele>437.0</ele><time>2026-04-06T07:45:48.616Z</time></trkpt><trkpt lat="44.0713176" lon="12.1221537"><ele>437.00000000000006</ele><time>2026-04-06T07:45:49.616Z</time></trkpt><trkpt lat="44.0712234" lon="12.1222021"><ele>437.00000000000006</ele><time>2026-04-06T07:45:50.616Z</time></trkpt><trkpt lat="44.0711083" lon="12.1222365"><ele>437.0</ele><time>2026-04-06T07:45:51.616Z</time></trkpt><trkpt lat="44.0709921" lon="12.1222833"><ele>437.0</ele><time>2026-04-06T07:45:52.616Z</time></trkpt><trkpt lat="44.0708809" lon="12.1223533"><ele>438.0</ele><time>2026-04-06T07:45:53.616Z</time></trkpt><trkpt lat="44.0707745" lon="12.122441"><ele>439.0</ele><time>2026-04-06T07:45:54.617Z</time></trkpt><trkpt lat="44.0706703" lon="12.1225411"><ele>440.0</ele><time>2026-04-06T07:45:55.617Z</time></trkpt><trkpt lat="44.0705799" lon="12.1226604"><ele>441.0</ele><time>2026-04-06T07:45:56.617Z</time></trkpt><trkpt lat="44.0704796" lon="12.1228308"><ele>441.0</ele><time>2026-04-06T07:45:57.616Z</time></trkpt><trkpt lat="44.0703783" lon="12.1230032"><ele>441.0</ele><time>2026-04-06T07:45:58.615Z</time></trkpt><trkpt lat="44.0702711" lon="12.1231796"><ele>441.0</ele><time>2026-04-06T07:45:59.616Z</time></trkpt><trkpt lat="44.0701556" lon="12.12336"><ele>440.33333333333337</ele><time>2026-04-06T07:46:00.616Z</time></trkpt><trkpt lat="44.0700375" lon="12.123553"><ele>439.6666666666667</ele><time>2026-04-06T07:46:01.616Z</time></trkpt><trkpt lat="44.0699181" lon="12.1237535"><ele>439.0</ele><time>2026-04-06T07:46:02.616Z</time></trkpt><trkpt lat="44.0697922" lon="12.1239601"><ele>437.6666666666667</ele><time>2026-04-06T07:46:03.616Z</time></trkpt><trkpt lat="44.0696684" lon="12.1241717"><ele>436.33333333333337</ele><time>2026-04-06T07:46:04.616Z</time></trkpt><trkpt lat="44.0695473" lon="12.1243664"><ele>435.0</ele><time>2026-04-06T07:46:05.618Z</time></trkpt><trkpt lat="44.0694312" lon="12.1245541"><ele>435.0</ele><time>2026-04-06T07:46:06.616Z</time></trkpt><trkpt lat="44.0693381" lon="12.124697"><ele>435.0</ele><time>2026-04-06T07:46:07.616Z</time></trkpt><trkpt lat="44.0692365" lon="12.1248509"><ele>435.0</ele><time>2026-04-06T07:46:08.618Z</time></trkpt><trkpt lat="44.0691638" lon="12.1249781"><ele>435.0</ele><time>2026-04-06T07:46:09.616Z</time></trkpt><trkpt lat="44.0690948" lon="12.125099"><ele>430.0</ele><time>2026-04-06T07:46:10.616Z</time></trkpt><trkpt lat="44.0690371" lon="12.1252254"><ele>425.0</ele><time>2026-04-06T07:46:11.617Z</time></trkpt><trkpt lat="44.0689909" lon="12.1253559"><ele>420.0</ele><time>2026-04-06T07:46:12.617Z</time></trkpt><trkpt lat="44.0689806" lon="12.1255244"><ele>415.0</ele><time>2026-04-06T07:46:13.616Z</time></trkpt><trkpt lat="44.0689749" lon="12.1257032"><ele>415.0</ele><time>2026-04-06T07:46:14.616Z</time></trkpt><trkpt lat="44.0689813" lon="12.1258852"><ele>415.0</ele><time>2026-04-06T07:46:15.616Z</time></trkpt><trkpt lat="44.0689928" lon="12.1260582"><ele>415.0</ele><time>2026-04-06T07:46:16.617Z</time></trkpt><trkpt lat="44.0689928" lon="12.126243"><ele>415.0</ele><time>2026-04-06T07:46:17.616Z</time></trkpt><trkpt lat="44.0689806" lon="12.1264298"><ele>417.0</ele><time>2026-04-06T07:46:18.617Z</time></trkpt><trkpt lat="44.0689482" lon="12.1266159"><ele>419.0</ele><time>2026-04-06T07:46:19.616Z</time></trkpt><trkpt lat="44.0689094" lon="12.1267892"><ele>421.0</ele><time>2026-04-06T07:46:20.616Z</time></trkpt><trkpt lat="44.068858" lon="12.12696"><ele>423.0</ele><time>2026-04-06T07:46:21.616Z</time></trkpt><trkpt lat="44.068764" lon="12.1271307"><ele>423.0</ele><time>2026-04-06T07:46:22.616Z</time></trkpt><trkpt lat="44.0686741" lon="12.1273172"><ele>423.0</ele><time>2026-04-06T07:46:23.617Z</time></trkpt><trkpt lat="44.0685774" lon="12.127492"><ele>423.0</ele><time>2026-04-06T07:46:24.617Z</time></trkpt><trkpt lat="44.0684792" lon="12.127646"><ele>423.0</ele><time>2026-04-06T07:46:25.617Z</time></trkpt><trkpt lat="44.0683741" lon="12.1277719"><ele>423.0</ele><time>2026-04-06T07:46:26.616Z</time></trkpt><trkpt lat="44.0682703" lon="12.1278715"><ele>423.0</ele><time>2026-04-06T07:46:27.617Z</time></trkpt><trkpt lat="44.0681737" lon="12.1279538"><ele>423.0</ele><time>2026-04-06T07:46:28.617Z</time></trkpt><trkpt lat="44.0681019" lon="12.1280268"><ele>423.0</ele><time>2026-04-06T07:46:29.617Z</time></trkpt><trkpt lat="44.0680435" lon="12.1280949"><ele>423.0</ele><time>2026-04-06T07:46:30.616Z</time></trkpt><trkpt lat="44.0679798" lon="12.1282161"><ele>423.0</ele><time>2026-04-06T07:46:32.616Z</time></trkpt><trkpt lat="44.0679949" lon="12.1283356"><ele>423.0</ele><time>2026-04-06T07:46:34.616Z</time></trkpt><trkpt lat="44.0680592" lon="12.1284874"><ele>423.0</ele><time>2026-04-06T07:46:36.616Z</time></trkpt><trkpt lat="44.0681117" lon="12.1285773"><ele>424.59999999999997</ele><time>2026-04-06T07:46:37.617Z</time></trkpt><trkpt lat="44.0681642" lon="12.1286891"><ele>426.2</ele><time>2026-04-06T07:46:38.616Z</time></trkpt><trkpt lat="44.0682209" lon="12.1288096"><ele>427.8</ele><time>2026-04-06T07:46:39.617Z</time></trkpt><trkpt lat="44.0682771" lon="12.1289372"><ele>429.4</ele><time>2026-04-06T07:46:40.616Z</time></trkpt><trkpt lat="44.0683193" lon="12.129079"><ele>431.0</ele><time>2026-04-06T07:46:41.618Z</time></trkpt><trkpt lat="44.0683602" lon="12.1292292"><ele>433.25</ele><time>2026-04-06T07:46:42.617Z</time></trkpt><trkpt lat="44.0683963" lon="12.1293865"><ele>435.5</ele><time>2026-04-06T07:46:43.616Z</time></trkpt><trkpt lat="44.0684319" lon="12.1295554"><ele>437.75</ele><time>2026-04-06T07:46:44.617Z</time></trkpt><trkpt lat="44.068472" lon="12.1297319"><ele>440.0</ele><time>2026-04-06T07:46:45.616Z</time></trkpt><trkpt lat="44.068496" lon="12.1299227"><ele>440.0</ele><time>2026-04-06T07:46:46.616Z</time></trkpt><trkpt lat="44.0685247" lon="12.1300997"><ele>440.0</ele><time>2026-04-06T07:46:47.616Z</time></trkpt><trkpt lat="44.0685272" lon="12.1302763"><ele>440.0</ele><time>2026-04-06T07:46:48.617Z</time></trkpt><trkpt lat="44.0685081" lon="12.1304595"><ele>440.0</ele><time>2026-04-06T07:46:49.616Z</time></trkpt><trkpt lat="44.0684869" lon="12.1306251"><ele>440.0</ele><time>2026-04-06T07:46:50.616Z</time></trkpt><trkpt lat="44.0684561" lon="12.1307842"><ele>440.0</ele><time>2026-04-06T07:46:51.616Z</time></trkpt><trkpt lat="44.0684228" lon="12.1309209"><ele>440.0</ele><time>2026-04-06T07:46:52.616Z</time></trkpt><trkpt lat="44.0683999" lon="12.1310627"><ele>440.0</ele><time>2026-04-06T07:46:53.616Z</time></trkpt><trkpt lat="44.0683949" lon="12.131211"><ele>440.0</ele><time>2026-04-06T07:46:54.616Z</time></trkpt><trkpt lat="44.0683981" lon="12.1313626"><ele>440.0</ele><time>2026-04-06T07:46:55.617Z</time></trkpt><trkpt lat="44.0684025" lon="12.1315223"><ele>440.0</ele><time>2026-04-06T07:46:56.616Z</time></trkpt><trkpt lat="44.0684046" lon="12.1316895"><ele>440.0</ele><time>2026-04-06T07:46:57.616Z</time></trkpt><trkpt lat="44.068399" lon="12.1318589"><ele>440.0</ele><time>2026-04-06T07:46:58.616Z</time></trkpt><trkpt lat="44.068388" lon="12.1320272"><ele>440.0</ele><time>2026-04-06T07:46:59.616Z</time></trkpt><trkpt lat="44.068379" lon="12.1321859"><ele>440.0</ele><time>2026-04-06T07:47:00.616Z</time></trkpt><trkpt lat="44.0683726" lon="12.1323357"><ele>440.0</ele><time>2026-04-06T07:47:01.617Z</time></trkpt><trkpt lat="44.06839" lon="12.1324803"><ele>440.0</ele><time>2026-04-06T07:47:02.616Z</time></trkpt><trkpt lat="44.0684158" lon="12.1326135"><ele>440.0</ele><time>2026-04-06T07:47:03.616Z</time></trkpt><trkpt lat="44.068448" lon="12.1327515"><ele>440.0</ele><time>2026-04-06T07:47:04.617Z</time></trkpt><trkpt lat="44.0684852" lon="12.1329067"><ele>440.0</ele><time>2026-04-06T07:47:05.616Z</time></trkpt><trkpt lat="44.068517" lon="12.1330681"><ele>440.0</ele><time>2026-04-06T07:47:06.616Z</time></trkpt><trkpt lat="44.068548" lon="12.1332417"><ele>440.0</ele><time>2026-04-06T07:47:07.616Z</time></trkpt><trkpt lat="44.0685676" lon="12.1334091"><ele>438.8</ele><time>2026-04-06T07:47:08.616Z</time></trkpt><trkpt lat="44.0685711" lon="12.1335645"><ele>437.6</ele><time>2026-04-06T07:47:09.616Z</time></trkpt><trkpt lat="44.0685532" lon="12.1337146"><ele>436.4</ele><time>2026-04-06T07:47:10.616Z</time></trkpt><trkpt lat="44.068515" lon="12.1338592"><ele>435.2</ele><time>2026-04-06T07:47:11.616Z</time></trkpt><trkpt lat="44.0684811" lon="12.1340038"><ele>434.0</ele><time>2026-04-06T07:47:12.616Z</time></trkpt><trkpt lat="44.0684582" lon="12.1341489"><ele>432.75</ele><time>2026-04-06T07:47:13.616Z</time></trkpt><trkpt lat="44.0684453" lon="12.1343015"><ele>431.5</ele><time>2026-04-06T07:47:14.616Z</time></trkpt><trkpt lat="44.0684487" lon="12.1344623"><ele>430.25</ele><time>2026-04-06T07:47:15.616Z</time></trkpt><trkpt lat="44.0684524" lon="12.1346299"><ele>429.0</ele><time>2026-04-06T07:47:16.616Z</time></trkpt><trkpt lat="44.0684401" lon="12.1348027"><ele>429.25</ele><time>2026-04-06T07:47:17.617Z</time></trkpt><trkpt lat="44.0684148" lon="12.1349703"><ele>429.5</ele><time>2026-04-06T07:47:18.618Z</time></trkpt><trkpt lat="44.0683914" lon="12.13514"><ele>429.75</ele><time>2026-04-06T07:47:19.616Z</time></trkpt><trkpt lat="44.0683523" lon="12.1353099"><ele>430.0</ele><time>2026-04-06T07:47:20.616Z</time></trkpt><trkpt lat="44.0683142" lon="12.1354911"><ele>430.0</ele><time>2026-04-06T07:47:21.616Z</time></trkpt><trkpt lat="44.0682887" lon="12.1356697"><ele>430.0</ele><time>2026-04-06T07:47:22.617Z</time></trkpt><trkpt lat="44.0682777" lon="12.1358523"><ele>430.0</ele><time>2026-04-06T07:47:23.616Z</time></trkpt><trkpt lat="44.0682707" lon="12.1360373"><ele>430.0</ele><time>2026-04-06T07:47:24.616Z</time></trkpt><trkpt lat="44.0682676" lon="12.1362184"><ele>429.25</ele><time>2026-04-06T07:47:25.616Z</time></trkpt><trkpt lat="44.0682632" lon="12.1364025"><ele>428.5</ele><time>2026-04-06T07:47:26.617Z</time></trkpt><trkpt lat="44.0682547" lon="12.1365794"><ele>427.75</ele><time>2026-04-06T07:47:27.616Z</time></trkpt><trkpt lat="44.0682496" lon="12.1367458"><ele>427.0</ele><time>2026-04-06T07:47:28.616Z</time></trkpt><trkpt lat="44.0682407" lon="12.1368885"><ele>428.83333333333337</ele><time>2026-04-06T07:47:29.616Z</time></trkpt><trkpt lat="44.0682153" lon="12.1370069"><ele>430.6666666666667</ele><time>2026-04-06T07:47:30.616Z</time></trkpt><trkpt lat="44.0681609" lon="12.1370766"><ele>432.5</ele><time>2026-04-06T07:47:31.615Z</time></trkpt><trkpt lat="44.0680985" lon="12.1371079"><ele>434.33333333333337</ele><time>2026-04-06T07:47:32.616Z</time></trkpt><trkpt lat="44.0680246" lon="12.137125"><ele>436.1666666666667</ele><time>2026-04-06T07:47:33.616Z</time></trkpt><trkpt lat="44.0679268" lon="12.1371094"><ele>438.0</ele><time>2026-04-06T07:47:34.616Z</time></trkpt><trkpt lat="44.0678134" lon="12.1370702"><ele>438.0</ele><time>2026-04-06T07:47:35.616Z</time></trkpt><trkpt lat="44.0676629" lon="12.1370688"><ele>438.0</ele><time>2026-04-06T07:47:36.616Z</time></trkpt><trkpt lat="44.067521" lon="12.1370695"><ele>438.0</ele><time>2026-04-06T07:47:37.616Z</time></trkpt><trkpt lat="44.0673776" lon="12.1370856"><ele>438.0</ele><time>2026-04-06T07:47:38.616Z</time></trkpt><trkpt lat="44.0672336" lon="12.137118"><ele>437.75</ele><time>2026-04-06T07:47:39.616Z</time></trkpt><trkpt lat="44.0670988" lon="12.1371518"><ele>437.5</ele><time>2026-04-06T07:47:40.616Z</time></trkpt><trkpt lat="44.0669781" lon="12.1371888"><ele>437.25</ele><time>2026-04-06T07:47:41.616Z</time></trkpt><trkpt lat="44.0668665" lon="12.1372363"><ele>437.0</ele><time>2026-04-06T07:47:42.616Z</time></trkpt><trkpt lat="44.0667701" lon="12.1372867"><ele>436.99999999999994</ele><time>2026-04-06T07:47:43.616Z</time></trkpt><trkpt lat="44.0666885" lon="12.137322"><ele>437.0</ele><time>2026-04-06T07:47:44.616Z</time></trkpt><trkpt lat="44.0666307" lon="12.1373723"><ele>437.0</ele><time>2026-04-06T07:47:45.616Z</time></trkpt><trkpt lat="44.0665818" lon="12.1374429"><ele>437.0</ele><time>2026-04-06T07:47:46.616Z</time></trkpt><trkpt lat="44.0665204" lon="12.1375341"><ele>436.99999999999994</ele><time>2026-04-06T07:47:48.616Z</time></trkpt><trkpt lat="44.0664579" lon="12.1376504"><ele>437.0</ele><time>2026-04-06T07:47:50.616Z</time></trkpt><trkpt lat="44.0663677" lon="12.1377684"><ele>435.85714285714283</ele><time>2026-04-06T07:47:52.616Z</time></trkpt><trkpt lat="44.0663188" lon="12.137825"><ele>434.7142857142857</ele><time>2026-04-06T07:47:53.616Z</time></trkpt><trkpt lat="44.0662578" lon="12.1378908"><ele>433.57142857142856</ele><time>2026-04-06T07:47:54.616Z</time></trkpt><trkpt lat="44.0662061" lon="12.1379477"><ele>432.42857142857144</ele><time>2026-04-06T07:47:55.616Z</time></trkpt><trkpt lat="44.0661292" lon="12.1380376"><ele>431.28571428571433</ele><time>2026-04-06T07:47:57.616Z</time></trkpt><trkpt lat="44.0660934" lon="12.1381199"><ele>430.14285714285717</ele><time>2026-04-06T07:48:00.616Z</time></trkpt><trkpt lat="44.0660799" lon="12.1382055"><ele>429.0</ele><time>2026-04-06T07:48:02.616Z</time></trkpt><trkpt lat="44.0660657" lon="12.1382976"><ele>429.0</ele><time>2026-04-06T07:48:05.616Z</time></trkpt><trkpt lat="44.0660235" lon="12.1382843"><ele>429.0</ele><time>2026-04-06T07:54:48.616Z</time></trkpt><trkpt lat="44.0660666" lon="12.1382044"><ele>429.0</ele><time>2026-04-06T07:54:53.615Z</time></trkpt><trkpt lat="44.0661088" lon="12.1381032"><ele>429.0</ele><time>2026-04-06T07:54:56.615Z</time></trkpt><trkpt lat="44.0661534" lon="12.1380221"><ele>429.0</ele><time>2026-04-06T07:54:58.615Z</time></trkpt><trkpt lat="44.0662407" lon="12.1379401"><ele>429.0</ele><time>2026-04-06T07:55:00.615Z</time></trkpt><trkpt lat="44.0663151" lon="12.1378554"><ele>428.6666666666667</ele><time>2026-04-06T07:55:02.615Z</time></trkpt><trkpt lat="44.0663753" lon="12.1377853"><ele>428.33333333333337</ele><time>2026-04-06T07:55:04.615Z</time></trkpt><trkpt lat="44.0664504" lon="12.1376963"><ele>428.0</ele><time>2026-04-06T07:55:06.615Z</time></trkpt><trkpt lat="44.0665033" lon="12.1376398"><ele>427.6666666666667</ele><time>2026-04-06T07:55:08.616Z</time></trkpt><trkpt lat="44.0665293" lon="12.1375598"><ele>427.33333333333337</ele><time>2026-04-06T07:55:11.615Z</time></trkpt><trkpt lat="44.0664463" lon="12.1375433"><ele>427.0</ele><time>2026-04-06T07:55:15.615Z</time></trkpt><trkpt lat="44.0663352" lon="12.1376563"><ele>427.0</ele><time>2026-04-06T07:55:17.615Z</time></trkpt><trkpt lat="44.0662666" lon="12.1377281"><ele>427.00000000000006</ele><time>2026-04-06T07:55:18.615Z</time></trkpt><trkpt lat="44.0661879" lon="12.137803"><ele>427.00000000000006</ele><time>2026-04-06T07:55:19.615Z</time></trkpt><trkpt lat="44.0661015" lon="12.1378835"><ele>427.0</ele><time>2026-04-06T07:55:20.615Z</time></trkpt><trkpt lat="44.0660097" lon="12.137971"><ele>427.0</ele><time>2026-04-06T07:55:21.615Z</time></trkpt><trkpt lat="44.0659147" lon="12.138059"><ele>427.0</ele><time>2026-04-06T07:55:22.615Z</time></trkpt><trkpt lat="44.0658204" lon="12.1381477"><ele>427.0</ele><time>2026-04-06T07:55:23.615Z</time></trkpt><trkpt lat="44.0657243" lon="12.138242"><ele>427.0</ele><time>2026-04-06T07:55:24.615Z</time></trkpt><trkpt lat="44.0656336" lon="12.1383423"><ele>427.0</ele><time>2026-04-06T07:55:25.615Z</time></trkpt><trkpt lat="44.0655523" lon="12.1384571"><ele>425.25</ele><time>2026-04-06T07:55:26.615Z</time></trkpt><trkpt lat="44.0654856" lon="12.1385816"><ele>423.5</ele><time>2026-04-06T07:55:27.615Z</time></trkpt><trkpt lat="44.0654322" lon="12.138719"><ele>421.75</ele><time>2026-04-06T07:55:28.615Z</time></trkpt><trkpt lat="44.0653878" lon="12.1388611"><ele>420.0</ele><time>2026-04-06T07:55:29.615Z</time></trkpt><trkpt lat="44.0653448" lon="12.1390194"><ele>420.75</ele><time>2026-04-06T07:55:30.615Z</time></trkpt><trkpt lat="44.0653056" lon="12.1391778"><ele>421.5</ele><time>2026-04-06T07:55:31.615Z</time></trkpt><trkpt lat="44.0652777" lon="12.1393314"><ele>422.25</ele><time>2026-04-06T07:55:32.615Z</time></trkpt><trkpt lat="44.0652621" lon="12.1394967"><ele>423.0</ele><time>2026-04-06T07:55:33.615Z</time></trkpt><trkpt lat="44.0652636" lon="12.1396572"><ele>423.0</ele><time>2026-04-06T07:55:34.615Z</time></trkpt><trkpt lat="44.0652671" lon="12.1398095"><ele>423.0</ele><time>2026-04-06T07:55:35.615Z</time></trkpt><trkpt lat="44.065272" lon="12.1399508"><ele>423.0</ele><time>2026-04-06T07:55:36.615Z</time></trkpt><trkpt lat="44.0652596" lon="12.1400828"><ele>423.0</ele><time>2026-04-06T07:55:37.615Z</time></trkpt><trkpt lat="44.0652294" lon="12.1401993"><ele>423.0</ele><time>2026-04-06T07:55:38.615Z</time></trkpt><trkpt lat="44.0651818" lon="12.1402977"><ele>422.59999999999997</ele><time>2026-04-06T07:55:39.615Z</time></trkpt><trkpt lat="44.0651157" lon="12.1403837"><ele>422.2</ele><time>2026-04-06T07:55:40.616Z</time></trkpt><trkpt lat="44.0650366" lon="12.1404726"><ele>421.8</ele><time>2026-04-06T07:55:41.615Z</time></trkpt><trkpt lat="44.0649571" lon="12.1405668"><ele>421.4</ele><time>2026-04-06T07:55:42.614Z</time></trkpt><trkpt lat="44.0648734" lon="12.1406626"><ele>421.0</ele><time>2026-04-06T07:55:43.615Z</time></trkpt><trkpt lat="44.0647793" lon="12.1407584"><ele>420.75</ele><time>2026-04-06T07:55:44.615Z</time></trkpt><trkpt lat="44.0646775" lon="12.1408458"><ele>420.5</ele><time>2026-04-06T07:55:45.615Z</time></trkpt><trkpt lat="44.0645737" lon="12.1409396"><ele>420.25</ele><time>2026-04-06T07:55:46.615Z</time></trkpt><trkpt lat="44.0644638" lon="12.1410351"><ele>420.0</ele><time>2026-04-06T07:55:47.615Z</time></trkpt><trkpt lat="44.064357" lon="12.1411362"><ele>420.0</ele><time>2026-04-06T07:55:48.615Z</time></trkpt><trkpt lat="44.064254" lon="12.141229"><ele>420.0</ele><time>2026-04-06T07:55:49.615Z</time></trkpt><trkpt lat="44.0641583" lon="12.1413158"><ele>420.0</ele><time>2026-04-06T07:55:50.615Z</time></trkpt><trkpt lat="44.0640768" lon="12.1414088"><ele>420.0</ele><time>2026-04-06T07:55:51.615Z</time></trkpt><trkpt lat="44.0640121" lon="12.1415005"><ele>420.0</ele><time>2026-04-06T07:55:52.615Z</time></trkpt><trkpt lat="44.063966" lon="12.1415943"><ele>420.3333333333333</ele><time>2026-04-06T07:55:53.615Z</time></trkpt><trkpt lat="44.0639654" lon="12.1416984"><ele>420.66666666666663</ele><time>2026-04-06T07:55:54.615Z</time></trkpt><trkpt lat="44.0639755" lon="12.1417987"><ele>421.0</ele><time>2026-04-06T07:55:55.615Z</time></trkpt><trkpt lat="44.0640035" lon="12.1418965"><ele>421.3333333333333</ele><time>2026-04-06T07:55:56.615Z</time></trkpt><trkpt lat="44.0640436" lon="12.1420073"><ele>421.66666666666663</ele><time>2026-04-06T07:55:57.615Z</time></trkpt><trkpt lat="44.0640918" lon="12.1421296"><ele>422.0</ele><time>2026-04-06T07:55:58.615Z</time></trkpt><trkpt lat="44.0641413" lon="12.1422605"><ele>421.0</ele><time>2026-04-06T07:55:59.615Z</time></trkpt><trkpt lat="44.0641785" lon="12.1423948"><ele>420.0</ele><time>2026-04-06T07:56:00.615Z</time></trkpt><trkpt lat="44.0642057" lon="12.1425227"><ele>419.0</ele><time>2026-04-06T07:56:01.615Z</time></trkpt><trkpt lat="44.0642221" lon="12.1426546"><ele>418.0</ele><time>2026-04-06T07:56:02.615Z</time></trkpt><trkpt lat="44.0642062" lon="12.1427815"><ele>417.0</ele><time>2026-04-06T07:56:03.615Z</time></trkpt><trkpt lat="44.0641726" lon="12.142909"><ele>417.0</ele><time>2026-04-06T07:56:04.615Z</time></trkpt><trkpt lat="44.0641165" lon="12.1430324"><ele>417.0</ele><time>2026-04-06T07:56:05.615Z</time></trkpt><trkpt lat="44.064046" lon="12.1431564"><ele>417.0</ele><time>2026-04-06T07:56:06.615Z</time></trkpt><trkpt lat="44.0639588" lon="12.1432748"><ele>417.0</ele><time>2026-04-06T07:56:07.614Z</time></trkpt><trkpt lat="44.0638594" lon="12.1433859"><ele>412.75</ele><time>2026-04-06T07:56:08.615Z</time></trkpt><trkpt lat="44.0637448" lon="12.1434837"><ele>408.5</ele><time>2026-04-06T07:56:09.615Z</time></trkpt><trkpt lat="44.0636201" lon="12.1435857"><ele>404.25</ele><time>2026-04-06T07:56:10.615Z</time></trkpt><trkpt lat="44.0634943" lon="12.1436907"><ele>400.0</ele><time>2026-04-06T07:56:11.615Z</time></trkpt><trkpt lat="44.0633644" lon="12.1437953"><ele>397.75</ele><time>2026-04-06T07:56:12.614Z</time></trkpt><trkpt lat="44.063242" lon="12.1438931"><ele>395.5</ele><time>2026-04-06T07:56:13.615Z</time></trkpt><trkpt lat="44.063114" lon="12.1439896"><ele>393.25</ele><time>2026-04-06T07:56:14.615Z</time></trkpt><trkpt lat="44.0629842" lon="12.1440807"><ele>391.0</ele><time>2026-04-06T07:56:15.615Z</time></trkpt><trkpt lat="44.0628644" lon="12.1441832"><ele>391.0</ele><time>2026-04-06T07:56:16.615Z</time></trkpt><trkpt lat="44.0627558" lon="12.1442985"><ele>391.0</ele><time>2026-04-06T07:56:17.615Z</time></trkpt><trkpt lat="44.0626725" lon="12.1444348"><ele>391.0</ele><time>2026-04-06T07:56:18.614Z</time></trkpt><trkpt lat="44.0626051" lon="12.1445808"><ele>391.0</ele><time>2026-04-06T07:56:19.615Z</time></trkpt><trkpt lat="44.0625442" lon="12.1447317"><ele>391.5</ele><time>2026-04-06T07:56:20.615Z</time></trkpt><trkpt lat="44.0624906" lon="12.1448806"><ele>392.0</ele><time>2026-04-06T07:56:21.615Z</time></trkpt><trkpt lat="44.0624531" lon="12.1450277"><ele>392.5</ele><time>2026-04-06T07:56:22.614Z</time></trkpt><trkpt lat="44.0624297" lon="12.145185"><ele>393.0</ele><time>2026-04-06T07:56:23.614Z</time></trkpt><trkpt lat="44.0624475" lon="12.1453619"><ele>393.0</ele><time>2026-04-06T07:56:24.615Z</time></trkpt><trkpt lat="44.0624746" lon="12.1455394"><ele>393.0</ele><time>2026-04-06T07:56:25.615Z</time></trkpt><trkpt lat="44.0625071" lon="12.1457197"><ele>393.0</ele><time>2026-04-06T07:56:26.614Z</time></trkpt><trkpt lat="44.0625146" lon="12.145898"><ele>393.0</ele><time>2026-04-06T07:56:27.615Z</time></trkpt><trkpt lat="44.0624949" lon="12.1460796"><ele>390.25</ele><time>2026-04-06T07:56:28.615Z</time></trkpt><trkpt lat="44.0624635" lon="12.1462703"><ele>387.5</ele><time>2026-04-06T07:56:29.615Z</time></trkpt><trkpt lat="44.0624337" lon="12.1464643"><ele>384.75</ele><time>2026-04-06T07:56:30.614Z</time></trkpt><trkpt lat="44.0624048" lon="12.1466519"><ele>382.0</ele><time>2026-04-06T07:56:31.615Z</time></trkpt><trkpt lat="44.0623758" lon="12.1468306"><ele>377.75</ele><time>2026-04-06T07:56:32.615Z</time></trkpt><trkpt lat="44.0623503" lon="12.1470074"><ele>373.5</ele><time>2026-04-06T07:56:33.615Z</time></trkpt><trkpt lat="44.0623308" lon="12.1471673"><ele>369.25</ele><time>2026-04-06T07:56:34.615Z</time></trkpt><trkpt lat="44.062304" lon="12.1473144"><ele>365.0</ele><time>2026-04-06T07:56:35.615Z</time></trkpt><trkpt lat="44.0622812" lon="12.1474566"><ele>365.0</ele><time>2026-04-06T07:56:36.615Z</time></trkpt><trkpt lat="44.062257" lon="12.1475887"><ele>365.0</ele><time>2026-04-06T07:56:37.615Z</time></trkpt><trkpt lat="44.0622331" lon="12.1477061"><ele>365.0</ele><time>2026-04-06T07:56:38.614Z</time></trkpt><trkpt lat="44.0621907" lon="12.1477778"><ele>365.0</ele><time>2026-04-06T07:56:39.615Z</time></trkpt><trkpt lat="44.0621351" lon="12.1478467"><ele>365.0</ele><time>2026-04-06T07:56:40.615Z</time></trkpt><trkpt lat="44.0620585" lon="12.1478981"><ele>365.0</ele><time>2026-04-06T07:56:41.615Z</time></trkpt><trkpt lat="44.061984" lon="12.1479307"><ele>365.00000000000006</ele><time>2026-04-06T07:56:42.615Z</time></trkpt><trkpt lat="44.061915" lon="12.147934"><ele>365.0</ele><time>2026-04-06T07:56:43.615Z</time></trkpt><trkpt lat="44.0618642" lon="12.1478805"><ele>365.0</ele><time>2026-04-06T07:56:44.614Z</time></trkpt><trkpt lat="44.0618109" lon="12.1478224"><ele>365.0</ele><time>2026-04-06T07:56:45.614Z</time></trkpt><trkpt lat="44.0617927" lon="12.1477293"><ele>365.0</ele><time>2026-04-06T07:56:46.615Z</time></trkpt><trkpt lat="44.061786" lon="12.1476223"><ele>365.00000000000006</ele><time>2026-04-06T07:56:47.615Z</time></trkpt><trkpt lat="44.0617942" lon="12.1474958"><ele>365.0</ele><time>2026-04-06T07:56:48.616Z</time></trkpt><trkpt lat="44.061826" lon="12.1473562"><ele>363.5</ele><time>2026-04-06T07:56:49.615Z</time></trkpt><trkpt lat="44.0618721" lon="12.1472051"><ele>362.0</ele><time>2026-04-06T07:56:50.615Z</time></trkpt><trkpt lat="44.0619187" lon="12.1470517"><ele>360.5</ele><time>2026-04-06T07:56:51.615Z</time></trkpt><trkpt lat="44.0619691" lon="12.1469112"><ele>359.0</ele><time>2026-04-06T07:56:52.615Z</time></trkpt><trkpt lat="44.0620174" lon="12.1467865"><ele>359.0</ele><time>2026-04-06T07:56:53.615Z</time></trkpt><trkpt lat="44.0620596" lon="12.1466659"><ele>359.0</ele><time>2026-04-06T07:56:54.615Z</time></trkpt><trkpt lat="44.062096" lon="12.1465525"><ele>359.0</ele><time>2026-04-06T07:56:55.615Z</time></trkpt><trkpt lat="44.0621223" lon="12.1464458"><ele>359.0</ele><time>2026-04-06T07:56:56.616Z</time></trkpt><trkpt lat="44.0621503" lon="12.1463414"><ele>359.0</ele><time>2026-04-06T07:56:57.614Z</time></trkpt><trkpt lat="44.0621718" lon="12.1462568"><ele>359.0</ele><time>2026-04-06T07:56:58.615Z</time></trkpt><trkpt lat="44.0621284" lon="12.1461429"><ele>359.0</ele><time>2026-04-06T07:57:00.616Z</time></trkpt><trkpt lat="44.0620416" lon="12.1461402"><ele>359.0</ele><time>2026-04-06T07:57:02.614Z</time></trkpt><trkpt lat="44.0619834" lon="12.1462229"><ele>359.0</ele><time>2026-04-06T07:57:04.615Z</time></trkpt><trkpt lat="44.0619621" lon="12.1463178"><ele>359.0</ele><time>2026-04-06T07:57:05.615Z</time></trkpt><trkpt lat="44.0619326" lon="12.1464223"><ele>359.0</ele><time>2026-04-06T07:57:06.615Z</time></trkpt><trkpt lat="44.0618866" lon="12.146558"><ele>359.0</ele><time>2026-04-06T07:57:07.615Z</time></trkpt><trkpt lat="44.0618416" lon="12.1466897"><ele>359.0</ele><time>2026-04-06T07:57:08.615Z</time></trkpt><trkpt lat="44.0617869" lon="12.1468199"><ele>359.0</ele><time>2026-04-06T07:57:09.615Z</time></trkpt><trkpt lat="44.0617223" lon="12.1469541"><ele>359.0</ele><time>2026-04-06T07:57:10.615Z</time></trkpt><trkpt lat="44.0616575" lon="12.1470789"><ele>359.0</ele><time>2026-04-06T07:57:11.614Z</time></trkpt><trkpt lat="44.0615865" lon="12.1471885"><ele>359.0</ele><time>2026-04-06T07:57:12.614Z</time></trkpt><trkpt lat="44.0615254" lon="12.1472946"><ele>355.4</ele><time>2026-04-06T07:57:13.615Z</time></trkpt><trkpt lat="44.061472" lon="12.147403"><ele>351.79999999999995</ele><time>2026-04-06T07:57:14.615Z</time></trkpt><trkpt lat="44.061433" lon="12.1475294"><ele>348.20000000000005</ele><time>2026-04-06T07:57:15.614Z</time></trkpt><trkpt lat="44.0614065" lon="12.1476845"><ele>344.6</ele><time>2026-04-06T07:57:16.615Z</time></trkpt><trkpt lat="44.0613892" lon="12.1478527"><ele>341.0</ele><time>2026-04-06T07:57:17.615Z</time></trkpt><trkpt lat="44.0613791" lon="12.1480278"><ele>341.0</ele><time>2026-04-06T07:57:18.615Z</time></trkpt><trkpt lat="44.0613679" lon="12.1481984"><ele>341.0</ele><time>2026-04-06T07:57:19.614Z</time></trkpt><trkpt lat="44.0613376" lon="12.1483665"><ele>341.0</ele><time>2026-04-06T07:57:20.615Z</time></trkpt><trkpt lat="44.0612973" lon="12.1485402"><ele>341.0</ele><time>2026-04-06T07:57:21.614Z</time></trkpt><trkpt lat="44.061248" lon="12.1486993"><ele>341.6</ele><time>2026-04-06T07:57:22.615Z</time></trkpt><trkpt lat="44.0611887" lon="12.1488478"><ele>342.20000000000005</ele><time>2026-04-06T07:57:23.614Z</time></trkpt><trkpt lat="44.0611274" lon="12.1489837"><ele>342.79999999999995</ele><time>2026-04-06T07:57:24.616Z</time></trkpt><trkpt lat="44.061087" lon="12.1491182"><ele>343.4</ele><time>2026-04-06T07:57:25.615Z</time></trkpt><trkpt lat="44.0610659" lon="12.1492603"><ele>344.0</ele><time>2026-04-06T07:57:26.615Z</time></trkpt><trkpt lat="44.061049" lon="12.1494178"><ele>345.5</ele><time>2026-04-06T07:57:27.615Z</time></trkpt><trkpt lat="44.0610347" lon="12.1495984"><ele>347.0</ele><time>2026-04-06T07:57:28.615Z</time></trkpt><trkpt lat="44.0610099" lon="12.1497866"><ele>348.5</ele><time>2026-04-06T07:57:29.615Z</time></trkpt><trkpt lat="44.0609859" lon="12.1499624"><ele>350.0</ele><time>2026-04-06T07:57:30.615Z</time></trkpt><trkpt lat="44.0609567" lon="12.1501358"><ele>350.4</ele><time>2026-04-06T07:57:31.614Z</time></trkpt><trkpt lat="44.0609219" lon="12.1503033"><ele>350.8</ele><time>2026-04-06T07:57:32.615Z</time></trkpt><trkpt lat="44.0608816" lon="12.15045"><ele>351.20000000000005</ele><time>2026-04-06T07:57:33.614Z</time></trkpt><trkpt lat="44.0608317" lon="12.1505656"><ele>351.6</ele><time>2026-04-06T07:57:34.615Z</time></trkpt><trkpt lat="44.060777" lon="12.1506726"><ele>352.0</ele><time>2026-04-06T07:57:35.615Z</time></trkpt><trkpt lat="44.0606974" lon="12.1507619"><ele>348.75</ele><time>2026-04-06T07:57:36.614Z</time></trkpt><trkpt lat="44.0606092" lon="12.1508542"><ele>345.5</ele><time>2026-04-06T07:57:37.615Z</time></trkpt><trkpt lat="44.060516" lon="12.1509545"><ele>342.25</ele><time>2026-04-06T07:57:38.615Z</time></trkpt><trkpt lat="44.0604123" lon="12.1510594"><ele>339.0</ele><time>2026-04-06T07:57:39.615Z</time></trkpt><trkpt lat="44.0603008" lon="12.1511688"><ele>339.0</ele><time>2026-04-06T07:57:40.615Z</time></trkpt><trkpt lat="44.0601863" lon="12.1512846"><ele>339.0</ele><time>2026-04-06T07:57:41.615Z</time></trkpt><trkpt lat="44.0600758" lon="12.1514078"><ele>339.0</ele><time>2026-04-06T07:57:42.615Z</time></trkpt><trkpt lat="44.0599703" lon="12.1515414"><ele>339.0</ele><time>2026-04-06T07:57:43.615Z</time></trkpt><trkpt lat="44.0598597" lon="12.1516716"><ele>335.25</ele><time>2026-04-06T07:57:44.615Z</time></trkpt><trkpt lat="44.0597483" lon="12.1518016"><ele>331.5</ele><time>2026-04-06T07:57:45.614Z</time></trkpt><trkpt lat="44.0596373" lon="12.151925"><ele>327.75</ele><time>2026-04-06T07:57:46.614Z</time></trkpt><trkpt lat="44.059528" lon="12.152036"><ele>324.0</ele><time>2026-04-06T07:57:47.614Z</time></trkpt><trkpt lat="44.0594129" lon="12.1521456"><ele>324.0</ele><time>2026-04-06T07:57:48.615Z</time></trkpt><trkpt lat="44.0592959" lon="12.1522679"><ele>324.0</ele><time>2026-04-06T07:57:49.615Z</time></trkpt><trkpt lat="44.0591868" lon="12.15238"><ele>324.0</ele><time>2026-04-06T07:57:50.615Z</time></trkpt><trkpt lat="44.0590832" lon="12.1524938"><ele>324.0</ele><time>2026-04-06T07:57:51.614Z</time></trkpt><trkpt lat="44.0589958" lon="12.1526082"><ele>322.5</ele><time>2026-04-06T07:57:52.614Z</time></trkpt><trkpt lat="44.0589176" lon="12.152723"><ele>321.0</ele><time>2026-04-06T07:57:53.614Z</time></trkpt><trkpt lat="44.0588555" lon="12.1528525"><ele>319.5</ele><time>2026-04-06T07:57:54.615Z</time></trkpt><trkpt lat="44.0588179" lon="12.1529985"><ele>318.0</ele><time>2026-04-06T07:57:55.614Z</time></trkpt><trkpt lat="44.0587935" lon="12.1531524"><ele>318.5</ele><time>2026-04-06T07:57:56.615Z</time></trkpt><trkpt lat="44.0587736" lon="12.1533168"><ele>319.0</ele><time>2026-04-06T07:57:57.614Z</time></trkpt><trkpt lat="44.0587577" lon="12.1534928"><ele>319.5</ele><time>2026-04-06T07:57:58.614Z</time></trkpt><trkpt lat="44.0587441" lon="12.1536738"><ele>320.0</ele><time>2026-04-06T07:57:59.615Z</time></trkpt><trkpt lat="44.0587247" lon="12.1538586"><ele>320.0</ele><time>2026-04-06T07:58:00.615Z</time></trkpt><trkpt lat="44.0587061" lon="12.1540333"><ele>320.0</ele><time>2026-04-06T07:58:01.615Z</time></trkpt><trkpt lat="44.0586938" lon="12.1542036"><ele>320.0</ele><time>2026-04-06T07:58:02.615Z</time></trkpt><trkpt lat="44.0586807" lon="12.1543714"><ele>320.0</ele><time>2026-04-06T07:58:03.614Z</time></trkpt><trkpt lat="44.0586646" lon="12.154525"><ele>320.0</ele><time>2026-04-06T07:58:04.614Z</time></trkpt><trkpt lat="44.0586408" lon="12.1546802"><ele>320.0</ele><time>2026-04-06T07:58:05.614Z</time></trkpt><trkpt lat="44.0586025" lon="12.154824"><ele>320.0</ele><time>2026-04-06T07:58:06.614Z</time></trkpt><trkpt lat="44.0585493" lon="12.1549706"><ele>320.0</ele><time>2026-04-06T07:58:07.614Z</time></trkpt><trkpt lat="44.0584879" lon="12.1551113"><ele>320.0</ele><time>2026-04-06T07:58:08.614Z</time></trkpt><trkpt lat="44.0583899" lon="12.1552477"><ele>320.0</ele><time>2026-04-06T07:58:09.615Z</time></trkpt><trkpt lat="44.0582964" lon="12.1553828"><ele>320.0</ele><time>2026-04-06T07:58:10.615Z</time></trkpt><trkpt lat="44.0581932" lon="12.1555146"><ele>320.0</ele><time>2026-04-06T07:58:11.613Z</time></trkpt><trkpt lat="44.0580805" lon="12.1556582"><ele>314.0</ele><time>2026-04-06T07:58:12.614Z</time></trkpt><trkpt lat="44.0579576" lon="12.1557928"><ele>308.0</ele><time>2026-04-06T07:58:13.615Z</time></trkpt><trkpt lat="44.0578334" lon="12.1559164"><ele>302.0</ele><time>2026-04-06T07:58:14.614Z</time></trkpt><trkpt lat="44.057709" lon="12.1560287"><ele>302.0</ele><time>2026-04-06T07:58:15.615Z</time></trkpt><trkpt lat="44.0575891" lon="12.1561421"><ele>302.0</ele><time>2026-04-06T07:58:16.615Z</time></trkpt><trkpt lat="44.0574781" lon="12.1562749"><ele>302.0</ele><time>2026-04-06T07:58:17.614Z</time></trkpt><trkpt lat="44.0573719" lon="12.1564288"><ele>302.0</ele><time>2026-04-06T07:58:18.614Z</time></trkpt><trkpt lat="44.0572669" lon="12.1565828"><ele>300.75</ele><time>2026-04-06T07:58:19.614Z</time></trkpt><trkpt lat="44.0571668" lon="12.1567481"><ele>299.5</ele><time>2026-04-06T07:58:20.614Z</time></trkpt><trkpt lat="44.0570762" lon="12.1569041"><ele>298.25</ele><time>2026-04-06T07:58:21.615Z</time></trkpt><trkpt lat="44.0569901" lon="12.1570595"><ele>297.0</ele><time>2026-04-06T07:58:22.614Z</time></trkpt><trkpt lat="44.0569047" lon="12.1572233"><ele>296.5</ele><time>2026-04-06T07:58:23.614Z</time></trkpt><trkpt lat="44.0568229" lon="12.1573896"><ele>296.0</ele><time>2026-04-06T07:58:24.615Z</time></trkpt><trkpt lat="44.0567417" lon="12.1575495"><ele>295.5</ele><time>2026-04-06T07:58:25.615Z</time></trkpt><trkpt lat="44.0566668" lon="12.1576879"><ele>295.0</ele><time>2026-04-06T07:58:26.615Z</time></trkpt><trkpt lat="44.0565885" lon="12.1578365"><ele>295.0</ele><time>2026-04-06T07:58:27.614Z</time></trkpt><trkpt lat="44.0565089" lon="12.1579865"><ele>295.0</ele><time>2026-04-06T07:58:28.615Z</time></trkpt><trkpt lat="44.0564201" lon="12.1581322"><ele>295.0</ele><time>2026-04-06T07:58:29.614Z</time></trkpt><trkpt lat="44.0563328" lon="12.1582629"><ele>295.0</ele><time>2026-04-06T07:58:30.614Z</time></trkpt><trkpt lat="44.0562466" lon="12.1583747"><ele>294.6</ele><time>2026-04-06T07:58:31.615Z</time></trkpt><trkpt lat="44.0561589" lon="12.1584754"><ele>294.2</ele><time>2026-04-06T07:58:32.614Z</time></trkpt><trkpt lat="44.0560752" lon="12.1585818"><ele>293.8</ele><time>2026-04-06T07:58:33.614Z</time></trkpt><trkpt lat="44.0560275" lon="12.158707"><ele>293.4</ele><time>2026-04-06T07:58:34.615Z</time></trkpt><trkpt lat="44.0559955" lon="12.1588462"><ele>293.0</ele><time>2026-04-06T07:58:35.615Z</time></trkpt><trkpt lat="44.0559843" lon="12.1589999"><ele>292.75</ele><time>2026-04-06T07:58:36.615Z</time></trkpt><trkpt lat="44.0559764" lon="12.1591705"><ele>292.5</ele><time>2026-04-06T07:58:37.614Z</time></trkpt><trkpt lat="44.0559693" lon="12.1593317"><ele>292.25</ele><time>2026-04-06T07:58:38.615Z</time></trkpt><trkpt lat="44.0559627" lon="12.1594859"><ele>292.0</ele><time>2026-04-06T07:58:39.615Z</time></trkpt><trkpt lat="44.0559462" lon="12.1596337"><ele>292.0</ele><time>2026-04-06T07:58:40.614Z</time></trkpt><trkpt lat="44.0559121" lon="12.1597814"><ele>292.0</ele><time>2026-04-06T07:58:41.615Z</time></trkpt><trkpt lat="44.0558471" lon="12.1599244"><ele>292.0</ele><time>2026-04-06T07:58:42.615Z</time></trkpt><trkpt lat="44.0557687" lon="12.1600637"><ele>292.0</ele><time>2026-04-06T07:58:43.615Z</time></trkpt><trkpt lat="44.0556931" lon="12.1602106"><ele>293.5</ele><time>2026-04-06T07:58:44.615Z</time></trkpt><trkpt lat="44.0556315" lon="12.160366"><ele>295.0</ele><time>2026-04-06T07:58:45.615Z</time></trkpt><trkpt lat="44.0555873" lon="12.1605382"><ele>296.5</ele><time>2026-04-06T07:58:46.615Z</time></trkpt><trkpt lat="44.0555817" lon="12.1607094"><ele>298.0</ele><time>2026-04-06T07:58:47.614Z</time></trkpt><trkpt lat="44.0555754" lon="12.1608693"><ele>298.0</ele><time>2026-04-06T07:58:48.615Z</time></trkpt><trkpt lat="44.055573" lon="12.1610254"><ele>298.0</ele><time>2026-04-06T07:58:49.614Z</time></trkpt><trkpt lat="44.0555656" lon="12.1611532"><ele>298.0</ele><time>2026-04-06T07:58:50.615Z</time></trkpt><trkpt lat="44.0555416" lon="12.1612745"><ele>298.0</ele><time>2026-04-06T07:58:51.615Z</time></trkpt><trkpt lat="44.0555085" lon="12.1613784"><ele>298.0</ele><time>2026-04-06T07:58:52.614Z</time></trkpt><trkpt lat="44.0554488" lon="12.1614443"><ele>298.0</ele><time>2026-04-06T07:58:53.614Z</time></trkpt><trkpt lat="44.0553607" lon="12.1614511"><ele>298.0</ele><time>2026-04-06T07:58:54.614Z</time></trkpt><trkpt lat="44.0552715" lon="12.1614545"><ele>298.0</ele><time>2026-04-06T07:58:55.614Z</time></trkpt><trkpt lat="44.055197" lon="12.1614689"><ele>298.0</ele><time>2026-04-06T07:58:56.614Z</time></trkpt><trkpt lat="44.0551208" lon="12.1615617"><ele>298.0</ele><time>2026-04-06T07:58:58.614Z</time></trkpt><trkpt lat="44.0551222" lon="12.1616522"><ele>298.0</ele><time>2026-04-06T07:58:59.614Z</time></trkpt><trkpt lat="44.0551519" lon="12.1617605"><ele>296.4</ele><time>2026-04-06T07:59:00.615Z</time></trkpt><trkpt lat="44.0552035" lon="12.1618825"><ele>294.8</ele><time>2026-04-06T07:59:01.614Z</time></trkpt><trkpt lat="44.0552633" lon="12.1620052"><ele>293.2</ele><time>2026-04-06T07:59:02.615Z</time></trkpt><trkpt lat="44.0553315" lon="12.1621096"><ele>291.6</ele><time>2026-04-06T07:59:03.614Z</time></trkpt><trkpt lat="44.0554011" lon="12.1621871"><ele>290.0</ele><time>2026-04-06T07:59:04.614Z</time></trkpt><trkpt lat="44.0554688" lon="12.1622332"><ele>290.0</ele><time>2026-04-06T07:59:05.614Z</time></trkpt><trkpt lat="44.055539" lon="12.1622646"><ele>290.0</ele><time>2026-04-06T07:59:06.614Z</time></trkpt><trkpt lat="44.0556094" lon="12.1622289"><ele>290.0</ele><time>2026-04-06T07:59:07.614Z</time></trkpt><trkpt lat="44.0556751" lon="12.1621825"><ele>290.0</ele><time>2026-04-06T07:59:08.614Z</time></trkpt><trkpt lat="44.0557475" lon="12.1620851"><ele>290.0</ele><time>2026-04-06T07:59:09.614Z</time></trkpt><trkpt lat="44.0558217" lon="12.1619764"><ele>290.0</ele><time>2026-04-06T07:59:10.614Z</time></trkpt><trkpt lat="44.0558943" lon="12.1618465"><ele>289.25</ele><time>2026-04-06T07:59:11.614Z</time></trkpt><trkpt lat="44.0559722" lon="12.1617189"><ele>288.5</ele><time>2026-04-06T07:59:12.614Z</time></trkpt><trkpt lat="44.0560428" lon="12.1615968"><ele>287.75</ele><time>2026-04-06T07:59:13.614Z</time></trkpt><trkpt lat="44.0561126" lon="12.1614754"><ele>287.0</ele><time>2026-04-06T07:59:14.615Z</time></trkpt><trkpt lat="44.0561729" lon="12.1613537"><ele>287.0</ele><time>2026-04-06T07:59:15.615Z</time></trkpt><trkpt lat="44.0562304" lon="12.1612309"><ele>287.0</ele><time>2026-04-06T07:59:16.615Z</time></trkpt><trkpt lat="44.0562844" lon="12.1611327"><ele>287.0</ele><time>2026-04-06T07:59:17.616Z</time></trkpt><trkpt lat="44.0563404" lon="12.1610471"><ele>287.0</ele><time>2026-04-06T07:59:18.614Z</time></trkpt><trkpt lat="44.0563929" lon="12.1609746"><ele>287.0</ele><time>2026-04-06T07:59:19.614Z</time></trkpt><trkpt lat="44.0564738" lon="12.1609203"><ele>287.0</ele><time>2026-04-06T07:59:21.615Z</time></trkpt><trkpt lat="44.0565351" lon="12.1609659"><ele>287.0</ele><time>2026-04-06T07:59:23.615Z</time></trkpt><trkpt lat="44.0565517" lon="12.1610657"><ele>287.0</ele><time>2026-04-06T07:59:25.615Z</time></trkpt><trkpt lat="44.0565321" lon="12.1612602"><ele>287.0</ele><time>2026-04-06T07:59:27.614Z</time></trkpt><trkpt lat="44.0565228" lon="12.1613893"><ele>287.0</ele><time>2026-04-06T07:59:28.614Z</time></trkpt><trkpt lat="44.0565297" lon="12.1615384"><ele>287.0</ele><time>2026-04-06T07:59:29.614Z</time></trkpt><trkpt lat="44.056543" lon="12.1617084"><ele>285.5</ele><time>2026-04-06T07:59:30.614Z</time></trkpt><trkpt lat="44.0565661" lon="12.1618839"><ele>284.0</ele><time>2026-04-06T07:59:31.614Z</time></trkpt><trkpt lat="44.0565991" lon="12.1620556"><ele>282.5</ele><time>2026-04-06T07:59:32.614Z</time></trkpt><trkpt lat="44.0566272" lon="12.1622332"><ele>281.0</ele><time>2026-04-06T07:59:33.614Z</time></trkpt><trkpt lat="44.056651" lon="12.1624094"><ele>273.25</ele><time>2026-04-06T07:59:34.615Z</time></trkpt><trkpt lat="44.0566706" lon="12.1625881"><ele>265.5</ele><time>2026-04-06T07:59:35.614Z</time></trkpt><trkpt lat="44.0566809" lon="12.1627709"><ele>257.75</ele><time>2026-04-06T07:59:36.614Z</time></trkpt><trkpt lat="44.0566834" lon="12.1629482"><ele>250.0</ele><time>2026-04-06T07:59:37.614Z</time></trkpt><trkpt lat="44.0566859" lon="12.1631246"><ele>248.25</ele><time>2026-04-06T07:59:38.615Z</time></trkpt><trkpt lat="44.056684" lon="12.1633044"><ele>246.5</ele><time>2026-04-06T07:59:39.615Z</time></trkpt><trkpt lat="44.0566827" lon="12.1634841"><ele>244.75</ele><time>2026-04-06T07:59:40.615Z</time></trkpt><trkpt lat="44.0566867" lon="12.1636655"><ele>243.0</ele><time>2026-04-06T07:59:41.614Z</time></trkpt><trkpt lat="44.0566966" lon="12.1638306"><ele>243.0</ele><time>2026-04-06T07:59:42.615Z</time></trkpt><trkpt lat="44.0567222" lon="12.1639868"><ele>243.0</ele><time>2026-04-06T07:59:43.614Z</time></trkpt><trkpt lat="44.0567749" lon="12.1641279"><ele>243.0</ele><time>2026-04-06T07:59:44.615Z</time></trkpt><trkpt lat="44.0568502" lon="12.1642418"><ele>243.0</ele><time>2026-04-06T07:59:45.614Z</time></trkpt><trkpt lat="44.0569409" lon="12.1643318"><ele>240.0</ele><time>2026-04-06T07:59:46.615Z</time></trkpt><trkpt lat="44.0570239" lon="12.1644399"><ele>237.0</ele><time>2026-04-06T07:59:47.614Z</time></trkpt><trkpt lat="44.0570943" lon="12.1645778"><ele>234.0</ele><time>2026-04-06T07:59:48.614Z</time></trkpt><trkpt lat="44.0571479" lon="12.1647275"><ele>231.0</ele><time>2026-04-06T07:59:49.614Z</time></trkpt><trkpt lat="44.057183" lon="12.1648939"><ele>229.0</ele><time>2026-04-06T07:59:50.615Z</time></trkpt><trkpt lat="44.0571973" lon="12.1650692"><ele>227.0</ele><time>2026-04-06T07:59:51.615Z</time></trkpt><trkpt lat="44.0572027" lon="12.1652475"><ele>225.0</ele><time>2026-04-06T07:59:52.615Z</time></trkpt><trkpt lat="44.0572094" lon="12.1654207"><ele>223.0</ele><time>2026-04-06T07:59:53.615Z</time></trkpt><trkpt lat="44.0572141" lon="12.1655941"><ele>220.60000000000002</ele><time>2026-04-06T07:59:54.614Z</time></trkpt><trkpt lat="44.0572141" lon="12.1657458"><ele>218.20000000000002</ele><time>2026-04-06T07:59:55.615Z</time></trkpt><trkpt lat="44.0572152" lon="12.1658607"><ele>215.8</ele><time>2026-04-06T07:59:56.615Z</time></trkpt><trkpt lat="44.0572194" lon="12.1659655"><ele>213.4</ele><time>2026-04-06T07:59:57.615Z</time></trkpt><trkpt lat="44.0572907" lon="12.1660892"><ele>211.0</ele><time>2026-04-06T07:59:59.614Z</time></trkpt><trkpt lat="44.0573859" lon="12.1660847"><ele>211.66666666666666</ele><time>2026-04-06T08:00:01.614Z</time></trkpt><trkpt lat="44.0574555" lon="12.1659981"><ele>212.33333333333331</ele><time>2026-04-06T08:00:03.615Z</time></trkpt><trkpt lat="44.0574911" lon="12.1659223"><ele>213.0</ele><time>2026-04-06T08:00:04.615Z</time></trkpt><trkpt lat="44.0575723" lon="12.165843"><ele>213.66666666666669</ele><time>2026-04-06T08:00:06.615Z</time></trkpt><trkpt lat="44.0576311" lon="12.165923"><ele>214.33333333333334</ele><time>2026-04-06T08:00:08.615Z</time></trkpt><trkpt lat="44.0575925" lon="12.1660612"><ele>215.0</ele><time>2026-04-06T08:00:10.615Z</time></trkpt><trkpt lat="44.0575322" lon="12.1662132"><ele>215.0</ele><time>2026-04-06T08:00:12.615Z</time></trkpt><trkpt lat="44.0574677" lon="12.1663659"><ele>215.0</ele><time>2026-04-06T08:00:14.615Z</time></trkpt><trkpt lat="44.0574349" lon="12.1664516"><ele>215.0</ele><time>2026-04-06T08:00:15.614Z</time></trkpt><trkpt lat="44.0573883" lon="12.1665589"><ele>215.0</ele><time>2026-04-06T08:00:16.615Z</time></trkpt><trkpt lat="44.0573445" lon="12.1666863"><ele>215.0</ele><time>2026-04-06T08:00:17.615Z</time></trkpt><trkpt lat="44.0573069" lon="12.1668404"><ele>210.5</ele><time>2026-04-06T08:00:18.614Z</time></trkpt><trkpt lat="44.0572712" lon="12.1670078"><ele>206.0</ele><time>2026-04-06T08:00:19.615Z</time></trkpt><trkpt lat="44.0572229" lon="12.167191"><ele>201.5</ele><time>2026-04-06T08:00:20.614Z</time></trkpt><trkpt lat="44.0571722" lon="12.1673714"><ele>197.0</ele><time>2026-04-06T08:00:21.614Z</time></trkpt><trkpt lat="44.0571235" lon="12.1675513"><ele>196.5</ele><time>2026-04-06T08:00:22.614Z</time></trkpt><trkpt lat="44.0570706" lon="12.1677296"><ele>196.0</ele><time>2026-04-06T08:00:23.614Z</time></trkpt><trkpt lat="44.0570144" lon="12.1678967"><ele>195.5</ele><time>2026-04-06T08:00:24.616Z</time></trkpt><trkpt lat="44.0569501" lon="12.1680624"><ele>195.0</ele><time>2026-04-06T08:00:25.614Z</time></trkpt><trkpt lat="44.0568872" lon="12.1682199"><ele>194.75</ele><time>2026-04-06T08:00:26.615Z</time></trkpt><trkpt lat="44.0568233" lon="12.1683751"><ele>194.5</ele><time>2026-04-06T08:00:27.614Z</time></trkpt><trkpt lat="44.0567572" lon="12.1685378"><ele>194.25</ele><time>2026-04-06T08:00:28.614Z</time></trkpt><trkpt lat="44.0567011" lon="12.1687159"><ele>194.0</ele><time>2026-04-06T08:00:29.615Z</time></trkpt><trkpt lat="44.0566434" lon="12.1688964"><ele>188.0</ele><time>2026-04-06T08:00:30.614Z</time></trkpt><trkpt lat="44.0565903" lon="12.169086"><ele>182.0</ele><time>2026-04-06T08:00:31.614Z</time></trkpt><trkpt lat="44.056546" lon="12.1692819"><ele>176.0</ele><time>2026-04-06T08:00:32.615Z</time></trkpt><trkpt lat="44.0565065" lon="12.1694733"><ele>170.0</ele><time>2026-04-06T08:00:33.614Z</time></trkpt><trkpt lat="44.0564762" lon="12.1696454"><ele>170.0</ele><time>2026-04-06T08:00:34.615Z</time></trkpt><trkpt lat="44.0564389" lon="12.1698167"><ele>170.0</ele><time>2026-04-06T08:00:35.614Z</time></trkpt><trkpt lat="44.0563944" lon="12.1700064"><ele>170.0</ele><time>2026-04-06T08:00:36.615Z</time></trkpt><trkpt lat="44.0563507" lon="12.1701975"><ele>170.0</ele><time>2026-04-06T08:00:37.614Z</time></trkpt><trkpt lat="44.0563153" lon="12.1703883"><ele>171.0</ele><time>2026-04-06T08:00:38.614Z</time></trkpt><trkpt lat="44.0562861" lon="12.1705742"><ele>172.0</ele><time>2026-04-06T08:00:39.615Z</time></trkpt><trkpt lat="44.0562635" lon="12.1707577"><ele>173.0</ele><time>2026-04-06T08:00:40.615Z</time></trkpt><trkpt lat="44.0562444" lon="12.1709378"><ele>174.0</ele><time>2026-04-06T08:00:41.614Z</time></trkpt><trkpt lat="44.0562213" lon="12.171115"><ele>174.39999999999998</ele><time>2026-04-06T08:00:42.616Z</time></trkpt><trkpt lat="44.0561941" lon="12.1712501"><ele>174.8</ele><time>2026-04-06T08:00:43.615Z</time></trkpt><trkpt lat="44.0561583" lon="12.1713807"><ele>175.2</ele><time>2026-04-06T08:00:44.615Z</time></trkpt><trkpt lat="44.0560996" lon="12.1714827"><ele>175.60000000000002</ele><time>2026-04-06T08:00:45.615Z</time></trkpt><trkpt lat="44.0560367" lon="12.1715929"><ele>176.0</ele><time>2026-04-06T08:00:46.614Z</time></trkpt><trkpt lat="44.0559636" lon="12.1716918"><ele>175.0</ele><time>2026-04-06T08:00:47.615Z</time></trkpt><trkpt lat="44.055886" lon="12.1717746"><ele>174.0</ele><time>2026-04-06T08:00:48.614Z</time></trkpt><trkpt lat="44.0558185" lon="12.1718003"><ele>173.0</ele><time>2026-04-06T08:00:49.615Z</time></trkpt><trkpt lat="44.0557435" lon="12.1718043"><ele>172.0</ele><time>2026-04-06T08:00:50.614Z</time></trkpt><trkpt lat="44.055672" lon="12.1717849"><ele>171.0</ele><time>2026-04-06T08:00:51.614Z</time></trkpt><trkpt lat="44.0556085" lon="12.1717785"><ele>170.0</ele><time>2026-04-06T08:00:52.615Z</time></trkpt><trkpt lat="44.0555174" lon="12.1718568"><ele>166.4</ele><time>2026-04-06T08:00:54.614Z</time></trkpt><trkpt lat="44.0555028" lon="12.1719835"><ele>162.8</ele><time>2026-04-06T08:00:56.614Z</time></trkpt><trkpt lat="44.05554" lon="12.1721353"><ele>159.2</ele><time>2026-04-06T08:00:58.614Z</time></trkpt><trkpt lat="44.0555833" lon="12.1722224"><ele>155.6</ele><time>2026-04-06T08:00:59.614Z</time></trkpt><trkpt lat="44.055646" lon="12.1723039"><ele>152.0</ele><time>2026-04-06T08:01:00.615Z</time></trkpt><trkpt lat="44.055724" lon="12.1723893"><ele>152.79999999999998</ele><time>2026-04-06T08:01:01.615Z</time></trkpt><trkpt lat="44.0558125" lon="12.1724731"><ele>153.6</ele><time>2026-04-06T08:01:02.615Z</time></trkpt><trkpt lat="44.0559084" lon="12.1725591"><ele>154.39999999999998</ele><time>2026-04-06T08:01:03.614Z</time></trkpt><trkpt lat="44.0560035" lon="12.1726405"><ele>155.2</ele><time>2026-04-06T08:01:04.614Z</time></trkpt><trkpt lat="44.056095" lon="12.1727262"><ele>156.0</ele><time>2026-04-06T08:01:05.614Z</time></trkpt><trkpt lat="44.0561739" lon="12.1728188"><ele>156.0</ele><time>2026-04-06T08:01:06.615Z</time></trkpt><trkpt lat="44.0562217" lon="12.1729184"><ele>156.0</ele><time>2026-04-06T08:01:07.614Z</time></trkpt><trkpt lat="44.0562503" lon="12.1730224"><ele>156.0</ele><time>2026-04-06T08:01:08.615Z</time></trkpt><trkpt lat="44.0562507" lon="12.1731184"><ele>156.0</ele><time>2026-04-06T08:01:09.614Z</time></trkpt><trkpt lat="44.0562324" lon="12.1732092"><ele>156.0</ele><time>2026-04-06T08:01:10.614Z</time></trkpt><trkpt lat="44.0561847" lon="12.1732724"><ele>156.0</ele><time>2026-04-06T08:01:11.614Z</time></trkpt><trkpt lat="44.0561087" lon="12.1733128"><ele>153.0</ele><time>2026-04-06T08:01:12.614Z</time></trkpt><trkpt lat="44.0560068" lon="12.1733337"><ele>150.0</ele><time>2026-04-06T08:01:13.614Z</time></trkpt><trkpt lat="44.0558858" lon="12.1733563"><ele>147.0</ele><time>2026-04-06T08:01:14.614Z</time></trkpt><trkpt lat="44.0557559" lon="12.1733935"><ele>144.0</ele><time>2026-04-06T08:01:15.614Z</time></trkpt><trkpt lat="44.0556324" lon="12.1734366"><ele>143.0</ele><time>2026-04-06T08:01:16.614Z</time></trkpt><trkpt lat="44.05552" lon="12.1734927"><ele>142.0</ele><time>2026-04-06T08:01:17.614Z</time></trkpt><trkpt lat="44.0554276" lon="12.173589"><ele>141.0</ele><time>2026-04-06T08:01:18.614Z</time></trkpt><trkpt lat="44.0553527" lon="12.1737285"><ele>140.0</ele><time>2026-04-06T08:01:19.614Z</time></trkpt><trkpt lat="44.0552851" lon="12.1739054"><ele>138.2</ele><time>2026-04-06T08:01:20.615Z</time></trkpt><trkpt lat="44.0552225" lon="12.1740703"><ele>136.4</ele><time>2026-04-06T08:01:21.615Z</time></trkpt><trkpt lat="44.0551847" lon="12.174224"><ele>134.6</ele><time>2026-04-06T08:01:22.614Z</time></trkpt><trkpt lat="44.0551772" lon="12.1743437"><ele>132.8</ele><time>2026-04-06T08:01:23.614Z</time></trkpt><trkpt lat="44.0552084" lon="12.1744473"><ele>131.0</ele><time>2026-04-06T08:01:24.614Z</time></trkpt><trkpt lat="44.055266" lon="12.1745431"><ele>131.0</ele><time>2026-04-06T08:01:25.614Z</time></trkpt><trkpt lat="44.0553514" lon="12.1746546"><ele>131.0</ele><time>2026-04-06T08:01:26.614Z</time></trkpt><trkpt lat="44.0554517" lon="12.174781"><ele>131.0</ele><time>2026-04-06T08:01:27.614Z</time></trkpt><trkpt lat="44.0555504" lon="12.1749073"><ele>131.0</ele><time>2026-04-06T08:01:28.614Z</time></trkpt><trkpt lat="44.0556356" lon="12.1750317"><ele>128.75</ele><time>2026-04-06T08:01:29.615Z</time></trkpt><trkpt lat="44.0556895" lon="12.1751679"><ele>126.5</ele><time>2026-04-06T08:01:30.614Z</time></trkpt><trkpt lat="44.0557152" lon="12.175333"><ele>124.25</ele><time>2026-04-06T08:01:31.614Z</time></trkpt><trkpt lat="44.0557325" lon="12.1755194"><ele>122.0</ele><time>2026-04-06T08:01:32.614Z</time></trkpt><trkpt lat="44.055732" lon="12.1757418"><ele>119.5</ele><time>2026-04-06T08:01:33.614Z</time></trkpt><trkpt lat="44.055738" lon="12.1759464"><ele>117.0</ele><time>2026-04-06T08:01:34.615Z</time></trkpt><trkpt lat="44.0557386" lon="12.1761424"><ele>114.5</ele><time>2026-04-06T08:01:35.614Z</time></trkpt><trkpt lat="44.0557366" lon="12.1763089"><ele>112.0</ele><time>2026-04-06T08:01:36.615Z</time></trkpt><trkpt lat="44.0557378" lon="12.1764425"><ele>112.0</ele><time>2026-04-06T08:01:37.614Z</time></trkpt><trkpt lat="44.0557439" lon="12.1765549"><ele>111.99999999999999</ele><time>2026-04-06T08:01:38.614Z</time></trkpt><trkpt lat="44.0556837" lon="12.1766643"><ele>111.99999999999999</ele><time>2026-04-06T08:01:40.615Z</time></trkpt><trkpt lat="44.0555576" lon="12.1766253"><ele>112.0</ele><time>2026-04-06T08:01:42.615Z</time></trkpt><trkpt lat="44.0554755" lon="12.1765413"><ele>112.0</ele><time>2026-04-06T08:01:43.615Z</time></trkpt><trkpt lat="44.0553907" lon="12.1764167"><ele>112.0</ele><time>2026-04-06T08:01:44.615Z</time></trkpt><trkpt lat="44.0553129" lon="12.1762922"><ele>111.99999999999999</ele><time>2026-04-06T08:01:45.614Z</time></trkpt><trkpt lat="44.0552525" lon="12.1762003"><ele>111.99999999999999</ele><time>2026-04-06T08:01:46.614Z</time></trkpt><trkpt lat="44.0551748" lon="12.1761449"><ele>112.0</ele><time>2026-04-06T08:01:47.614Z</time></trkpt><trkpt lat="44.0551088" lon="12.1761451"><ele>112.0</ele><time>2026-04-06T08:01:48.615Z</time></trkpt><trkpt lat="44.0550365" lon="12.1762329"><ele>112.0</ele><time>2026-04-06T08:01:50.614Z</time></trkpt><trkpt lat="44.0550446" lon="12.1763949"><ele>111.99999999999999</ele><time>2026-04-06T08:01:52.615Z</time></trkpt><trkpt lat="44.0550726" lon="12.1764998"><ele>111.99999999999999</ele><time>2026-04-06T08:01:53.614Z</time></trkpt><trkpt lat="44.0551112" lon="12.1766277"><ele>112.0</ele><time>2026-04-06T08:01:54.615Z</time></trkpt><trkpt lat="44.0551644" lon="12.1767835"><ele>112.0</ele><time>2026-04-06T08:01:55.614Z</time></trkpt><trkpt lat="44.0552132" lon="12.1769576"><ele>109.5</ele><time>2026-04-06T08:01:56.614Z</time></trkpt><trkpt lat="44.0552672" lon="12.1771413"><ele>107.0</ele><time>2026-04-06T08:01:57.614Z</time></trkpt><trkpt lat="44.0553274" lon="12.1773199"><ele>104.5</ele><time>2026-04-06T08:01:58.615Z</time></trkpt><trkpt lat="44.0553866" lon="12.1774884"><ele>102.0</ele><time>2026-04-06T08:01:59.616Z</time></trkpt><trkpt lat="44.0554334" lon="12.1776479"><ele>99.75</ele><time>2026-04-06T08:02:00.614Z</time></trkpt><trkpt lat="44.0554806" lon="12.1778037"><ele>97.5</ele><time>2026-04-06T08:02:01.615Z</time></trkpt><trkpt lat="44.0555281" lon="12.1779535"><ele>95.25</ele><time>2026-04-06T08:02:02.614Z</time></trkpt><trkpt lat="44.0555789" lon="12.1780884"><ele>93.0</ele><time>2026-04-06T08:02:03.614Z</time></trkpt><trkpt lat="44.0556224" lon="12.1782259"><ele>93.4</ele><time>2026-04-06T08:02:04.614Z</time></trkpt><trkpt lat="44.055673" lon="12.1783652"><ele>93.80000000000001</ele><time>2026-04-06T08:02:05.614Z</time></trkpt><trkpt lat="44.0557206" lon="12.1785027"><ele>94.2</ele><time>2026-04-06T08:02:06.614Z</time></trkpt><trkpt lat="44.0557679" lon="12.1786318"><ele>94.6</ele><time>2026-04-06T08:02:07.614Z</time></trkpt><trkpt lat="44.0558107" lon="12.1787524"><ele>95.0</ele><time>2026-04-06T08:02:08.614Z</time></trkpt><trkpt lat="44.0558561" lon="12.1788655"><ele>95.0</ele><time>2026-04-06T08:02:09.614Z</time></trkpt><trkpt lat="44.0558791" lon="12.1789651"><ele>95.0</ele><time>2026-04-06T08:02:10.614Z</time></trkpt><trkpt lat="44.0558241" lon="12.1791187"><ele>95.0</ele><time>2026-04-06T08:02:12.614Z</time></trkpt><trkpt lat="44.055766" lon="12.179191"><ele>95.0</ele><time>2026-04-06T08:02:13.614Z</time></trkpt><trkpt lat="44.0556976" lon="12.1792509"><ele>95.0</ele><time>2026-04-06T08:02:14.614Z</time></trkpt><trkpt lat="44.0556197" lon="12.179295"><ele>95.0</ele><time>2026-04-06T08:02:15.613Z</time></trkpt><trkpt lat="44.0555442" lon="12.1793232"><ele>92.66666666666667</ele><time>2026-04-06T08:02:16.614Z</time></trkpt><trkpt lat="44.055485" lon="12.1793597"><ele>90.33333333333334</ele><time>2026-04-06T08:02:17.615Z</time></trkpt><trkpt lat="44.0554547" lon="12.1794907"><ele>88.0</ele><time>2026-04-06T08:02:19.614Z</time></trkpt><trkpt lat="44.0555076" lon="12.1796164"><ele>85.66666666666667</ele><time>2026-04-06T08:02:21.614Z</time></trkpt><trkpt lat="44.0555553" lon="12.1796919"><ele>83.33333333333333</ele><time>2026-04-06T08:02:23.614Z</time></trkpt><trkpt lat="44.0555626" lon="12.1797816"><ele>81.0</ele><time>2026-04-06T08:02:30.614Z</time></trkpt><trkpt lat="44.0556153" lon="12.1798521"><ele>80.8</ele><time>2026-04-06T08:02:32.615Z</time></trkpt><trkpt lat="44.0557333" lon="12.1799182"><ele>80.6</ele><time>2026-04-06T08:02:34.614Z</time></trkpt><trkpt lat="44.0558152" lon="12.1799517"><ele>80.4</ele><time>2026-04-06T08:02:35.615Z</time></trkpt><trkpt lat="44.055885" lon="12.1799931"><ele>80.2</ele><time>2026-04-06T08:02:36.614Z</time></trkpt><trkpt lat="44.0559677" lon="12.1800339"><ele>80.0</ele><time>2026-04-06T08:02:37.614Z</time></trkpt><trkpt lat="44.0560507" lon="12.1800731"><ele>80.0</ele><time>2026-04-06T08:02:38.614Z</time></trkpt><trkpt lat="44.0561388" lon="12.180117"><ele>80.0</ele><time>2026-04-06T08:02:39.614Z</time></trkpt><trkpt lat="44.0562339" lon="12.1801722"><ele>80.0</ele><time>2026-04-06T08:02:40.614Z</time></trkpt><trkpt lat="44.0563374" lon="12.1802254"><ele>80.0</ele><time>2026-04-06T08:02:41.615Z</time></trkpt><trkpt lat="44.0564778" lon="12.1802672"><ele>82.33333333333334</ele><time>2026-04-06T08:02:42.614Z</time></trkpt><trkpt lat="44.0566217" lon="12.1803054"><ele>84.66666666666667</ele><time>2026-04-06T08:02:43.614Z</time></trkpt><trkpt lat="44.0567806" lon="12.1803403"><ele>87.0</ele><time>2026-04-06T08:02:44.614Z</time></trkpt><trkpt lat="44.0569442" lon="12.1803685"><ele>87.0</ele><time>2026-04-06T08:02:45.614Z</time></trkpt><trkpt lat="44.0571139" lon="12.1803921"><ele>87.0</ele><time>2026-04-06T08:02:46.614Z</time></trkpt><trkpt lat="44.057279" lon="12.1804214"><ele>87.0</ele><time>2026-04-06T08:02:47.614Z</time></trkpt><trkpt lat="44.0574444" lon="12.1804471"><ele>89.66666666666667</ele><time>2026-04-06T08:02:48.614Z</time></trkpt><trkpt lat="44.0576064" lon="12.1804712"><ele>92.33333333333334</ele><time>2026-04-06T08:02:49.615Z</time></trkpt><trkpt lat="44.0577627" lon="12.180506"><ele>95.0</ele><time>2026-04-06T08:02:50.614Z</time></trkpt><trkpt lat="44.0579203" lon="12.1805349"><ele>95.0</ele><time>2026-04-06T08:02:51.614Z</time></trkpt><trkpt lat="44.0580714" lon="12.1805527"><ele>95.0</ele><time>2026-04-06T08:02:52.614Z</time></trkpt><trkpt lat="44.058207" lon="12.1805737"><ele>95.0</ele><time>2026-04-06T08:02:53.614Z</time></trkpt><trkpt lat="44.0583437" lon="12.1806035"><ele>95.0</ele><time>2026-04-06T08:02:54.614Z</time></trkpt><trkpt lat="44.0584704" lon="12.1806213"><ele>95.25</ele><time>2026-04-06T08:02:55.614Z</time></trkpt><trkpt lat="44.0585946" lon="12.1806462"><ele>95.5</ele><time>2026-04-06T08:02:56.614Z</time></trkpt><trkpt lat="44.0587097" lon="12.1806789"><ele>95.75</ele><time>2026-04-06T08:02:57.614Z</time></trkpt><trkpt lat="44.0588195" lon="12.1807046"><ele>96.0</ele><time>2026-04-06T08:02:58.614Z</time></trkpt><trkpt lat="44.0589276" lon="12.1807263"><ele>95.0</ele><time>2026-04-06T08:02:59.614Z</time></trkpt><trkpt lat="44.0590371" lon="12.1807504"><ele>94.0</ele><time>2026-04-06T08:03:00.614Z</time></trkpt><trkpt lat="44.0591438" lon="12.1807681"><ele>93.0</ele><time>2026-04-06T08:03:01.614Z</time></trkpt><trkpt lat="44.059266" lon="12.180789"><ele>92.0</ele><time>2026-04-06T08:03:02.614Z</time></trkpt><trkpt lat="44.0593954" lon="12.1808199"><ele>91.75</ele><time>2026-04-06T08:03:03.615Z</time></trkpt><trkpt lat="44.0595274" lon="12.1808618"><ele>91.5</ele><time>2026-04-06T08:03:04.615Z</time></trkpt><trkpt lat="44.0596502" lon="12.180905"><ele>91.25</ele><time>2026-04-06T08:03:05.614Z</time></trkpt><trkpt lat="44.059776" lon="12.1809335"><ele>91.0</ele><time>2026-04-06T08:03:06.614Z</time></trkpt><trkpt lat="44.059896" lon="12.1809644"><ele>91.5</ele><time>2026-04-06T08:03:07.614Z</time></trkpt><trkpt lat="44.0600259" lon="12.1809976"><ele>92.0</ele><time>2026-04-06T08:03:08.614Z</time></trkpt><trkpt lat="44.0601629" lon="12.1810383"><ele>92.5</ele><time>2026-04-06T08:03:09.614Z</time></trkpt><trkpt lat="44.0603049" lon="12.1810768"><ele>93.0</ele><time>2026-04-06T08:03:10.614Z</time></trkpt><trkpt lat="44.0604407" lon="12.1811146"><ele>93.0</ele><time>2026-04-06T08:03:11.614Z</time></trkpt><trkpt lat="44.0605657" lon="12.1811542"><ele>93.0</ele><time>2026-04-06T08:03:12.614Z</time></trkpt><trkpt lat="44.0606895" lon="12.1811904"><ele>93.0</ele><time>2026-04-06T08:03:13.614Z</time></trkpt><trkpt lat="44.0607856" lon="12.1812229"><ele>93.0</ele><time>2026-04-06T08:03:14.614Z</time></trkpt><trkpt lat="44.0608636" lon="12.1812459"><ele>93.0</ele><time>2026-04-06T08:03:15.615Z</time></trkpt><trkpt lat="44.0609547" lon="12.1812689"><ele>92.0</ele><time>2026-04-06T08:03:17.614Z</time></trkpt></trkseg></trk></gpx>